[[{"header":{"parameterUnit":"m.s-1","parameterCategory":1,"la1":31.0,"la2":29.5877,"lo1":-88.7671,"lo2":-86.6584,"dy":0.0162,"dx":0.0185,"nx":115,"ny":88,"refTime":"2023-05-29T00:00:00:Z","depth":0,"parameterNumber":2,"parameterNumberName":"U-component_of_WINDS"},"data":[0.0,0.0,0.0,0.0,0.0,0.0,0.0,0.0,0.0,0.0,0.0,0.0,0.0,0.0,0.0,0.0,0.0,0.0,0.0,0.0,0.0,0.0,0.0,0.0,0.0,0.0,0.0,0.0,0.0,0.0,0.0,0.0,0.0,0.0,0.0,0.0,0.0,0.0,0.0,0.0,0.0,0.0,0.0,0.0,0.0,0.0,0.0,0.0,0.0,0.0,0.0,0.0,0.0,0.0,0.0,0.0,0.0,0.0,0.0,0.0,0.0,0.0,0.0,0.0,0.0,0.0,0.0,0.0,0.0,0.0,0.0,0.0,0.0,0.0,0.0,0.0,0.0,0.0,0.0,0.0,0.0,0.0,0.0,0.0,0.0,0.0,0.0,0.0,0.0,0.0,0.0,0.0,0.0,0.0,0.0,0.0,0.0,0.0,0.0,0.0,0.0,0.0,0.0,0.0,0.0,0.0,0.0,0.0,0.0,0.0,0.0,0.0,0.0,0.0,0.0,0.0,0.0,0.0,0.0,0.0,0.0,0.0,0.0,0.0,0.0,0.0,0.0,0.0,0.0,0.0,0.0,0.0,0.0,0.0,0.0,0.0,0.0,0.0,0.0,0.0,0.0,0.0,0.0,0.0,0.0,0.0,0.0,0.0,0.0,0.0,0.0,0.0,0.0,0.0,0.0,0.0,0.0,0.0,0.0,0.0,0.0,0.0,0.0,0.0,0.0,0.0,0.0,0.0,0.0,0.0,0.0,0.0,0.0,0.0,0.0,0.0,0.0,0.0,0.0,0.0,0.0,0.0,0.0,0.0,0.0,0.0,0.0,0.0,0.0,0.0,0.0,0.0,0.0,0.0,0.0,0.0,0.0,0.0,0.0,0.0,0.0,0.0,0.0,0.0,0.0,0.0,0.0,0.0,0.0,0.0,0.0,0.0,0.0,0.0,0.0,0.0,0.0,0.0,0.0,0.0,0.0,0.0,0.0,0.0,0.0,0.0,0.0,0.0,0.0,0.0,0.0,0.0,0.0,0.0,0.0,0.0,0.0,0.0,0.0,0.0,0.0,0.0,0.0,0.0,0.0,0.0,0.0,0.0,0.0,0.0,0.0,0.0,0.0,0.0,0.0,0.0,0.0,0.0,0.0,0.0,0.0,0.0,0.0,0.0,0.0,0.0,0.0,0.0,0.0,0.0,0.0,0.0,0.0,0.0,0.0,0.0,0.0,0.0,0.0,0.0,0.0,0.0,0.0,0.0,0.0,0.0,0.0,0.0,0.0,0.0,0.0,0.0,0.0,0.0,0.0,0.0,0.0,0.0,0.0,0.0,0.0,0.0,0.0,0.0,0.0,0.0,0.0,0.0,0.0,0.0,0.0,0.0,0.0,0.0,0.0,0.0,0.0,0.0,0.0,0.0,0.0,0.0,0.0,0.0,0.0,0.0,0.0,0.0,0.0,0.0,0.0,0.0,0.0,0.0,0.0,0.0,0.0,0.0,0.0,0.0,0.0,0.0,0.0,0.0,0.0,0.0,0.0,0.0,0.0,0.0,0.0,0.0,0.0,0.0,0.0,0.0,0.0,0.0,0.0,0.0,0.0,0.0,0.0,0.0,0.0,0.0,0.0,0.0,0.0,0.0,0.0,0.0,0.0,0.0,0.0,0.0,0.0,0.0,0.0,0.0,0.0,0.0,0.0,0.0,0.0,0.0,0.0,0.0,0.0,0.0,0.0,0.0,0.0,0.0,0.0,0.0,0.0,0.0,0.0,0.0,0.0,0.0,0.0,0.0,0.0,0.0,0.0,0.0,0.0,0.0,0.0,0.0,0.0,0.0,0.0,0.0,0.0,0.0,0.0,0.0,0.0,0.0,0.0,0.0,0.0,0.0,0.0,0.0,0.0,0.0,0.0,0.0,0.0,0.0,0.0,0.0,0.0,0.0,0.0,0.0,0.0,0.0,0.0,0.0,0.0,0.0,0.0,0.0,0.0,0.0,0.0,0.0,0.0,0.0,0.0,0.0,0.0,0.0,0.0,0.0,0.0,0.0,0.0,0.0,0.0,0.0,0.0,0.0,0.0,0.0,0.0,0.0,0.0,0.0,0.0,0.0,0.0,0.0,0.0,0.0,0.0,0.0,0.0,0.0,0.0,0.0,0.0,0.0,0.0,0.0,0.0,0.0,0.0,0.0,0.0,0.0,0.0,0.0,0.0,0.0,0.0,0.0,0.0,0.0,0.0,0.0,0.0,0.0,0.0,0.0,0.0,0.0,0.0,0.0,0.0,0.0,0.0,0.0,0.0,0.0,0.0,0.0,0.0,0.0,0.0,0.0,0.0,0.0,0.0,0.0,0.0,0.0,0.0,0.0,0.0,0.0,0.0,0.0,0.0,0.0,0.0,0.0,0.0,0.0,0.0,0.0,0.0,0.0,0.0,0.0,0.0,0.0,0.0,0.0,0.0,0.0,0.0,0.0,0.0,0.0,0.0,0.0,0.0,0.0,0.0,0.0,0.0,0.0,0.0,0.0,0.0,0.0,0.0,0.0,0.0,0.0,0.0,0.0,0.0,0.0,0.0,0.0,0.0,0.0,0.0,0.0,0.0,0.0,0.0,0.0,0.0,0.0,0.0,0.0,0.0,0.0,0.0,0.0,0.0,0.0,0.0,0.0,0.0,0.0,0.0,0.0,0.0,0.0,0.0,0.0,0.0,0.0,0.0,0.0,0.0,0.0,0.0,0.0,0.0,0.0,0.0,0.0,0.0,0.0,0.0,0.0,0.0,0.0,0.0,0.0,0.0,0.0,0.0,0.0,0.0,0.0,0.0,0.0,0.0,0.0,0.0,0.0,0.0,0.0,0.0,0.0,0.0,0.0,0.0,0.0,0.0,0.0,0.0,0.0,0.0,0.0,0.0,0.0,0.0,0.0,0.0,0.0,0.0,0.0,0.0,0.0,0.0,0.0,0.0,0.0,0.0,0.0,0.0,0.0,0.0,0.0,0.0,0.0,0.0,0.0,0.0,0.0,0.0,0.0,0.0,0.0,0.0,0.0,0.0,0.0,0.0,0.0,0.0,0.0,0.0,0.0,0.0,0.0,0.0,0.0,0.0,0.0,0.0,0.0,0.0,0.0,0.0,0.0,0.0,0.0,0.0,0.0,0.0,0.0,0.0,0.0,0.0,0.0,0.0,0.0,0.0,0.0,0.0,0.0,0.0,0.0,0.0,0.0,0.0,0.0,0.0,0.0,0.0,0.0,0.0,0.0,0.0,0.0,0.0,0.0,0.0,0.0,0.0,0.0,0.0,0.0,0.0,0.0,0.0,0.0,0.0,0.0,0.0,0.0,0.0,0.0,0.0,0.0,0.0,0.0,0.0,0.0,0.0,0.0,0.0,0.0,0.0,0.0,0.0,0.0,0.0,0.0,0.0,0.0,0.0,0.0,0.0,0.0,0.0,0.0,0.0,0.0,0.0,0.0,0.0,0.0,0.0,0.0,0.0,0.0,0.0,0.0,0.0,0.0,0.0,0.0,0.0,0.0,0.0,0.0,0.0,0.0,0.0,0.0,0.0,0.0,0.0,0.0,0.0,0.0,0.0,0.0,0.0,0.0,0.0,0.0,0.0,0.0,0.0,0.0,0.0,0.0,0.0,0.0,0.0,0.0,0.0,0.0,0.0,0.0,0.0,0.0,0.0,0.0,0.0,0.0,0.0,0.0,0.0,0.0,0.0,0.0,0.0,0.0,0.0,0.0,0.0,0.0,0.0,0.0,0.0,0.0,0.0,0.0,0.0,0.0,0.0,0.0,0.0,0.0,0.0,0.0,0.0,0.0,0.0,0.0,0.0,0.0,0.0,0.0,0.0,0.0,0.0,0.0,0.0,0.0,0.0,0.0,0.0,0.0,0.0,0.0,0.0,0.0,0.0,0.0,0.0,0.0,0.0,0.0,0.0,0.0,0.0,0.0,0.0,0.0,0.0,0.0,0.0,0.0,0.0,0.0,0.0,0.0,0.0,0.0,0.0,0.0,0.0,0.0,0.0,0.0,0.0,0.0,0.0,0.0,0.0,0.0,0.0,0.0,0.0,0.0,0.0,0.0,0.0,0.0,0.0,0.0,0.0,0.0,0.0,0.0,0.0,0.0,0.0,0.0,0.0,0.0,0.0,0.0,0.0,0.0,0.0,0.0,0.0,0.0,0.0,0.0,0.0,0.0,0.0,0.0,0.0,0.0,0.0,0.0,0.0,0.0,0.0,0.0,0.0,0.0,0.0,0.0,0.0,0.0,2.3834,0.0,0.0,0.0,0.0,0.0,0.0,0.0,0.0,0.0,0.0,0.0,0.0,0.0,0.0,0.0,0.0,0.0,0.0,0.0,0.0,0.0,0.0,0.0,0.0,0.0,0.0,0.0,0.0,0.0,0.0,0.0,0.0,0.0,0.0,0.0,0.0,0.0,0.0,0.0,0.0,0.0,0.0,0.0,0.0,0.0,0.0,0.0,0.0,0.0,0.0,0.0,0.0,0.0,0.0,0.0,0.0,0.0,0.0,0.0,0.0,0.0,0.0,0.0,0.0,0.0,0.0,0.0,0.0,0.0,0.0,0.0,0.0,0.0,0.0,0.0,0.0,0.0,0.0,0.0,0.0,0.0,0.0,0.0,0.0,0.0,0.0,0.0,0.0,0.0,0.0,0.0,0.0,0.0,0.0,0.0,0.0,0.0,0.0,0.0,0.0,0.0,0.0,0.0,0.0,0.0,0.0,0.0,0.0,0.0,0.0,2.417,2.419,2.4132,2.3996,2.3735,0.0,0.0,0.0,0.0,0.0,0.0,0.0,0.0,0.0,0.0,0.0,0.0,0.0,0.0,0.0,0.0,0.0,0.0,0.0,0.0,0.0,0.0,0.0,0.0,0.0,0.0,0.0,0.0,0.0,0.0,0.0,0.0,0.0,0.0,0.0,0.0,0.0,0.0,0.0,0.0,0.0,0.0,0.0,0.0,0.0,0.0,0.0,0.0,0.0,0.0,0.0,0.0,0.0,0.0,0.0,0.0,0.0,0.0,0.0,0.0,0.0,0.0,0.0,0.0,0.0,0.0,0.0,0.0,0.0,0.0,0.0,0.0,0.0,0.0,0.0,0.0,0.0,0.0,0.0,0.0,0.0,0.0,0.0,0.0,0.0,0.0,0.0,0.0,0.0,0.0,0.0,0.0,0.0,0.0,0.0,0.0,0.0,0.0,0.0,0.0,0.0,0.0,0.0,0.0,0.0,0.0,0.0,0.0,0.0,0.0,0.0,0.0,2.4074,2.3876,2.3562,0.0,0.0,0.0,0.0,0.0,0.0,0.0,0.0,0.0,0.0,0.0,0.0,0.0,0.0,0.0,0.0,0.0,0.0,0.0,0.0,0.0,0.0,0.0,0.0,0.0,0.0,0.0,0.0,0.0,0.0,0.0,0.0,0.0,0.0,0.0,0.0,0.0,0.0,0.0,0.0,0.0,0.0,0.0,0.0,0.0,0.0,0.0,0.0,0.0,0.0,0.0,0.0,0.0,0.0,0.0,0.0,0.0,0.0,0.0,0.0,0.0,0.0,0.0,0.0,0.0,0.0,0.0,0.0,0.0,0.0,0.0,0.0,0.0,0.0,0.0,0.0,0.0,0.0,0.0,0.0,0.0,0.0,0.0,0.0,0.0,0.0,0.0,0.0,0.0,0.0,0.0,0.0,0.0,0.0,0.0,0.0,0.0,0.0,0.0,0.0,0.0,0.0,0.0,0.0,0.0,0.0,0.0,0.0,0.0,0.0,2.3955,2.4034,2.3896,0.0,2.3175,0.0,0.0,0.0,0.0,0.0,0.0,0.0,0.0,0.0,0.0,0.0,0.0,0.0,0.0,0.0,0.0,0.0,0.0,0.0,0.0,0.0,0.0,0.0,0.0,0.0,0.0,0.0,0.0,0.0,0.0,0.0,0.0,0.0,0.0,0.0,0.0,0.0,0.0,0.0,0.0,0.0,0.0,0.0,0.0,0.0,0.0,0.0,0.0,0.0,0.0,0.0,0.0,0.0,0.0,0.0,0.0,0.0,0.0,0.0,0.0,0.0,0.0,0.0,0.0,0.0,0.0,0.0,0.0,0.0,0.0,0.0,0.0,0.0,0.0,0.0,0.0,0.0,0.0,0.0,0.0,0.0,0.0,0.0,0.0,0.0,0.0,0.0,0.0,0.0,0.0,0.0,0.0,0.0,0.0,0.0,0.0,0.0,0.0,0.0,0.0,0.0,0.0,0.0,0.0,0.0,0.0,0.0,0.0,0.0,0.0,2.3728,2.3816,2.3664,2.3371,0.0,0.0,0.0,0.0,0.0,0.0,0.0,0.0,0.0,0.0,0.0,0.0,0.0,0.0,0.0,0.0,0.0,0.0,0.0,0.0,0.0,0.0,0.0,0.0,0.0,0.0,0.0,0.0,0.0,0.0,0.0,0.0,0.0,0.0,0.0,0.0,0.0,0.0,0.0,0.0,0.0,0.0,0.0,0.0,0.0,0.0,0.0,0.0,0.0,0.0,0.0,0.0,0.0,0.0,0.0,0.0,0.0,0.0,0.0,0.0,0.0,0.0,0.0,0.0,0.0,0.0,0.0,0.0,0.0,0.0,0.0,0.0,0.0,0.0,0.0,0.0,0.0,0.0,0.0,0.0,0.0,0.0,0.0,0.0,0.0,0.0,0.0,0.0,0.0,0.0,0.0,0.0,0.0,0.0,0.0,0.0,0.0,0.0,0.0,0.0,0.0,0.0,0.0,0.0,0.0,0.0,0.0,0.0,0.0,0.0,2.3342,2.344,2.3558,2.3412,2.3151,2.2816,0.0,0.0,0.0,0.0,0.0,0.0,0.0,0.0,0.0,0.0,0.0,0.0,0.0,0.0,0.0,0.0,0.0,0.0,0.0,0.0,0.0,0.0,0.0,0.0,0.0,0.0,0.0,0.0,0.0,0.0,0.0,0.0,0.0,0.0,0.0,0.0,0.0,0.0,0.0,0.0,0.0,0.0,0.0,0.0,0.0,0.0,0.0,0.0,0.0,0.0,0.0,0.0,0.0,0.0,0.0,0.0,0.0,0.0,0.0,0.0,0.0,0.0,0.0,0.0,0.0,0.0,0.0,0.0,0.0,0.0,0.0,0.0,0.0,0.0,0.0,0.0,0.0,0.0,0.0,0.0,0.0,0.0,0.0,0.0,0.0,0.0,0.0,0.0,0.0,0.0,0.0,0.0,0.0,0.0,0.0,0.0,0.0,0.0,0.0,0.0,0.0,0.0,0.0,0.0,0.0,0.0,0.0,0.0,2.3003,2.3077,2.3168,2.3199,2.3144,2.2952,0.0,0.0,0.0,0.0,0.0,0.0,0.0,0.0,0.0,0.0,0.0,0.0,0.0,0.0,0.0,0.0,0.0,0.0,0.0,0.0,0.0,0.0,0.0,0.0,0.0,0.0,0.0,0.0,0.0,0.0,0.0,0.0,0.0,0.0,0.0,0.0,0.0,0.0,0.0,0.0,0.0,0.0,0.0,0.0,0.0,0.0,0.0,0.0,0.0,0.0,0.0,0.0,0.0,0.0,0.0,0.0,0.0,0.0,0.0,0.0,0.0,0.0,0.0,0.0,0.0,0.0,0.0,0.0,0.0,0.0,0.0,0.0,0.0,0.0,0.0,0.0,0.0,0.0,0.0,0.0,0.0,0.0,0.0,0.0,0.0,0.0,0.0,0.0,0.0,0.0,0.0,0.0,0.0,0.0,0.0,0.0,0.0,0.0,0.0,0.0,0.0,0.0,0.0,0.0,0.0,0.0,0.0,0.0,0.0,2.2738,2.285,2.2893,2.2876,2.285,2.2668,0.0,0.0,0.0,0.0,0.0,0.0,0.0,0.0,0.0,0.0,0.0,0.0,0.0,0.0,0.0,0.0,0.0,0.0,0.0,0.0,0.0,0.0,0.0,0.0,0.0,0.0,0.0,0.0,0.0,0.0,0.0,0.0,0.0,0.0,0.0,0.0,0.0,0.0,0.0,0.0,0.0,0.0,0.0,0.0,0.0,0.0,0.0,0.0,0.0,0.0,0.0,0.0,0.0,0.0,0.0,0.0,0.0,0.0,0.0,0.0,0.0,0.0,0.0,0.0,0.0,0.0,0.0,0.0,0.0,0.0,0.0,0.0,0.0,0.0,0.0,0.0,0.0,0.0,0.0,0.0,0.0,0.0,0.0,0.0,0.0,0.0,0.0,0.0,0.0,0.0,0.0,0.0,0.0,0.0,0.0,0.0,0.0,0.0,0.0,0.0,0.0,0.0,0.0,0.0,0.0,0.0,0.0,0.0,0.0,2.2542,0.0,2.2685,2.2632,2.2605,2.2453,0.0,0.0,0.0,0.0,0.0,0.0,0.0,0.0,0.0,0.0,0.0,0.0,0.0,0.0,0.0,0.0,0.0,0.0,0.0,0.0,0.0,0.0,0.0,0.0,0.0,0.0,0.0,0.0,0.0,0.0,0.0,0.0,0.0,0.0,0.0,0.0,0.0,0.0,0.0,0.0,0.0,0.0,0.0,0.0,0.0,0.0,0.0,0.0,0.0,0.0,0.0,0.0,0.0,0.0,0.0,0.0,0.0,0.0,0.0,0.0,0.0,0.0,0.0,0.0,0.0,0.0,0.0,0.0,0.0,0.0,0.0,0.0,0.0,0.0,0.0,0.0,0.0,0.0,0.0,0.0,0.0,0.0,0.0,0.0,0.0,0.0,0.0,0.0,0.0,0.0,0.0,0.0,0.0,0.0,0.0,0.0,0.0,0.0,0.0,0.0,0.0,0.0,0.0,0.0,0.0,0.0,0.0,0.0,2.2338,2.2422,2.246,2.2515,2.2487,2.2432,2.2276,0.0,0.0,0.0,0.0,0.0,0.0,0.0,0.0,0.0,0.0,0.0,0.0,0.0,0.0,0.0,0.0,0.0,0.0,0.0,0.0,0.0,0.0,0.0,0.0,0.0,0.0,0.0,0.0,0.0,0.0,0.0,0.0,0.0,0.0,0.0,0.0,0.0,0.0,0.0,0.0,0.0,0.0,0.0,0.0,0.0,0.0,0.0,0.0,0.0,0.0,0.0,0.0,0.0,0.0,0.0,0.0,0.0,0.0,0.0,0.0,0.0,0.0,0.0,0.0,0.0,0.0,0.0,0.0,0.0,0.0,0.0,0.0,0.0,0.0,0.0,0.0,0.0,0.0,0.0,0.0,0.0,0.0,0.0,0.0,0.0,0.0,0.0,0.0,0.0,0.0,0.0,0.0,0.0,0.0,0.0,0.0,0.0,0.0,0.0,0.0,0.0,0.0,0.0,0.0,0.0,0.0,0.0,0.0,0.0,2.2321,2.2338,2.2366,2.2366,2.231,2.2123,0.0,0.0,0.0,0.0,0.0,0.0,0.0,0.0,0.0,0.0,0.0,0.0,0.0,0.0,0.0,0.0,0.0,0.0,0.0,0.0,0.0,0.0,0.0,0.0,0.0,0.0,0.0,0.0,0.0,0.0,0.0,0.0,0.0,0.0,0.0,0.0,0.0,0.0,0.0,0.0,0.0,0.0,0.0,0.0,0.0,0.0,0.0,0.0,0.0,0.0,0.0,0.0,0.0,0.0,0.0,0.0,0.0,0.0,0.0,0.0,0.0,0.0,0.0,0.0,0.0,0.0,0.0,0.0,0.0,0.0,0.0,0.0,0.0,0.0,0.0,0.0,0.0,0.0,0.0,0.0,0.0,0.0,0.0,0.0,0.0,0.0,0.0,0.0,0.0,0.0,0.0,0.0,0.0,0.0,0.0,0.0,0.0,0.0,0.0,0.0,0.0,0.0,0.0,0.0,0.0,0.0,0.0,0.0,0.0,2.2327,2.2327,2.2282,2.2254,2.2168,2.1932,2.1603,0.0,0.0,0.0,0.0,0.0,0.0,0.0,0.0,0.0,0.0,0.0,0.0,0.0,0.0,0.0,0.0,0.0,0.0,0.0,0.0,0.0,0.0,0.0,0.0,0.0,0.0,0.0,0.0,0.0,0.0,0.0,0.0,0.0,0.0,0.0,0.0,0.0,0.0,0.0,0.0,0.0,0.0,0.0,0.0,0.0,0.0,0.0,0.0,0.0,0.0,0.0,0.0,0.0,0.0,0.0,0.0,0.0,0.0,0.0,0.0,0.0,0.0,0.0,0.0,0.0,0.0,0.0,0.0,0.0,0.0,0.0,0.0,0.0,0.0,0.0,0.0,0.0,0.0,0.0,0.0,0.0,0.0,0.0,0.0,0.0,0.0,0.0,0.0,0.0,0.0,0.0,0.0,0.0,0.0,0.0,0.0,0.0,0.0,0.0,0.0,0.0,0.0,0.0,0.0,0.0,0.0,0.0,0.0,2.2327,2.2327,2.2271,2.2214,2.2003,2.1735,0.0,0.0,0.0,0.0,0.0,0.0,0.0,0.0,0.0,0.0,0.0,0.0,0.0,0.0,0.0,0.0,0.0,0.0,0.0,0.0,0.0,0.0,0.0,0.0,0.0,0.0,0.0,0.0,0.0,0.0,0.0,0.0,0.0,0.0,0.0,0.0,0.0,0.0,0.0,0.0,0.0,0.0,0.0,0.0,0.0,0.0,0.0,0.0,0.0,0.0,0.0,0.0,0.0,0.0,0.0,0.0,0.0,0.0,0.0,0.0,0.0,0.0,0.0,0.0,0.0,0.0,0.0,0.0,0.0,0.0,0.0,0.0,0.0,0.0,0.0,0.0,0.0,0.0,0.0,0.0,0.0,0.0,0.0,0.0,0.0,0.0,0.0,0.0,0.0,0.0,0.0,0.0,0.0,0.0,0.0,0.0,0.0,0.0,0.0,0.0,0.0,0.0,0.0,0.0,0.0,0.0,0.0,0.0,0.0,2.2327,2.2327,2.2282,2.2254,2.1991,2.1691,0.0,0.0,0.0,0.0,0.0,0.0,0.0,0.0,0.0,0.0,0.0,0.0,0.0,0.0,0.0,0.0,0.0,0.0,0.0,0.0,0.0,0.0,0.0,0.0,0.0,0.0,0.0,0.0,0.0,0.0,0.0,0.0,0.0,0.0,0.0,0.0,0.0,0.0,0.0,0.0,0.0,0.0,0.0,0.0,0.0,0.0,0.0,0.0,0.0,0.0,0.0,0.0,0.0,0.0,0.0,0.0,0.0,0.0,0.0,0.0,0.0,0.0,0.0,0.0,0.0,0.0,0.0,0.0,0.0,0.0,0.0,0.0,0.0,0.0,0.0,0.0,0.0,0.0,0.0,0.0,0.0,0.0,0.0,0.0,0.0,0.0,0.0,0.0,0.0,0.0,0.0,0.0,0.0,0.0,0.0,0.0,0.0,0.0,0.0,0.0,0.0,0.0,0.0,0.0,0.0,0.0,0.0,0.0,2.2864,2.3042,2.2881,2.2836,2.3004,2.2182,2.157,0.0,0.0,0.0,0.0,0.0,0.0,0.0,0.0,0.0,0.0,0.0,0.0,0.0,0.0,0.0,0.0,0.0,0.0,0.0,0.0,0.0,0.0,0.0,0.0,0.0,0.0,0.0,0.0,0.0,0.0,0.0,0.0,0.0,0.0,0.0,0.0,0.0,0.0,0.0,0.0,0.0,0.0,0.0,0.0,0.0,0.0,0.0,0.0,0.0,0.0,0.0,0.0,0.0,0.0,0.0,0.0,0.0,0.0,0.0,0.0,0.0,0.0,0.0,0.0,0.0,0.0,0.0,0.0,0.0,0.0,0.0,0.0,0.0,0.0,0.0,0.0,0.0,0.0,0.0,0.0,0.0,0.0,0.0,0.0,0.0,0.0,0.0,0.0,0.0,0.0,0.0,0.0,0.0,0.0,0.0,0.0,0.0,0.0,0.0,0.0,0.0,0.0,0.0,0.0,0.0,0.0,0.0,0.0,2.3607,2.4086,2.3618,2.3562,2.3944,2.25,2.1528,0.0,0.0,0.0,0.0,0.0,0.0,0.0,0.0,0.0,0.0,0.0,0.0,0.0,0.0,0.0,0.0,0.0,0.0,0.0,0.0,0.0,0.0,0.0,0.0,0.0,0.0,0.0,0.0,0.0,0.0,0.0,0.0,0.0,0.0,0.0,0.0,0.0,0.0,0.0,0.0,0.0,0.0,0.0,0.0,0.0,0.0,0.0,0.0,0.0,0.0,0.0,0.0,0.0,0.0,0.0,0.0,0.0,0.0,0.0,0.0,0.0,0.0,0.0,0.0,0.0,0.0,0.0,0.0,0.0,0.0,0.0,0.0,0.0,0.0,0.0,0.0,0.0,0.0,0.0,0.0,0.0,0.0,0.0,0.0,0.0,0.0,0.0,0.0,0.0,0.0,0.0,0.0,0.0,0.0,0.0,0.0,0.0,0.0,0.0,0.0,0.0,0.0,0.0,0.0,0.0,0.0,0.0,0.0,2.3345,2.3998,2.3517,2.35,2.3971,2.2396,2.1693,0.0,0.0,0.0,0.0,0.0,0.0,0.0,0.0,0.0,0.0,0.0,0.0,0.0,0.0,0.0,0.0,0.0,0.0,0.0,0.0,0.0,0.0,0.0,0.0,0.0,0.0,0.0,0.0,0.0,0.0,0.0,0.0,0.0,0.0,0.0,0.0,0.0,0.0,0.0,0.0,0.0,0.0,0.0,0.0,0.0,0.0,0.0,0.0,2.1369,0.0,0.0,0.0,0.0,0.0,0.0,0.0,0.0,0.0,0.0,0.0,0.0,0.0,0.0,0.0,0.0,0.0,0.0,0.0,0.0,0.0,0.0,0.0,0.0,0.0,0.0,0.0,0.0,0.0,0.0,0.0,0.0,0.0,0.0,0.0,0.0,0.0,0.0,0.0,0.0,0.0,0.0,0.0,0.0,0.0,0.0,0.0,0.0,0.0,0.0,0.0,0.0,0.0,0.0,0.0,0.0,0.0,0.0,0.0,2.3753,2.4442,2.3985,2.3876,2.4129,2.2716,2.1883,0.0,0.0,0.0,0.0,0.0,0.0,0.0,0.0,0.0,0.0,0.0,0.0,0.0,0.0,0.0,0.0,0.0,0.0,0.0,0.0,0.0,0.0,0.0,0.0,0.0,0.0,0.0,0.0,0.0,0.0,0.0,0.0,0.0,0.0,0.0,0.0,0.0,0.0,0.0,0.0,0.0,0.0,0.0,0.0,0.0,0.0,0.0,0.0,0.0,0.0,0.0,0.0,0.0,0.0,0.0,0.0,0.0,0.0,0.0,0.0,0.0,0.0,0.0,0.0,0.0,0.0,0.0,0.0,0.0,0.0,0.0,0.0,0.0,0.0,0.0,0.0,0.0,0.0,0.0,0.0,0.0,0.0,0.0,0.0,0.0,0.0,0.0,0.0,0.0,0.0,0.0,0.0,0.0,0.0,0.0,0.0,0.0,0.0,0.0,0.0,0.0,0.0,0.0,0.0,0.0,0.0,0.0,2.3563,2.4261,2.4946,2.451,2.4349,2.4455,2.3197,2.2113,2.1259,0.0,0.0,0.0,0.0,0.0,0.0,0.0,0.0,0.0,0.0,0.0,0.0,0.0,0.0,0.0,0.0,0.0,0.0,0.0,0.0,0.0,0.0,0.0,0.0,0.0,0.0,0.0,0.0,0.0,0.0,0.0,0.0,0.0,0.0,0.0,0.0,0.0,0.0,2.217,2.2546,0.0,0.0,0.0,0.0,0.0,0.0,0.0,0.0,2.0854,0.0,0.0,0.0,0.0,0.0,0.0,0.0,0.0,0.0,0.0,0.0,0.0,0.0,0.0,0.0,0.0,0.0,0.0,0.0,0.0,0.0,0.0,0.0,0.0,0.0,0.0,0.0,0.0,0.0,0.0,0.0,0.0,0.0,0.0,0.0,0.0,0.0,0.0,0.0,0.0,0.0,0.0,0.0,0.0,0.0,0.0,0.0,0.0,0.0,0.0,0.0,0.0,0.0,0.0,0.0,0.0,2.2721,2.3283,2.4019,2.4888,2.4463,2.4405,2.4761,2.362,2.2609,2.1849,0.0,0.0,0.0,0.0,0.0,0.0,0.0,0.0,0.0,0.0,0.0,0.0,0.0,0.0,0.0,0.0,0.0,0.0,0.0,0.0,0.0,0.0,0.0,0.0,0.0,0.0,0.0,0.0,0.0,0.0,0.0,0.0,0.0,0.0,0.0,0.0,0.0,0.0,0.0,2.2202,2.2019,0.0,0.0,0.0,0.0,0.0,0.0,0.0,0.0,2.1115,0.0,0.0,0.0,0.0,0.0,0.0,0.0,0.0,0.0,0.0,0.0,0.0,0.0,0.0,0.0,0.0,0.0,0.0,0.0,0.0,0.0,0.0,0.0,0.0,0.0,0.0,0.0,0.0,0.0,0.0,0.0,0.0,0.0,0.0,0.0,0.0,0.0,0.0,0.0,0.0,0.0,0.0,0.0,0.0,0.0,0.0,0.0,0.0,0.0,0.0,0.0,0.0,0.0,0.0,0.0,2.2947,2.3236,2.3786,2.4502,2.4315,2.4237,2.4274,2.3542,2.2971,0.0,0.0,0.0,0.0,0.0,0.0,0.0,0.0,0.0,0.0,0.0,0.0,0.0,0.0,0.0,0.0,0.0,0.0,0.0,0.0,0.0,0.0,0.0,0.0,0.0,0.0,0.0,0.0,0.0,0.0,0.0,0.0,0.0,0.0,0.0,0.0,0.0,0.0,0.0,0.0,2.2116,2.1773,2.1708,0.0,0.0,0.0,0.0,0.0,0.0,2.0112,2.0516,0.0,0.0,0.0,0.0,0.0,0.0,0.0,0.0,0.0,0.0,0.0,0.0,0.0,0.0,0.0,0.0,0.0,0.0,0.0,0.0,0.0,0.0,0.0,0.0,0.0,0.0,0.0,0.0,0.0,0.0,0.0,0.0,0.0,0.0,0.0,0.0,0.0,0.0,0.0,0.0,0.0,0.0,0.0,0.0,0.0,0.0,0.0,0.0,0.0,0.0,0.0,0.0,0.0,0.0,0.0,2.3165,2.33,2.361,2.417,2.419,2.4074,2.3795,2.3392,2.3135,0.0,0.0,0.0,0.0,0.0,0.0,0.0,0.0,0.0,0.0,0.0,0.0,0.0,0.0,0.0,0.0,0.0,0.0,0.0,0.0,0.0,0.0,0.0,0.0,0.0,0.0,0.0,0.0,0.0,0.0,0.0,0.0,0.0,0.0,0.0,0.0,0.0,0.0,0.0,0.0,0.0,2.1714,2.1447,2.052,0.0,0.0,0.0,0.0,1.9451,1.9633,0.0,0.0,0.0,0.0,0.0,0.0,0.0,0.0,0.0,0.0,0.0,0.0,0.0,0.0,0.0,0.0,0.0,0.0,0.0,0.0,0.0,0.0,0.0,0.0,0.0,0.0,0.0,0.0,0.0,0.0,0.0,0.0,0.0,0.0,0.0,0.0,0.0,0.0,0.0,0.0,0.0,0.0,0.0,0.0,0.0,0.0,0.0,0.0,0.0,0.0,0.0,0.0,0.0,0.0,0.0,0.0,2.3165,2.3323,2.3649,2.417,2.419,2.4208,2.4133,2.3477,2.2923,0.0,0.0,0.0,0.0,0.0,0.0,0.0,0.0,0.0,0.0,0.0,0.0,0.0,0.0,0.0,0.0,0.0,0.0,0.0,0.0,0.0,0.0,0.0,0.0,0.0,0.0,0.0,0.0,0.0,0.0,0.0,0.0,0.0,0.0,0.0,0.0,0.0,0.0,0.0,0.0,0.0,2.1714,2.1433,2.0546,1.9552,0.0,0.0,1.8243,1.8227,1.9292,0.0,0.0,0.0,0.0,0.0,0.0,0.0,0.0,0.0,0.0,0.0,0.0,0.0,0.0,0.0,0.0,0.0,0.0,0.0,0.0,0.0,0.0,0.0,0.0,0.0,0.0,0.0,0.0,0.0,0.0,0.0,0.0,0.0,0.0,0.0,0.0,0.0,0.0,0.0,0.0,0.0,0.0,0.0,0.0,0.0,0.0,0.0,0.0,0.0,0.0,0.0,0.0,0.0,0.0,0.0,2.2424,2.3117,2.3414,2.3774,2.417,2.419,2.419,2.419,2.3566,2.3154,0.0,0.0,0.0,0.0,0.0,0.0,0.0,0.0,0.0,0.0,0.0,0.0,0.0,0.0,0.0,0.0,0.0,0.0,0.0,0.0,0.0,0.0,0.0,0.0,0.0,0.0,0.0,0.0,0.0,0.0,0.0,0.0,0.0,0.0,0.0,0.0,0.0,0.0,0.0,0.0,0.0,0.0,2.1469,2.0561,0.0,0.0,0.0,1.8578,1.9002,0.0,0.0,0.0,0.0,0.0,0.0,0.0,0.0,0.0,0.0,0.0,0.0,0.0,0.0,0.0,0.0,0.0,0.0,0.0,0.0,0.0,0.0,0.0,0.0,0.0,0.0,0.0,0.0,0.0,0.0,0.0,0.0,0.0,0.0,0.0,0.0,0.0,0.0,0.0,0.0,0.0,0.0,0.0,0.0,0.0,0.0,0.0,0.0,0.0,0.0,0.0,0.0,0.0,0.0,0.0,0.0,0.0,2.3093,2.3414,2.3774,2.417,2.419,2.419,2.419,2.3588,0.0,0.0,0.0,0.0,0.0,0.0,0.0,0.0,0.0,0.0,0.0,0.0,0.0,0.0,0.0,0.0,0.0,0.0,0.0,0.0,0.0,0.0,0.0,0.0,0.0,0.0,0.0,2.0084,0.0,0.0,0.0,0.0,0.0,0.0,0.0,0.0,0.0,0.0,0.0,0.0,0.0,0.0,2.1754,2.1732,2.0902,2.0244,0.0,0.0,1.8892,1.9462,1.9223,1.9043,0.0,0.0,0.0,0.0,0.0,0.0,0.0,0.0,0.0,0.0,0.0,0.0,0.0,0.0,0.0,0.0,0.0,0.0,0.0,0.0,0.0,0.0,0.0,0.0,0.0,0.0,0.0,0.0,0.0,0.0,0.0,0.0,0.0,0.0,0.0,0.0,0.0,0.0,0.0,0.0,0.0,0.0,0.0,0.0,0.0,0.0,0.0,0.0,0.0,0.0,0.0,0.0,0.0,0.0,2.2192,2.3069,2.3189,2.3544,2.417,2.419,2.419,2.419,2.3544,2.3045,0.0,0.0,0.0,0.0,0.0,0.0,0.0,0.0,0.0,0.0,0.0,0.0,0.0,0.0,0.0,0.0,0.0,0.0,0.0,0.0,0.0,0.0,0.0,0.0,0.0,0.0,0.0,0.0,0.0,0.0,0.0,0.0,0.0,0.0,0.0,0.0,0.0,0.0,0.0,0.0,0.0,2.2571,2.2458,2.1695,2.1076,0.0,2.006,1.911,1.8744,1.9723,1.9947,1.8203,0.0,0.0,0.0,0.0,0.0,0.0,0.0,0.0,0.0,0.0,0.0,0.0,0.0,0.0,0.0,0.0,0.0,0.0,0.0,0.0,0.0,0.0,0.0,0.0,0.0,0.0,0.0,0.0,0.0,0.0,0.0,0.0,0.0,0.0,0.0,0.0,0.0,0.0,0.0,0.0,0.0,0.0,0.0,0.0,0.0,0.0,0.0,0.0,0.0,0.0,0.0,0.0,0.0,2.2241,2.2972,2.3346,2.3753,2.417,2.419,2.419,2.419,2.3588,2.3058,0.0,0.0,0.0,0.0,0.0,0.0,0.0,0.0,0.0,0.0,0.0,0.0,0.0,0.0,0.0,0.0,0.0,0.0,0.0,0.0,0.0,0.0,0.0,0.0,0.0,0.0,0.0,0.0,2.0169,2.0243,2.0648,0.0,0.0,0.0,0.0,0.0,0.0,0.0,0.0,0.0,0.0,2.1549,2.1277,2.0857,0.0,0.0,2.0356,2.0055,1.9973,2.0207,2.0112,1.9383,1.9295,0.0,0.0,0.0,0.0,0.0,0.0,0.0,0.0,0.0,0.0,0.0,0.0,0.0,0.0,0.0,0.0,0.0,0.0,0.0,0.0,0.0,0.0,0.0,0.0,0.0,0.0,0.0,0.0,0.0,0.0,0.0,0.0,0.0,0.0,0.0,0.0,0.0,0.0,0.0,0.0,0.0,0.0,0.0,0.0,0.0,0.0,0.0,0.0,0.0,0.0,0.0,0.0,2.218,2.288,2.3328,2.3774,2.4208,2.419,2.419,2.419,2.3606,2.31,0.0,0.0,0.0,0.0,0.0,0.0,0.0,0.0,0.0,0.0,0.0,0.0,0.0,0.0,0.0,0.0,0.0,0.0,0.0,0.0,0.0,0.0,0.0,0.0,0.0,0.0,0.0,0.0,2.0502,2.0493,2.1024,0.0,0.0,0.0,0.0,0.0,0.0,0.0,0.0,0.0,0.0,2.07,2.0567,2.0557,2.0669,2.0843,2.0822,2.081,2.0872,2.0556,2.0219,1.9951,0.0,0.0,0.0,0.0,0.0,0.0,0.0,0.0,0.0,0.0,0.0,0.0,0.0,0.0,0.0,0.0,0.0,0.0,0.0,0.0,0.0,0.0,0.0,0.0,0.0,0.0,0.0,1.9741,0.0,0.0,1.9797,0.0,0.0,0.0,0.0,0.0,0.0,0.0,0.0,0.0,0.0,0.0,0.0,0.0,0.0,0.0,0.0,0.0,0.0,0.0,0.0,0.0,0.0,2.1903,2.288,2.3117,2.3544,2.417,2.419,2.419,2.419,2.3544,2.3141,2.2972,0.0,0.0,0.0,0.0,0.0,0.0,0.0,0.0,0.0,0.0,0.0,0.0,0.0,0.0,0.0,0.0,0.0,0.0,0.0,0.0,0.0,0.0,0.0,0.0,0.0,0.0,2.1914,2.1821,2.1632,0.0,0.0,0.0,0.0,0.0,0.0,0.0,0.0,0.0,0.0,2.0106,2.0387,2.0571,2.1097,2.1598,2.2111,2.1614,2.1187,2.1125,2.0819,2.0265,0.0,0.0,0.0,0.0,0.0,0.0,0.0,0.0,0.0,0.0,0.0,0.0,0.0,0.0,0.0,0.0,0.0,0.0,0.0,0.0,0.0,0.0,0.0,0.0,0.0,0.0,0.0,1.956,1.9632,0.0,0.0,0.0,0.0,0.0,0.0,0.0,0.0,0.0,0.0,0.0,1.9611,1.9432,0.0,0.0,0.0,0.0,0.0,0.0,0.0,0.0,0.0,0.0,0.0,0.0,2.1681,2.26,2.3028,2.3522,2.417,2.419,2.419,2.4208,2.3544,2.2805,2.1903,0.0,0.0,0.0,0.0,0.0,0.0,0.0,0.0,0.0,0.0,0.0,0.0,0.0,0.0,0.0,0.0,0.0,0.0,0.0,0.0,0.0,0.0,0.0,0.0,0.0,2.1212,0.0,0.0,0.0,0.0,0.0,0.0,0.0,0.0,0.0,0.0,0.0,1.9436,1.989,2.0172,2.0412,2.0585,2.0878,2.124,0.0,0.0,0.0,0.0,0.0,0.0,0.0,0.0,0.0,0.0,0.0,0.0,0.0,0.0,1.802,1.7755,1.7228,1.6784,1.6523,0.0,0.0,0.0,0.0,0.0,0.0,0.0,0.0,0.0,0.0,0.0,0.0,0.0,0.0,1.9213,0.0,1.9273,0.0,0.0,0.0,0.0,0.0,0.0,0.0,0.0,1.9929,1.9878,1.9596,1.9213,1.9037,0.0,1.8521,1.8274,0.0,0.0,0.0,0.0,0.0,0.0,0.0,0.0,2.1193,2.2194,2.271,2.331,2.3996,2.4133,2.419,2.419,2.3544,2.2583,2.1229,2.0991,2.117,0.0,0.0,0.0,0.0,0.0,0.0,0.0,0.0,0.0,0.0,0.0,0.0,0.0,0.0,0.0,0.0,0.0,0.0,0.0,0.0,0.0,0.0,0.0,2.1311,0.0,0.0,0.0,0.0,0.0,0.0,0.0,0.0,0.0,1.9825,1.9397,1.9266,1.9616,1.9813,1.9962,2.0069,0.0,0.0,0.0,0.0,0.0,0.0,0.0,2.1907,2.1845,2.1493,2.1412,2.1919,2.0962,2.0129,2.0048,0.0,0.0,1.6899,1.5902,1.5106,1.4845,1.4577,1.4279,1.3628,1.2721,1.1783,0.0,0.0,0.0,0.0,0.0,0.0,0.0,0.0,1.8612,1.8717,0.0,1.8741,0.0,0.0,0.0,0.0,0.0,1.9994,0.0,0.0,2.0311,2.0318,1.9705,1.9472,1.9064,1.8542,1.8809,1.8384,1.75,1.7801,0.0,0.0,0.0,0.0,0.0,0.0,2.0539,2.1653,2.2268,2.2933,2.3671,2.3996,2.417,2.4133,2.3544,2.2513,2.1102,2.0991,2.1224,2.1699,2.16,0.0,0.0,0.0,0.0,0.0,0.0,0.0,0.0,0.0,0.0,0.0,0.0,0.0,0.0,0.0,0.0,0.0,0.0,0.0,0.0,2.1156,0.0,0.0,0.0,0.0,0.0,0.0,0.0,0.0,0.0,0.0,1.9799,1.9346,1.9045,1.907,0.0,0.0,0.0,0.0,2.1391,2.1597,2.223,2.2618,2.2491,2.2318,2.2116,2.1875,0.0,0.0,2.2953,2.175,2.0766,2.0783,1.9311,1.788,1.7306,1.5815,1.4562,1.3723,1.3443,1.2952,1.1784,1.1281,1.0517,1.7765,0.0,0.0,0.0,0.0,1.6885,1.7093,1.7673,1.7515,1.772,1.8147,1.8133,0.0,0.0,0.0,0.0,0.0,0.0,1.9269,1.9132,1.9723,1.9884,1.969,1.9258,1.8945,1.8755,1.8125,1.7876,1.7959,1.7696,1.7591,1.7612,0.0,0.0,0.0,0.0,2.0058,2.1047,2.1838,2.2617,2.3305,2.3671,2.3732,2.35,2.3282,2.2635,2.146,2.115,2.1361,2.2064,2.1822,0.0,0.0,0.0,0.0,0.0,0.0,0.0,0.0,0.0,0.0,0.0,0.0,0.0,0.0,0.0,0.0,0.0,0.0,0.0,2.0912,2.0502,2.0436,0.0,0.0,0.0,0.0,0.0,0.0,0.0,0.0,0.0,1.9825,1.9346,1.9171,0.0,0.0,1.9979,2.0307,2.0777,2.1362,2.2119,2.2335,0.0,2.3496,2.2888,2.259,2.3272,2.3284,2.3142,2.3108,2.2263,2.157,2.1628,1.9883,1.8327,1.7997,1.5948,1.3945,1.2892,1.2516,1.2221,1.1787,1.1001,1.0155,1.8833,1.8343,1.7592,1.7081,1.6672,1.6279,1.6303,1.6621,1.6873,1.7063,1.7216,1.7476,1.7585,1.7557,1.7797,0.0,0.0,0.0,1.8814,1.8945,1.9244,1.9627,2.0027,1.9502,1.9409,1.9641,1.8755,1.8412,1.8539,1.818,1.7865,1.7604,0.0,0.0,1.7707,1.8271,1.9139,2.0231,2.111,2.1939,2.2737,2.3259,2.3328,2.3021,2.2996,2.253,2.1658,2.1488,2.1663,2.2269,2.2103,2.2283,0.0,0.0,0.0,0.0,0.0,0.0,0.0,0.0,0.0,0.0,0.0,2.0086,1.9937,0.0,0.0,0.0,1.9326,1.9798,2.0005,1.9887,0.0,0.0,0.0,0.0,0.0,0.0,0.0,2.0472,2.0476,2.0423,2.0202,2.0062,2.0049,2.0254,2.0371,2.0591,2.1173,0.0,2.1619,2.2138,2.2379,2.2734,2.3267,2.2993,2.2933,2.3566,2.3489,2.3453,2.3705,2.301,2.2533,2.2388,2.111,1.9659,1.883,1.7028,1.5102,1.3474,1.2994,1.2615,1.1695,1.0869,1.0189,2.0335,1.961,1.7768,1.6854,1.6622,1.6099,1.5658,1.543,1.6419,1.654,1.6069,1.6824,1.7186,1.7261,1.7908,0.0,1.858,1.8623,1.8741,1.8908,1.8941,1.9555,2.0661,2.0057,2.0197,2.0947,2.0202,1.9663,1.9256,1.9118,1.8756,1.8064,1.769,1.7513,1.751,1.7406,1.7984,1.928,2.0164,2.111,2.2079,2.2762,2.2996,2.2721,2.2695,2.2361,2.1705,2.1843,2.2062,2.2359,2.2395,2.2452,2.2546,0.0,0.0,0.0,0.0,0.0,0.0,0.0,0.0,0.0,0.0,0.0,0.0,0.0,0.0,0.0,1.8673,0.0,1.8377,1.9378,0.0,0.0,0.0,2.0573,2.0573,2.0422,2.0347,2.0246,0.0,0.0,2.0794,2.1179,2.1317,2.0907,2.0752,2.1024,2.1763,2.1966,2.199,2.186,2.2415,2.2742,2.2493,2.2834,2.3124,2.3068,2.3113,2.3466,2.4341,2.3826,2.3349,2.3474,2.2637,2.1445,1.9562,1.888,1.7814,1.5202,1.4613,1.3806,1.1935,1.1236,1.0833,2.1213,2.0986,1.9965,1.8612,1.7198,1.6661,1.6158,1.5574,1.5185,1.5683,1.6765,1.6248,1.6492,1.739,1.7936,1.8223,1.8303,1.8734,1.8924,1.9014,1.9332,1.9944,2.0683,2.0522,2.081,2.1435,2.092,2.0584,2.0393,1.9953,1.9407,1.8795,1.8527,1.8031,1.7289,1.7225,1.7557,1.8321,1.9352,2.0606,2.2051,2.2272,2.246,2.2695,2.2695,2.252,2.2135,2.1547,2.1722,2.2769,2.2232,2.2263,2.3069,2.2694,0.0,0.0,0.0,0.0,0.0,0.0,0.0,0.0,0.0,1.9826,1.98,0.0,1.9397,0.0,1.8538,1.8735,1.9509,1.9382,0.0,0.0,2.0004,2.0144,2.0131,2.0144,2.0258,2.0716,2.0762,2.0882,2.1242,2.1405,2.1594,2.1857,2.1556,2.1385,2.169,2.166,2.1652,2.1773,2.1898,2.2123,2.249,2.2999,2.3126,2.2576,2.2849,2.3376,2.4067,2.3369,2.2963,2.3734,2.2595,2.149,2.1253,2.0394,1.9052,1.7432,1.6195,1.5219,1.4281,1.3386,1.2636,2.2622,2.2356,2.2171,2.0957,1.9048,1.8217,1.7386,1.6613,1.6428,1.6653,1.7182,1.6902,1.7242,1.8129,1.843,1.8568,1.8568,1.8878,1.9019,1.9021,1.9282,1.9992,2.114,2.0823,2.1366,2.2517,2.1681,2.1383,2.1594,2.0786,2.0126,1.9821,1.9056,1.8488,1.7987,1.7417,1.7428,1.8071,1.9078,2.0426,2.1977,2.1936,2.196,2.2119,2.2626,2.2745,2.2475,2.2394,2.2643,2.3222,2.2851,2.2736,2.2935,2.2649,2.2235,0.0,0.0,0.0,0.0,0.0,0.0,0.0,0.0,0.0,0.0,0.0,1.9422,1.9371,1.8882,1.8907,1.9851,1.9598,1.9585,2.0242,2.0305,2.0393,2.0646,2.0671,2.081,2.1125,2.131,2.1506,2.182,2.2071,2.2322,2.2636,2.2422,2.2221,2.2324,2.2279,2.2192,2.2008,2.2008,2.1996,2.2218,2.2444,2.245,2.2091,2.241,2.2962,2.3514,2.3367,2.3325,2.3605,2.2868,2.1892,2.1502,2.0812,1.9766,1.8493,1.7623,1.6669,1.5459,1.4654,1.4175,2.4408,2.3883,2.4355,2.3405,2.1511,2.0393,1.9206,1.799,1.8398,1.808,1.7327,1.809,1.8643,1.9032,1.9183,1.9233,1.9246,1.9271,1.9279,1.9237,1.9192,2.0093,2.1655,2.1112,2.1784,2.3492,2.2483,2.2249,2.2764,2.1589,2.0983,2.0851,1.9631,1.9034,1.9071,1.7934,1.7634,1.8222,1.9045,2.0248,2.1795,2.1649,2.1562,2.158,2.2498,2.2891,2.2686,2.3414,2.3759,2.3623,2.362,2.3375,2.268,2.2603,2.2128,0.0,2.101,0.0,0.0,0.0,0.0,0.0,0.0,0.0,0.0,1.9071,1.9321,1.9773,1.9384,1.9309,1.9761,1.9874,2.0112,2.0655,2.0781,2.0966,2.1418,2.1481,2.1518,2.1581,2.202,2.2334,2.2422,2.2849,2.3125,2.31,2.3002,2.3025,2.304,2.3062,2.2849,2.2385,2.227,2.1994,2.1485,2.1485,2.1587,2.1534,2.1845,2.2397,2.2937,2.3353,2.3691,2.3436,2.3261,2.2671,2.1204,2.0854,2.0242,1.9073,1.8644,1.7961,1.6246,1.55,1.5376,2.6455,2.5907,2.5993,2.5101,2.3703,2.3457,2.1703,1.8962,1.8282,1.7728,1.7411,1.8858,1.9334,1.9108,1.9962,2.0404,2.0376,2.0815,2.0769,2.0384,2.0319,2.0796,2.1643,2.1581,2.2221,2.3522,2.3346,2.3349,2.3504,2.2708,2.2096,2.1621,2.0768,2.0143,1.9635,0.0,0.0,0.0,1.8783,1.9641,2.0883,2.1233,2.1618,2.2183,2.2427,0.0,2.2492,2.2828,2.318,2.3476,2.3153,0.0,0.0,0.0,0.0,0.0,0.0,0.0,0.0,0.0,0.0,0.0,1.971,1.966,1.9648,1.966,1.9698,1.9786,1.9723,1.9698,1.9798,2.0225,2.0592,2.0718,2.1066,2.138,2.1481,2.1493,2.1644,2.2108,2.2259,2.2498,2.2899,2.3015,2.3125,2.3125,2.3125,2.3125,2.3125,2.3125,2.2865,2.2385,2.2015,2.1335,2.0269,2.0942,2.131,2.1071,2.128,2.1832,2.2347,2.256,2.3025,2.3604,2.3192,2.2728,2.268,2.1857,2.0815,1.9844,1.9427,1.8812,1.7725,1.6862,1.6349,2.8067,2.7455,2.7442,2.6558,0.0,2.5196,2.3863,2.1523,2.0483,1.9637,1.9078,1.987,2.0075,1.9886,2.0702,2.1066,2.1091,2.1355,2.1343,2.1096,2.0794,2.1015,2.1664,2.1699,2.2183,2.3143,2.3465,2.3807,2.4082,2.3163,2.2719,2.2685,2.1421,2.066,2.0283,1.9755,1.952,1.9547,1.9439,2.0131,2.1584,2.1436,2.1459,2.1771,2.1979,0.0,0.0,0.0,0.0,0.0,0.0,0.0,0.0,2.3615,0.0,2.2843,2.2674,2.2217,2.1433,2.096,2.0718,2.0639,2.0639,2.0401,1.9849,1.9798,1.9924,2.02,1.9974,1.9911,2.02,2.0238,2.0517,2.0991,2.133,2.1681,2.2184,2.2297,2.241,2.2648,2.2711,2.2836,2.3088,2.3125,2.3125,2.3125,2.3125,2.3125,2.3125,2.3125,2.2877,2.241,2.2096,2.1606,2.0853,2.0778,2.1071,2.0819,2.0945,2.1292,2.1807,2.2133,2.2598,2.3315,2.3108,2.2819,2.2555,2.204,2.1274,2.0468,2.0107,1.9639,1.8854,1.791,1.7285,2.9395,2.8613,2.874,2.7866,2.6338,2.6445,2.5616,2.4151,0.0,0.0,0.0,2.0857,2.0752,2.0769,2.1343,2.1581,2.1506,2.1694,2.1719,2.1606,2.1319,2.1456,2.1954,2.2117,2.2564,2.3223,2.3733,2.4253,2.4716,2.3596,2.3264,2.3482,2.1945,2.1144,2.1099,2.0708,2.0853,2.1499,2.0673,2.0984,2.2483,2.1881,2.1489,2.1438,2.1848,2.1905,2.1734,2.2809,2.335,2.3178,2.358,2.3711,2.3524,2.4044,2.4156,2.3721,2.3644,2.3373,2.2791,2.1781,2.1268,2.1468,2.1481,2.1091,2.0162,2.01,2.025,2.0693,2.029,2.0112,2.0529,2.03,2.0464,2.1405,2.1656,2.2159,2.2915,2.3125,2.3088,2.3125,2.304,2.3125,2.3065,2.3125,2.3125,2.3125,2.3125,2.3125,2.3125,2.3125,2.289,2.2422,2.2259,2.2058,2.1443,2.1104,2.0806,2.058,2.0718,2.1033,2.143,2.1945,2.2498,2.3075,2.3138,2.2848,2.2273,2.2185,2.1815,2.0985,2.0846,2.0602,1.9694,1.8854,1.8202,3.0499,2.9506,2.9982,2.9078,2.7341,2.7883,2.6937,2.4912,2.3127,2.1958,2.138,2.138,2.1117,2.0727,2.1744,2.1933,2.1556,2.2485,2.2648,2.2254,2.2752,2.3151,2.3375,2.3971,2.4626,2.5176,2.5284,2.5375,2.539,2.4716,2.4145,2.3667,2.2858,2.2456,2.2421,2.2344,2.2944,2.4086,2.2357,2.1657,2.2074,2.2289,2.2556,2.2787,2.2845,2.2915,2.2897,2.3555,2.3899,2.3688,2.3752,2.3739,2.364,2.4238,2.4294,2.3811,2.464,2.4427,2.2791,2.2839,2.26,2.1643,2.1481,2.1418,2.1267,2.1255,2.1091,2.0781,2.0643,2.0363,2.0049,2.0715,2.1267,2.1531,2.2334,2.2975,2.3125,2.3125,2.3125,2.3125,2.3125,2.3125,2.3125,2.3125,2.3125,2.3125,2.3125,2.3125,2.3125,2.3125,2.2912,2.246,2.2322,2.1882,2.1167,2.1167,2.0916,2.0062,2.074,2.1292,2.1455,2.1945,2.2498,2.3037,2.3125,2.3005,2.2884,2.2944,2.258,2.1877,2.1678,2.1428,2.059,1.9694,1.8854,3.1195,3.0687,3.0956,3.0305,2.8973,2.8479,2.775,2.6734,2.5186,2.3501,2.2027,2.1945,2.1794,2.1644,2.241,2.2623,2.241,2.284,2.3238,2.338,2.3428,2.3621,2.4097,2.449,2.4854,2.5143,2.5444,2.5794,2.6048,2.548,2.5191,2.5206,2.4272,2.3621,2.327,2.3597,2.4083,2.465,2.3447,2.2962,2.3378,2.2912,2.2694,2.2888,2.2526,2.2315,2.2345,2.3005,2.3311,2.3185,2.3516,2.3818,2.4148,2.4792,2.5176,2.528,2.5763,2.5659,2.4783,2.4215,2.335,2.2052,2.2221,2.2385,2.2385,2.1832,2.138,2.1142,2.1117,2.1016,2.0752,2.1192,2.1606,2.1907,2.241,2.2752,2.3015,2.3125,2.3125,2.3125,2.3125,2.3125,2.3125,2.3125,2.3125,2.3125,2.3125,2.3125,2.3125,2.3125,2.2937,2.2435,2.2309,2.1983,2.1267,2.1083,2.0828,2.0313,2.069,2.1142,2.1418,2.1958,2.2498,2.3,2.3125,2.3125,2.3125,2.3125,2.2884,2.2763,2.2567,2.2187,2.1428,2.0279,1.8961,3.1467,3.1467,3.1467,3.1146,3.0437,2.9078,2.8524,2.8344,2.7295,2.5564,2.3567,2.2949,2.2757,2.2853,2.3229,2.3408,2.3423,2.3526,2.393,2.4456,2.4254,2.4395,2.4945,2.5229,2.536,2.5423,2.5842,2.6243,2.6497,2.6078,2.6004,2.624,2.5379,2.4702,2.4368,2.4896,2.5214,2.5316,2.4699,2.442,2.4552,2.361,2.3041,2.2847,2.2398,2.2128,2.2143,2.2772,2.3116,2.3146,2.3714,2.4298,2.4822,2.548,2.6063,2.6538,2.6696,2.6669,2.6457,2.5133,2.3864,2.2885,2.2959,2.3125,2.3062,2.2372,2.1794,2.1694,2.1669,2.1619,2.1493,2.1606,2.1845,2.2259,2.2435,2.2698,2.299,2.3125,2.3125,2.3125,2.3125,2.3125,2.3125,2.3125,2.3125,2.3125,2.3125,2.3125,2.3125,2.3125,2.2912,2.2498,2.2322,2.2171,2.1707,2.1242,2.0941,2.0907,2.1004,2.133,2.1707,2.2146,2.2585,2.305,2.3125,2.3125,2.3125,2.3125,2.3078,2.3005,2.3005,2.275,2.1939,2.0921,1.9543,3.1467,3.1467,3.1467,3.1482,3.1202,3.0015,2.94,2.9232,2.8541,2.774,2.6693,2.494,2.4193,2.4259,2.4283,2.4256,2.4409,2.4929,2.5231,2.5356,2.5943,2.625,2.6328,2.696,2.733,2.7285,2.732,2.7036,2.6647,2.6542,2.6243,2.5749,2.5583,2.5786,2.6262,2.6385,2.6732,2.73,2.6688,2.5792,2.4657,2.4462,2.4163,2.3535,2.346,2.343,2.3445,2.4088,2.4388,2.4448,2.5031,2.5435,2.557,2.6138,2.6527,2.6617,2.7166,2.7203,2.651,2.5119,2.4253,2.4111,2.3492,2.3125,2.3138,2.3025,2.2749,2.2372,2.2234,2.2033,2.1594,2.1933,2.2259,2.2372,2.2749,2.3088,2.3113,2.3125,2.3125,2.3125,2.3125,2.3125,2.3125,2.3125,2.3125,2.3125,2.3125,2.3125,2.3125,2.3125,2.2915,2.251,2.2322,2.2309,2.2096,2.1769,2.1393,2.1393,2.1807,2.2033,2.2234,2.2598,2.3027,2.3062,2.3125,2.3125,2.3125,2.3125,2.3125,2.3125,2.3065,2.2884,2.2125,2.169,2.0853,3.1467,3.1467,3.1467,3.1467,3.148,3.136,3.1038,3.06,2.9908,2.943,2.9029,2.7442,2.6524,2.6146,2.575,2.5558,2.5619,2.5882,2.6022,2.6082,2.6351,2.6721,2.7152,2.7473,2.756,2.756,2.756,2.749,2.7265,2.722,2.7021,2.6797,2.6782,2.6901,2.7205,2.7171,2.7355,2.756,2.7355,2.6722,2.5869,2.5405,2.5076,2.4792,2.4418,2.4418,2.4717,2.4702,2.4807,2.5181,2.548,2.5794,2.6168,2.6452,2.6767,2.7141,2.741,2.7255,2.6549,2.596,2.5398,2.5021,2.4221,2.3826,2.3767,2.3352,2.2965,2.2849,2.2786,2.2585,2.2121,2.2472,2.2786,2.2836,2.3012,2.3125,2.3125,2.3125,2.3125,2.3125,2.3125,2.3125,2.3125,2.3125,2.3125,2.3125,2.3125,2.3125,2.3125,2.3125,2.2977,2.2874,2.2799,2.2472,2.2033,2.1669,2.1518,2.1594,2.1945,2.2297,2.241,2.2774,2.3065,2.3125,2.3125,2.3125,2.3125,2.3125,2.3125,2.3125,2.3078,2.2957,2.2641,2.2199,2.1647,3.1913,3.2033,3.1884,3.1809,3.1824,3.2108,3.2078,3.1749,3.1076,3.0776,3.066,2.9486,2.8828,2.8322,2.7412,2.706,2.7244,2.73,2.7195,2.7094,2.705,2.7277,2.759,2.756,2.756,2.756,2.756,2.7715,2.788,2.7844,2.7949,2.8135,2.8165,2.8165,2.8113,2.7979,2.7859,2.7844,2.773,2.7385,2.6841,2.6393,2.5974,2.5615,2.5151,2.5136,2.557,2.533,2.5375,2.5854,2.6048,2.6363,2.6826,2.7036,2.7425,2.809,2.8165,2.7906,2.7365,2.6977,2.654,2.5966,2.5116,2.4509,2.4234,2.3767,2.3365,2.3113,2.3125,2.2877,2.2686,2.2899,2.3113,2.3125,2.3125,2.3125,2.3125,2.3125,2.3125,2.3125,2.3125,2.3125,2.3125,2.3125,2.3125,2.3125,2.3125,2.3125,2.3125,2.3125,2.3125,2.3125,2.3065,2.2765,2.2083,2.1845,2.1769,2.1933,2.2297,2.2372,2.2485,2.2937,2.3125,2.3125,2.3125,2.3125,2.3125,2.3125,2.3125,2.3125,2.3078,2.3078,2.3005,2.2653,2.2686,3.2841,3.326,3.2736,3.2497,3.2452,3.1928,3.1958,3.2362,3.1749,3.1422,3.1345,3.0705,3.0708,3.101,2.9173,2.8747,2.9357,2.9357,2.9,2.8487,2.8442,2.8151,2.759,2.756,2.7604,2.7715,2.7754,2.8008,2.8532,2.8562,2.8876,2.943,2.9385,2.943,2.9325,2.8816,2.8562,2.8427,2.7934,2.761,2.755,2.7455,2.6841,2.5899,2.56,2.5615,2.5719,2.6183,2.6497,2.6542,2.7081,2.7505,2.7575,2.8143,2.8757,2.9325,2.9445,2.9445,2.9232,2.8174,2.7458,2.7236,2.6217,2.5118,2.4727,2.4456,2.4047,2.3236,2.3286,2.3223,2.3175,2.3201,2.3115,2.3078,2.3103,2.3175,2.3125,2.3125,2.3125,2.3175,2.3213,2.3188,2.315,2.3125,2.3125,2.3125,2.3125,2.3125,2.3125,2.3125,2.3125,2.3125,2.3125,2.31,2.2987,2.2585,2.2535,2.2636,2.256,2.2498,2.2849,2.3125,2.3125,2.3125,2.3125,2.3125,2.3125,2.3125,2.3125,2.3125,2.3125,2.3125,2.3314,2.3678,2.3804,3.3275,3.3529,3.3694,3.3544,3.317,3.332,3.3095,3.2512,3.2258,3.1913,3.1539,3.1213,3.13,3.1437,3.073,3.0327,3.0178,3.0178,2.9834,2.928,2.9235,2.8876,2.8323,2.8637,2.8607,2.8323,2.8637,2.8981,2.919,2.922,2.934,2.9535,2.9594,2.9594,2.9535,2.9355,2.9041,2.8622,2.8338,2.8023,2.7655,2.756,2.7515,2.7485,2.6677,2.6437,2.6856,2.6707,2.6782,2.72,2.7455,2.7769,2.8233,2.8861,2.9325,2.9549,2.9594,2.9594,2.9549,2.9124,2.8813,2.8798,2.7905,2.7173,2.6848,2.6155,2.5423,2.5035,2.4598,2.4343,2.4129,2.3904,2.354,2.3251,2.3452,2.3514,2.3226,2.3138,2.3263,2.3577,2.3678,2.3565,2.3276,2.3138,2.3125,2.3125,2.3125,2.3125,2.3125,2.3125,2.3125,2.3125,2.3125,2.3125,2.3125,2.3,2.2912,2.2975,2.2902,2.2912,2.31,2.3125,2.3125,2.3125,2.3125,2.3125,2.3138,2.3238,2.3213,2.3078,2.3078,2.3401,2.3615,2.3929,2.4381,3.3559,3.3275,3.3664,3.3724,3.3544,3.3739,3.3589,3.3066,3.2691,3.2258,3.1869,3.1571,3.1467,3.1467,3.1467,3.13,3.0866,3.0836,3.0492,2.9924,2.9879,2.952,2.9071,2.937,2.934,2.9026,2.934,2.9669,2.9864,2.9879,2.9998,3.0223,3.0223,3.0193,3.0178,2.9998,2.9564,2.9026,2.8712,2.8263,2.773,2.7784,2.8113,2.8427,2.7919,2.7754,2.8203,2.7784,2.7739,2.8143,2.8269,2.8517,2.919,2.9639,2.9998,3.0178,3.0223,3.0208,3.0178,3.0013,2.9864,2.9864,2.9241,2.8706,2.8367,2.7556,2.6937,2.6511,2.6103,2.5733,2.5566,2.5215,2.4518,2.3676,2.3766,2.3841,2.3477,2.3427,2.3602,2.3866,2.3954,2.3853,2.3654,2.354,2.3464,2.3414,2.3215,2.3138,2.3125,2.3125,2.3125,2.3125,2.3125,2.3125,2.3125,2.3062,2.3025,2.3075,2.304,2.3125,2.3125,2.3125,2.3125,2.3125,2.3125,2.3125,2.3188,2.3301,2.3276,2.3128,2.3341,2.369,2.3916,2.4167,2.4657,3.3754,3.2766,3.2557,3.3095,3.3499,3.3095,3.338,3.4038,3.308,3.2587,3.2452,3.1884,3.1689,3.1644,3.1779,3.1556,3.1482,3.1539,3.1165,3.0552,3.0507,3.0193,2.9624,2.9729,2.9789,2.9684,2.9669,2.9968,3.0492,3.0537,3.0806,3.136,3.1345,3.1285,3.1465,3.0791,3.0208,2.9594,2.9026,2.8338,2.7805,2.8203,2.8562,2.8727,2.9131,2.946,2.9564,2.9475,2.934,2.943,2.946,2.9834,3.0238,3.0477,3.0791,3.127,3.1392,3.1407,3.1317,3.0836,3.0522,3.0477,2.9943,2.943,2.8897,2.8553,2.8168,2.7642,2.7367,2.728,2.7239,2.6943,2.6046,2.4406,2.4192,2.4155,2.4029,2.4017,2.4004,2.4079,2.4142,2.428,2.4531,2.4305,2.4017,2.3916,2.3577,2.3251,2.3251,2.3213,2.3138,2.3125,2.3125,2.3125,2.3125,2.3125,2.3125,2.3125,2.3125,2.3125,2.3125,2.3125,2.3125,2.3125,2.3125,2.3138,2.3103,2.3276,2.3326,2.3339,2.3653,2.3904,2.4167,2.4455,2.4996,3.4666,3.3903,3.3873,3.3978,3.4143,3.3948,3.4128,3.4367,3.3544,3.3185,3.3066,3.2497,3.2452,3.2811,3.2886,3.2632,3.2228,3.2183,3.1854,3.13,3.121,3.0866,3.0417,3.0702,3.0911,3.0926,3.0941,3.1001,3.115,3.1138,3.136,3.1495,3.1467,3.1467,3.1467,3.1228,3.0881,3.0223,2.9594,2.8951,2.8353,2.8487,2.8816,2.9295,2.9879,3.0417,3.0851,3.0073,2.9609,2.9624,2.9594,2.9864,3.0447,3.0956,3.1243,3.1422,3.1467,3.1467,3.1452,3.1302,3.118,3.1165,3.1001,3.0812,3.0537,3.0081,2.968,2.9299,2.8995,2.8601,2.8421,2.8064,2.7174,2.5651,2.5231,2.496,2.4657,2.4845,2.4883,2.4682,2.487,2.5021,2.4858,2.4607,2.4633,2.4646,2.4204,2.3851,2.3752,2.3609,2.315,2.3125,2.3125,2.3504,2.3726,2.3837,2.3631,2.3457,2.3248,2.3138,2.3125,2.3138,2.3138,2.3226,2.3213,2.3213,2.3178,2.329,2.3489,2.3351,2.3439,2.3804,2.4367,2.4818,2.5297,3.4876,3.4427,3.3948,3.3903,3.4068,3.3873,3.4053,3.4322,3.3769,3.3634,3.3679,3.317,3.3095,3.344,3.3499,3.3275,3.2901,3.2886,3.2527,3.1973,3.1898,3.1629,3.1315,3.1674,3.1898,3.178,3.1586,3.1467,3.1467,3.1467,3.1467,3.1467,3.1467,3.1467,3.1467,3.1452,3.1195,3.0537,3.0103,2.9609,2.916,2.919,2.9505,2.9953,3.0552,3.1019,3.1377,3.0717,3.0298,3.0313,3.0298,3.0522,3.0896,3.13,3.1467,3.1467,3.1467,3.1467,3.1467,3.1452,3.1467,3.1467,3.1467,3.1452,3.1392,3.1076,3.0834,3.0661,3.0353,3.0029,2.9915,2.9332,2.8563,2.7803,2.6656,2.5895,2.534,2.5385,2.5448,2.5234,2.5372,2.5605,2.583,2.5614,2.5743,2.5844,2.5602,2.521,2.5158,2.497,2.4687,2.4609,2.4945,2.5117,2.4846,2.4567,2.4214,2.3901,2.3517,2.3248,2.3125,2.315,2.315,2.3489,2.359,2.3615,2.364,2.3879,2.4017,2.3703,2.3464,2.4117,2.4705,2.5046,2.5448,3.4487,3.4262,3.3155,3.314,3.3574,3.308,3.3574,3.4352,3.3888,3.3978,3.4292,3.3829,3.3666,3.3696,3.3875,3.3832,3.3713,3.3713,3.3457,3.3063,3.2942,3.2792,3.2183,3.2287,3.2332,3.2213,3.1779,3.1482,3.1467,3.1467,3.1467,3.1467,3.1467,3.1467,3.1467,3.1467,3.124,3.0746,3.0477,3.0028,2.9624,3.0028,3.0372,3.0462,3.1091,3.1422,3.148,3.139,3.1405,3.1437,3.136,3.136,3.1422,3.1467,3.1467,3.1467,3.1467,3.1467,3.1467,3.1467,3.1467,3.1467,3.1467,3.1467,3.1495,3.1392,3.1362,3.1336,3.1334,3.1349,3.1204,3.0719,3.0214,2.9972,2.8242,2.6855,2.5981,2.5927,2.6125,2.6047,2.5927,2.6253,2.7499,2.7233,2.7377,2.7544,2.7289,2.6859,2.6626,2.6403,2.6945,2.6775,2.6181,2.6176,2.5751,2.5807,2.5515,2.5309,2.4648,2.4056,2.3321,2.315,2.3314,2.3653,2.3929,2.3966,2.4104,2.4318,2.4268,2.3929,2.4092,2.4644,2.4983,2.5234,2.5561,3.4651,3.3784,3.3903,3.4068,3.4188,3.4023,3.4412,3.5085,3.455,3.4658,3.503,3.4517,3.4864,3.5646,3.5193,3.5278,3.5615,3.527,3.5074,3.5014,3.5464,3.4006,3.2329,3.2302,3.2302,3.1913,3.1646,3.1467,3.1467,3.1467,3.1524,3.1467,3.1524,3.1524,3.1467,3.1524,3.145,3.1135,3.0253,3.0058,3.0223,2.9983,3.0058,3.0537,3.1123,3.1452,3.1467,3.1467,3.1467,3.1467,3.1467,3.1467,3.1467,3.1467,3.1467,3.1467,3.1467,3.1467,3.1467,3.1467,3.1467,3.1467,3.1467,3.1467,3.1467,3.1467,3.1467,3.1467,3.1467,3.1467,3.1467,3.1278,3.0911,3.0254,2.9184,2.8334,2.8029,2.812,2.812,2.8106,2.8015,2.8187,2.8434,2.8479,2.8332,2.8166,2.7774,2.7259,2.7225,2.7071,2.7314,2.6634,2.6254,2.6574,2.671,2.6827,2.685,2.6768,2.6172,2.519,2.4154,2.3163,2.3452,2.3816,2.4054,2.4155,2.4431,2.4707,2.4367,2.4167,2.4318,2.4657,2.5034,2.5335,2.5649,3.504,3.4337,3.4427,3.4693,3.488,3.4714,3.5141,3.583,3.5644,3.5829,3.6276,3.6076,3.6319,3.7008,3.6631,3.6732,3.71,3.6722,3.6384,3.6254,3.6549,3.5571,3.4038,3.368,3.3048,3.2332,3.1779,3.1482,3.1467,3.1467,3.164,3.1853,3.164,3.164,3.1951,3.1625,3.1524,3.1405,3.0761,3.0612,3.0866,3.0597,3.0612,3.0941,3.1287,3.1467,3.1524,3.1796,3.1838,3.1582,3.1467,3.1467,3.1467,3.1467,3.1467,3.1467,3.1467,3.1467,3.1467,3.1467,3.1467,3.1467,3.1467,3.1467,3.1467,3.1467,3.1467,3.1467,3.1467,3.1467,3.1467,3.1467,3.1278,3.0896,3.0329,2.9766,2.9129,2.8898,2.8989,2.8989,2.9002,2.9192,2.9442,2.9293,2.9153,2.8995,2.8713,2.8282,2.7966,2.7668,2.7511,2.7228,2.7527,2.8197,2.8454,2.8594,2.8064,2.7907,2.6729,2.5963,2.507,2.3748,2.3764,2.4042,2.4217,2.4481,2.4883,2.5046,2.4732,2.4569,2.4556,2.4695,2.5096,2.5473,2.5787,3.5479,3.5364,3.4883,3.514,3.5714,3.5303,3.587,3.6757,3.6813,3.7116,3.7536,3.7748,3.7626,3.7921,3.7632,3.7847,3.806,3.7923,3.7657,3.7436,3.7404,3.7014,3.6503,3.4926,3.4063,3.3256,3.2133,3.1887,3.1951,3.1894,3.2104,3.2477,3.2104,3.2104,3.2516,3.2089,3.1796,3.1864,3.1663,3.1658,3.1764,3.1673,3.1571,3.1573,3.1664,3.1754,3.1894,3.2256,3.2422,3.1781,3.164,3.1739,3.1724,3.1781,3.1682,3.1682,3.1739,3.1682,3.1524,3.1467,3.1467,3.1467,3.1467,3.1467,3.1467,3.1467,3.1467,3.1467,3.1467,3.1467,3.1467,3.1467,3.1467,3.1336,3.1351,3.0703,2.9704,2.9254,2.9254,2.9254,2.9303,2.9704,2.9929,2.9942,2.958,2.9404,2.9131,2.8546,2.8355,2.8297,2.8468,2.8769,2.9326,3.022,3.0334,3.0412,2.9551,2.8857,2.7187,2.6133,2.5796,2.4912,2.4489,2.4431,2.4732,2.5134,2.5561,2.5485,2.525,2.5084,2.5146,2.5159,2.5259,2.5611,2.5937,3.5256,3.4922,3.5784,3.658,3.7261,3.7192,3.7307,3.7575,3.7607,3.768,3.7774,3.7806,3.8189,3.8635,3.8262,3.843,3.9295,3.8995,3.8846,3.9426,3.9393,3.8974,3.7978,3.5998,3.4429,3.3591,3.2819,3.2641,3.2971,3.2971,3.3182,3.3287,3.313,3.3235,3.3287,3.313,3.3114,3.3035,3.2641,3.2599,3.2851,3.2583,3.2373,3.236,3.2382,3.2382,3.2477,3.3039,3.3287,3.3077,3.2734,3.261,3.2917,3.3024,3.2826,3.2422,3.2327,3.212,3.164,3.1524,3.1467,3.1467,3.1467,3.1467,3.1467,3.1467,3.1467,3.1467,3.1467,3.1467,3.1467,3.1467,3.1467,3.1467,3.1467,3.1351,3.1029,3.0911,3.0777,3.0837,3.0837,3.1029,3.1131,3.0495,3.016,2.9864,2.925,2.8637,2.8592,2.8667,2.8891,2.916,2.9639,3.0178,3.0365,3.0434,2.998,2.9248,2.7715,2.6762,2.6411,2.6058,2.558,2.5358,2.536,2.5791,2.6378,2.6274,2.6076,2.5946,2.5674,2.5661,2.5686,2.5925,2.5937,3.6409,3.6195,3.6515,3.7313,3.8149,3.7961,3.7997,3.8339,3.8339,3.8339,3.8339,3.8339,3.8788,3.942,3.9102,3.9401,3.985,3.9731,3.9662,3.9986,4.0037,3.9648,3.8702,3.6885,3.5268,3.4494,3.3504,3.3387,3.3547,3.3684,3.3684,3.3987,3.3802,3.3735,3.3937,3.3802,3.3531,3.3499,3.3246,3.323,3.3438,3.3262,3.3083,3.3156,3.3339,3.3443,3.313,3.3735,3.4037,3.3987,3.3735,3.3479,3.3547,3.3582,3.3391,3.3145,3.2695,3.2492,3.2064,3.1697,3.1467,3.1524,3.1524,3.1467,3.1467,3.1467,3.1467,3.1467,3.1467,3.1467,3.1467,3.1467,3.1467,3.1467,3.1467,3.1467,3.1467,3.1467,3.1467,3.1467,3.1409,3.1409,3.1243,3.0717,3.0208,2.9714,2.8667,2.8098,2.8382,2.8487,2.8637,2.8921,2.934,2.9744,3.0028,3.0093,3.0003,2.9268,2.8237,2.7737,2.7456,2.7069,2.6649,2.6534,2.6505,2.6713,2.717,2.7046,2.6697,2.6072,2.5829,2.6005,2.595,2.5774,2.5749,3.7591,3.748,3.7006,3.7595,3.8603,3.8375,3.8485,3.8906,3.8988,3.9008,3.9123,3.9073,3.9295,3.9952,4.002,4.007,4.0087,4.0087,4.007,4.007,4.0087,3.9631,3.8757,3.7569,3.6483,3.578,3.4414,3.3885,3.3987,3.3937,3.435,3.4592,3.4235,3.435,3.4544,3.4252,3.4103,3.412,3.4088,3.4006,3.4037,3.3989,3.3955,3.3871,3.412,3.4186,3.3987,3.4333,3.4736,3.4719,3.4736,3.4447,3.4103,3.3903,3.3802,3.3786,3.3339,3.2986,3.2749,3.2272,3.1936,3.1739,3.1682,3.1582,3.1539,3.1467,3.1467,3.1467,3.1467,3.1467,3.1467,3.1467,3.1467,3.1467,3.1467,3.1467,3.1467,3.1467,3.1467,3.1467,3.1467,3.1467,3.112,3.0567,3.0073,2.949,2.8457,2.794,2.8248,2.8502,2.8786,2.8936,2.9385,2.9819,3.0118,2.9924,2.9804,2.9355,2.8525,2.8267,2.8213,2.8208,2.7897,2.7709,2.7713,2.789,2.786,2.7693,2.7131,2.6253,2.5848,2.5996,2.5826,2.5523,2.5498,3.6567,3.6153,3.7183,3.7831,3.8219,3.9211,3.9379,3.9039,3.8988,3.9326,3.9698,3.9276,3.9326,3.9851,4.007,4.007,4.0054,4.0003,4.002,4.007,4.0054,3.9681,3.8905,3.8065,3.7232,3.6382,3.5197,3.4704,3.5052,3.527,3.5161,3.5316,3.5224,3.527,3.527,3.5316,3.5068,3.5021,3.5068,3.5068,3.5068,3.5068,3.4864,3.4496,3.4624,3.4592,3.464,3.5052,3.5424,3.5424,3.5424,3.5362,3.5161,3.5115,3.4894,3.4496,3.4235,3.3836,3.3495,3.3287,3.2933,3.2586,3.2422,3.2104,3.1796,3.1524,3.1582,3.1467,3.1467,3.1467,3.1467,3.1467,3.1467,3.1467,3.1467,3.1467,3.1467,3.1467,3.1467,3.1467,3.1467,3.1437,3.1106,3.0672,3.0223,2.9789,2.9101,2.8816,2.916,2.9265,2.934,2.943,2.952,2.9939,3.0328,2.9953,2.9669,2.9355,2.8771,2.8338,2.8447,2.9089,2.9104,2.8811,2.8699,2.8768,2.8636,2.8269,2.7799,2.7051,2.6556,2.5961,2.5704,2.538,2.4971,3.7849,3.6935,3.7987,3.8455,3.8584,3.9191,3.9326,3.9022,3.8988,3.8971,3.8853,3.8599,3.8599,3.8988,3.9394,3.9698,3.9918,3.9631,3.9749,3.9969,4.0037,3.9698,3.8937,3.8227,3.7516,3.6662,3.5702,3.5253,3.556,3.5577,3.5639,3.5577,3.5639,3.5639,3.5622,3.5577,3.5639,3.5639,3.5639,3.5639,3.5639,3.5639,3.5362,3.5207,3.5098,3.5098,3.5207,3.5362,3.5577,3.5577,3.5577,3.5639,3.5639,3.5577,3.5453,3.5098,3.4783,3.4479,3.4087,3.3836,3.3391,3.3182,3.3145,3.2986,3.2625,3.2367,3.1894,3.1582,3.1467,3.1467,3.1467,3.1467,3.1467,3.1467,3.1467,3.1467,3.1467,3.1467,3.1467,3.1467,3.1467,3.1422,3.1317,3.0926,3.0432,2.9983,2.9594,2.9729,2.9998,2.9968,2.9894,3.0028,3.0118,3.0387,3.0582,3.0148,2.9714,2.934,2.8816,2.8382,2.8427,2.8951,2.955,2.9724,2.9709,2.9277,2.9011,2.8609,2.8229,2.78,2.6823,2.5988,2.5651,2.5269,2.4849,3.865,3.7516,3.8413,3.8599,3.8413,3.8853,3.8903,3.8768,3.8565,3.8396,3.8142,3.7855,3.7787,3.8041,3.8514,3.9056,3.9597,3.9089,3.9276,3.9495,3.9918,3.9631,3.8582,3.8125,3.7415,3.6417,3.5898,3.5639,3.5577,3.5639,3.5639,3.5639,3.5639,3.5639,3.5639,3.5639,3.5639,3.5639,3.5639,3.5639,3.5639,3.5639,3.5639,3.5639,3.5639,3.5577,3.5532,3.5577,3.5577,3.5639,3.5639,3.5639,3.5639,3.5639,3.5639,3.5532,3.5098,3.4847,3.4688,3.4447,3.4103,3.3836,3.3836,3.3735,3.3391,3.2826,3.2327,3.1853,3.1524,3.1524,3.1467,3.1467,3.1467,3.1467,3.1467,3.1467,3.1467,3.1467,3.1467,3.1467,3.1467,3.1437,3.1362,3.1046,3.0507,3.0627,3.0253,3.0313,3.0537,3.0462,3.0462,3.0642,3.0791,3.0971,3.0896,3.0402,2.9953,2.952,2.8816,2.8188,2.8338,2.8667,2.9238,2.9622,2.9648,2.9254,2.9085,2.8915,2.8467,2.7813,2.6767,2.6049,2.552,2.5123,2.4784,3.6671,3.6028,3.7449,3.7263,3.6518,3.8159,3.8599,3.8024,3.7483,3.7804,3.8497,3.7567,3.7313,3.7736,3.7855,3.8058,3.8328,3.8599,3.8599,3.8616,3.9326,3.887,3.7466,3.7753,3.6992,3.6113,3.5723,3.5639,3.5639,3.5639,3.5639,3.5639,3.5639,3.5639,3.5639,3.5639,3.5639,3.5639,3.5639,3.5639,3.5639,3.5639,3.5639,3.5639,3.5639,3.5639,3.5639,3.5639,3.5639,3.5639,3.5639,3.5639,3.5639,3.5639,3.5639,3.5577,3.5532,3.5487,3.5424,3.5224,3.4958,3.4592,3.4479,3.4186,3.3633,3.3093,3.2641,3.2477,3.191,3.1524,3.1467,3.1467,3.1467,3.1467,3.1467,3.1467,3.1467,3.1467,3.1467,3.1467,3.1467,3.1467,3.1437,3.1046,3.0657,3.0851,3.1001,3.1016,3.1016,3.0926,3.0911,3.1061,3.1076,3.1225,3.1106,3.0627,3.0193,2.9714,2.9026,2.8248,2.8323,2.8532,2.8562,2.8913,2.8981,2.9265,2.9337,2.9086,2.8612,2.7948,2.7046,2.613,2.5309,2.5023,2.4878,3.5926,3.5757,3.7263,3.7297,3.6518,3.7804,3.821,3.7889,3.7584,3.7516,3.7618,3.7127,3.6992,3.7178,3.684,3.7127,3.7702,3.7838,3.7872,3.7889,3.843,3.8125,3.7178,3.7043,3.6586,3.5943,3.5639,3.5639,3.5639,3.5639,3.5639,3.5639,3.5639,3.5639,3.5639,3.5639,3.5639,3.5639,3.5639,3.5639,3.5639,3.5639,3.5639,3.5639,3.5639,3.5639,3.5639,3.5639,3.5639,3.5639,3.5639,3.5639,3.5639,3.5639,3.5639,3.5639,3.5622,3.5577,3.5577,3.5622,3.5424,3.527,3.5052,3.4704,3.3853,3.3339,3.2734,3.2007,3.1682,3.1524,3.1467,3.1467,3.1467,3.1467,3.1467,3.1467,3.1467,3.1467,3.1467,3.1467,3.1467,3.1467,3.1467,3.1315,3.1046,3.115,3.127,3.1285,3.1315,3.1315,3.133,3.1405,3.136,3.1258,3.112,3.0791,3.0402,2.9953,2.9549,2.8861,2.8442,2.8442,2.8397,2.8293,2.8338,2.8727,2.928,2.8904,2.8142,2.7783,2.7414,2.6565,2.5725,2.5415,2.5269,3.5639,3.5757,3.706,3.7178,3.6569,3.7313,3.7618,3.7601,3.733,3.7094,3.6823,3.6586,3.6468,3.64,3.6045,3.6315,3.7229,3.6924,3.6992,3.7313,3.7601,3.7364,3.6789,3.6552,3.6417,3.5639,3.5639,3.5639,3.5639,3.5639,3.5639,3.5639,3.5639,3.5639,3.5639,3.5639,3.5639,3.5639,3.5639,3.5639,3.5639,3.5639,3.5639,3.5639,3.5639,3.5639,3.5639,3.5639,3.5639,3.5639,3.5639,3.5639,3.5639,3.5639,3.5453,3.5419,3.5419,3.5453,3.5419,3.5419,3.5588,3.5639,3.5532,3.5052,3.4137,3.3735,3.3182,3.2064,3.164,3.1524,3.1467,3.1467,3.1467,3.1467,3.1467,3.1467,3.1467,3.1467,3.1467,3.1467,3.1467,3.1467,3.1467,3.1467,3.1422,3.1437,3.1467,3.1467,3.1452,3.1437,3.1452,3.1452,3.145,3.136,3.1225,3.0941,3.0567,3.0178,2.9759,2.943,2.8996,2.8397,2.8068,2.7949,2.7949,2.8023,2.8487,2.8068,2.7694,2.7594,2.7409,2.6934,2.6354,2.6016,2.591,3.5639,3.5673,3.6518,3.6434,3.5791,3.6535,3.6857,3.6806,3.6146,3.6248,3.6552,3.6113,3.5808,3.574,3.574,3.5723,3.5893,3.6485,3.64,3.6552,3.6992,3.684,3.64,3.6248,3.6332,3.574,3.5639,3.5639,3.5639,3.5639,3.5639,3.5639,3.5639,3.5639,3.5639,3.5639,3.5639,3.5639,3.5639,3.5554,3.5554,3.5571,3.5588,3.5554,3.5588,3.5639,3.5639,3.5639,3.5639,3.5639,3.5639,3.5639,3.5639,3.5639,3.5402,3.5182,3.5385,3.5351,3.5165,3.5351,3.5588,3.5639,3.5532,3.5207,3.4284,3.3836,3.3235,3.2422,3.1739,3.1524,3.1467,3.1467,3.1467,3.1467,3.1467,3.1467,3.1467,3.1467,3.1467,3.1467,3.1467,3.1467,3.1467,3.1467,3.1467,3.1467,3.1467,3.1467,3.1392,3.1377,3.1407,3.1422,3.145,3.1405,3.136,3.1091,3.0761,3.0313,2.9864,2.9699,2.9505,2.8861,2.8278,2.8113,2.8188,2.7919,2.7715,2.77,2.767,2.7655,2.7452,2.7299,2.7193,2.6963,2.6985,3.5166,3.5639,3.5943,3.5893,3.5639,3.5943,3.6062,3.6028,3.5757,3.5757,3.6062,3.5757,3.5639,3.5639,3.5639,3.5639,3.5673,3.5893,3.5825,3.5842,3.6096,3.6096,3.5825,3.5859,3.5893,3.5673,3.5639,3.5639,3.5639,3.5639,3.5639,3.5639,3.5639,3.5639,3.5639,3.5622,3.5605,3.5588,3.5537,3.5436,3.5047,3.5402,3.5402,3.4945,3.5487,3.5588,3.5639,3.5639,3.5639,3.5639,3.5639,3.5639,3.5588,3.5605,3.5385,3.5098,3.5419,3.5318,3.5216,3.5419,3.5622,3.5639,3.5532,3.5115,3.4137,3.3684,3.2971,3.2256,3.1754,3.1524,3.1467,3.1467,3.1467,3.1467,3.1467,3.1467,3.1467,3.1467,3.1467,3.1467,3.1467,3.1467,3.1467,3.1467,3.1467,3.1467,3.1467,3.1452,3.1377,3.1228,3.1243,3.1243,3.127,3.118,3.1135,3.1031,3.0941,3.0522,3.0058,2.9968,2.9894,2.9564,2.9041,2.8786,2.8442,2.8248,2.7993,2.7679,2.7619,2.779,2.7889,2.7935,2.7869,2.783,2.7865,3.4813,3.5301,3.552,3.5639,3.5639,3.5639,3.5639,3.5588,3.5368,3.5284,3.5318,3.547,3.5639,3.5639,3.5639,3.5639,3.5639,3.5673,3.5656,3.569,3.5707,3.5639,3.5639,3.5656,3.5707,3.5639,3.5639,3.5639,3.5639,3.5639,3.5639,3.5639,3.5639,3.5639,3.5639,3.5622,3.552,3.5334,3.5233,3.5081,3.4641,3.4928,3.5351,3.4912,3.5419,3.5588,3.5639,3.5639,3.5639,3.5639,3.5639,3.5639,3.5554,3.5436,3.5301,3.5284,3.5284,3.5301,3.5318,3.552,3.5498,3.527,3.5224,3.456,3.3751,3.3271,3.268,3.1781,3.1524,3.1467,3.1467,3.1467,3.1467,3.1467,3.1467,3.1467,3.1467,3.1467,3.1467,3.1467,3.1467,3.1467,3.1467,3.1467,3.1467,3.1467,3.1467,3.1437,3.1377,3.1255,3.1016,3.1031,3.1016,3.0926,3.0806,3.0986,3.115,3.1016,3.0612,3.0387,3.0238,2.9924,2.9609,2.9205,2.8891,2.8637,2.8622,2.8697,2.8368,2.7993,2.8233,2.851,2.8525,2.8456,2.8449,3.4506,3.4624,3.5301,3.5622,3.5554,3.556,3.5639,3.5554,3.4996,3.4709,3.4861,3.5351,3.5639,3.5605,3.5537,3.5419,3.5385,3.5419,3.5436,3.5419,3.5402,3.552,3.5639,3.5639,3.5639,3.5639,3.5639,3.5639,3.5639,3.5639,3.5639,3.5639,3.5639,3.5639,3.5639,3.5605,3.5233,3.4658,3.459,3.4507,3.4286,3.4438,3.4878,3.4996,3.5436,3.5605,3.5639,3.5639,3.5639,3.5639,3.5639,3.5639,3.5605,3.5098,3.4861,3.4793,3.4726,3.4658,3.4607,3.5216,3.5232,3.4894,3.4847,3.4202,3.3093,3.2586,3.2422,3.164,3.1467,3.1467,3.1467,3.1467,3.1467,3.1467,3.1467,3.1467,3.1467,3.1467,3.1467,3.1467,3.1467,3.1467,3.1467,3.1467,3.1467,3.1467,3.1467,3.1407,3.1302,3.1135,3.0836,3.0702,3.0702,3.0717,3.0731,3.1165,3.1287,3.127,3.1106,3.0821,3.0552,3.0268,2.9939,2.9594,2.9475,2.934,2.9624,2.9924,2.9175,2.8502,2.8876,2.9146,2.9131,2.8898,2.8674,3.403,3.4556,3.5301,3.5334,3.4996,3.5436,3.5622,3.5588,3.5368,3.5233,3.5267,3.5554,3.5622,3.552,3.5131,3.4928,3.4861,3.4269,3.4269,3.4912,3.4996,3.525,3.5453,3.5639,3.5639,3.5639,3.5639,3.5639,3.5639,3.5639,3.5639,3.5639,3.5571,3.5639,3.5542,3.5436,3.5027,3.455,3.4286,3.3915,3.332,3.3973,3.4421,3.437,3.5165,3.5605,3.5639,3.5639,3.5639,3.5639,3.5639,3.5639,3.5605,3.5165,3.5165,3.5199,3.5199,3.4962,3.4861,3.5087,3.522,3.4814,3.4431,3.3937,3.2841,3.2641,3.2176,3.1697,3.1524,3.1467,3.1467,3.1467,3.1467,3.1467,3.1467,3.1467,3.1467,3.1467,3.1467,3.1467,3.1467,3.1467,3.1467,3.1467,3.1467,3.1467,3.1467,3.1225,3.1046,3.0851,3.0597,3.0417,3.0357,3.0432,3.0627,3.1091,3.1225,3.1076,3.112,3.1049,3.0836,3.0567,3.0253,2.9879,2.9998,3.0118,3.0043,2.9879,2.9385,2.9071,2.9039,2.8868,2.8562,2.8368,2.818,3.344,3.4167,3.4912,3.5131,3.4928,3.5131,3.5115,3.4996,3.5334,3.5368,3.4945,3.5064,3.5199,3.5064,3.4776,3.4742,3.4776,3.4472,3.4303,3.4878,3.4912,3.525,3.552,3.5605,3.5639,3.5622,3.5622,3.5639,3.5639,3.5639,3.5639,3.5571,3.5368,3.5182,3.5213,3.5301,3.5313,3.4794,3.4298,3.3882,3.3516,3.3709,3.4167,3.4523,3.5081,3.5639,3.5639,3.5639,3.5639,3.5639,3.5639,3.5639,3.5605,3.5402,3.5419,3.5504,3.5571,3.5334,3.5216,3.4578,3.4446,3.3843,3.4105,3.3566,3.2586,3.2176,3.1966,3.164,3.1524,3.1467,3.1467,3.1467,3.1467,3.1467,3.1467,3.1467,3.1467,3.1467,3.1467,3.1467,3.1467,3.1467,3.1467,3.1467,3.1467,3.1467,3.1467,3.118,3.0866,3.0717,3.0627,3.0507,3.0402,3.0522,3.0746,3.1061,3.1091,3.0896,3.1031,3.1183,3.1031,3.0746,3.0462,3.0313,3.0552,3.0567,3.0088,2.9729,2.9376,2.8872,2.8473,2.824,2.7942,2.7936,2.7954,3.2713,3.344,3.4184,3.4895,3.5318,3.4793,3.4167,3.3626,3.4912,3.4692,3.3541,3.4269,3.4539,3.4539,3.4455,3.4759,3.5131,3.5182,3.5216,3.525,3.5013,3.5334,3.5374,3.5402,3.5267,3.5419,3.5436,3.525,3.5487,3.5199,3.5216,3.5318,3.4759,3.4728,3.5011,3.5352,3.5296,3.4533,3.4167,3.3821,3.3606,3.3666,3.4261,3.4793,3.5402,3.5605,3.5639,3.5639,3.5639,3.5639,3.5639,3.5639,3.5419,3.4912,3.5148,3.5385,3.5622,3.5537,3.5161,3.4392,3.3609,3.3145,3.3201,3.26,3.2028,3.1577,3.164,3.1582,3.1467,3.1467,3.1467,3.1467,3.1467,3.1467,3.1467,3.1467,3.1467,3.1467,3.1467,3.1467,3.1467,3.1467,3.1467,3.1467,3.1467,3.1467,3.1467,3.1422,3.118,3.0941,3.0866,3.0896,3.0791,3.0746,3.0896,3.0926,3.0776,3.0522,3.112,3.136,3.1135,3.0941,3.0761,3.0761,3.1165,3.0986,3.0163,2.9749,2.9466,2.8946,2.817,2.7944,2.7768,2.8008,2.8075,3.2449,3.2747,3.3964,3.432,3.41,3.4353,3.4083,3.3558,3.3914,3.3711,3.344,3.3626,3.3964,3.4421,3.3964,3.4269,3.4404,3.4421,3.4455,3.4506,3.4539,3.4895,3.4928,3.4726,3.4556,3.4692,3.4776,3.4607,3.4167,3.4117,3.4489,3.4607,3.4066,3.4244,3.4668,3.5182,3.4416,3.3964,3.3736,3.3785,3.3792,3.3884,3.4423,3.4912,3.5453,3.5571,3.5639,3.5571,3.5554,3.5571,3.5588,3.5588,3.5571,3.5385,3.5504,3.5554,3.5571,3.5357,3.4806,3.4084,3.3317,3.2608,3.2459,3.1674,3.1177,3.1153,3.1422,3.1467,3.1467,3.1467,3.1467,3.1467,3.1467,3.1467,3.1467,3.1467,3.1467,3.1467,3.1467,3.1467,3.1467,3.1467,3.1467,3.1467,3.1467,3.1467,3.1467,3.1467,3.1407,3.121,3.1076,3.1106,3.1016,3.0911,3.0552,3.0477,3.0328,3.0268,3.0956,3.1375,3.1076,3.0926,3.0971,3.0919,3.0924,3.0535,2.9939,2.957,2.9143,2.8554,2.7826,2.7682,2.7648,2.7695,2.7384,3.2205,3.2831,3.3677,3.3947,3.3897,3.3998,3.3643,3.3136,3.3558,3.3592,3.2983,3.2966,3.3355,3.3897,3.366,3.3829,3.4472,3.4624,3.4489,3.388,3.3829,3.4455,3.4506,3.41,3.4066,3.4184,3.415,3.3897,3.3423,3.3406,3.3744,3.3947,3.3322,3.3478,3.3733,3.3595,3.3206,3.3174,3.3351,3.374,3.3984,3.4172,3.4507,3.4962,3.547,3.5554,3.5537,3.5419,3.5199,3.5081,3.5013,3.4912,3.5115,3.5368,3.5588,3.5639,3.5605,3.5436,3.5009,3.4134,3.3336,3.2592,3.193,3.1328,3.1097,3.112,3.1375,3.1467,3.1467,3.1467,3.1467,3.1467,3.1467,3.1467,3.1467,3.1467,3.1467,3.1467,3.1467,3.1467,3.1467,3.1467,3.1467,3.1467,3.1467,3.1467,3.1467,3.1467,3.1467,3.1377,3.13,3.127,3.115,3.1001,3.0627,3.0432,3.0567,3.0717,3.1091,3.133,3.1031,3.0917,3.0951,3.069,3.0366,2.9871,2.9246,2.8972,2.8545,2.7952,2.7478,2.7106,2.6879,2.6775,2.6311,3.2049,3.3219,3.333,3.3913,3.4432,3.3829,3.3076,3.2557,3.3634,3.3491,3.2357,3.2188,3.2611,3.3186,3.3186,3.3609,3.4167,3.4523,3.4201,3.3406,3.3626,3.4066,3.4049,3.366,3.3339,3.3677,3.3728,3.3237,3.3254,3.3051,3.294,3.3279,3.2577,3.2553,3.286,3.2496,3.2279,3.2385,3.3298,3.4162,3.4379,3.4599,3.4827,3.5436,3.5588,3.5554,3.5334,3.4962,3.4472,3.4201,3.4117,3.4066,3.4742,3.5081,3.5385,3.5504,3.5453,3.547,3.502,3.4163,3.3402,3.2622,3.1945,3.1313,3.1065,3.121,3.1407,3.1467,3.1467,3.1467,3.1467,3.1467,3.1467,3.1467,3.1467,3.1467,3.1467,3.1467,3.1467,3.1467,3.1467,3.1467,3.1467,3.1467,3.1467,3.1467,3.1467,3.1467,3.1467,3.1467,3.1422,3.1347,3.1315,3.118,3.1001,3.0911,3.115,3.136,3.145,3.1218,3.0851,3.0852,3.0911,3.0276,2.9533,2.8965,2.8474,2.8174,2.7961,2.7659,2.7114,2.6542,2.6197,2.5975,2.5612,3.1866,3.2262,3.2848,3.4025,3.5266,3.3994,3.3196,3.2827,3.2757,3.2324,3.1562,3.1529,3.1901,3.2577,3.2662,3.3051,3.3626,3.4015,3.3728,3.3203,3.3136,3.3355,3.3322,3.2577,3.2425,3.2544,3.2611,3.2544,3.2476,3.2246,3.2236,3.2853,3.2161,3.1851,3.2505,3.2027,3.1821,3.1856,3.2659,3.3728,3.406,3.4477,3.4827,3.5351,3.5509,3.525,3.4962,3.459,3.41,3.3761,3.415,3.4607,3.5318,3.4962,3.5098,3.5402,3.5115,3.5199,3.5076,3.4286,3.3453,3.2857,3.2179,3.146,3.1192,3.139,3.1524,3.1524,3.1467,3.1467,3.1467,3.1467,3.1467,3.1467,3.1467,3.1467,3.1467,3.1467,3.1467,3.1467,3.1467,3.1467,3.1467,3.1467,3.1467,3.1467,3.1467,3.1467,3.1467,3.1467,3.1467,3.1422,3.1422,3.1375,3.124,3.1195,3.136,3.1345,3.133,3.1042,3.0763,3.0133,2.9648,2.9181,2.8526,2.8179,2.7872,2.7427,2.7243,2.7185,2.6578,2.5855,2.5394,2.5123,2.4926,3.1829,3.2414,3.3365,3.4372,3.499,3.3822,3.3132,3.2852,3.2156,3.1579,3.1224,3.1241,3.1596,3.2246,3.233,3.2391,3.2949,3.3305,3.2865,3.2442,3.2425,3.2628,3.2256,3.1765,3.2002,3.2087,3.185,3.1765,3.1765,3.1619,3.1708,3.2128,3.1516,3.1516,3.2183,3.1734,3.1545,3.1579,3.2097,3.2629,3.3396,3.4015,3.4556,3.5064,3.503,3.4793,3.4438,3.3998,3.3305,3.3034,3.3237,3.344,3.3863,3.3964,3.4404,3.4776,3.4844,3.4827,3.4975,3.4612,3.3795,3.3398,3.2914,3.2415,3.1891,3.2064,3.1796,3.1739,3.1524,3.1467,3.1467,3.1467,3.1467,3.1467,3.1467,3.1467,3.1467,3.1467,3.1467,3.1467,3.1467,3.1467,3.1467,3.1467,3.1467,3.1467,3.1467,3.1467,3.1467,3.1467,3.1467,3.1467,3.1467,3.1437,3.1317,3.1287,3.1347,3.1287,3.127,3.0954,3.0524,2.9254,2.8346,2.8311,2.8116,2.7733,2.7367,2.7139,2.6953,2.6974,2.6136,2.5128,2.4809,2.4661,2.4813,3.2078,3.3315,3.4129,3.4553,3.4447,3.3328,3.276,3.2513,3.1645,3.1157,3.1055,3.1123,3.1613,3.1952,3.2161,3.2178,3.2188,3.2273,3.1867,3.1562,3.1664,3.1681,3.163,3.1495,3.1664,3.1681,3.1512,3.1376,3.1309,3.1207,3.1247,3.1269,3.123,3.1247,3.1252,3.123,3.1252,3.1291,3.1511,3.1676,3.2534,3.3525,3.41,3.4336,3.4438,3.4387,3.3846,3.3203,3.2374,3.2273,3.2408,3.2763,3.3051,3.3423,3.3964,3.437,3.4607,3.4912,3.5279,3.5249,3.4811,3.4495,3.3987,3.3391,3.2841,3.2586,3.2312,3.216,3.1936,3.1838,3.1838,3.1838,3.1838,3.1582,3.1582,3.1524,3.1467,3.1467,3.1467,3.1467,3.1467,3.1467,3.1467,3.1467,3.1467,3.1467,3.1467,3.1467,3.1467,3.1467,3.1467,3.1467,3.1467,3.1437,3.1407,3.1407,3.1407,3.1407,3.1304,3.0925,3.0329,2.9002,2.8233,2.809,2.7867,2.7906,2.7497,2.7189,2.698,2.6903,2.6237,2.5514,2.507,2.5025,2.527,3.2937,3.4552,3.3851,3.3836,3.4103,3.2722,3.1704,3.1216,3.1223,3.0886,3.0569,3.0954,3.1326,3.1393,3.141,3.1393,3.136,3.1309,3.0852,3.0429,3.0565,3.0565,3.0768,3.1157,3.1275,3.1275,3.1241,3.1241,3.119,3.123,3.1351,3.1565,3.1269,3.1329,3.1582,3.1449,3.119,3.119,3.119,3.136,3.1732,3.2628,3.3423,3.3812,3.4167,3.3592,3.2966,3.2476,3.1952,3.1749,3.1918,3.2391,3.2763,3.3085,3.3626,3.415,3.437,3.4912,3.5245,3.522,3.4941,3.4783,3.4202,3.3735,3.3391,3.3391,3.3235,3.3235,3.3061,3.2971,3.2971,3.2971,3.2917,3.2272,3.1951,3.1682,3.1467,3.1467,3.1467,3.1467,3.1467,3.1467,3.1467,3.1467,3.1467,3.1467,3.1467,3.1467,3.1467,3.1467,3.1467,3.1467,3.1467,3.1467,3.1452,3.1437,3.1452,3.1467,3.1336,3.0896,3.0086,2.8748,2.8168,2.8298,2.8542,2.8643,2.8112,2.7498,2.7162,2.7042,2.6652,2.6143,2.5618,2.5398,2.5702]},{"header":{"parameterUnit":"m.s-1","parameterCategory":1,"la1":31.0,"la2":29.5877,"lo1":-88.7671,"lo2":-86.6584,"dy":0.0162,"dx":0.0185,"nx":115,"ny":88,"refTime":"2023-05-29T00:00:00:Z","depth":0,"parameterNumber":3,"parameterNumberName":"V-component_of_WINDS"},"data":[0.0,0.0,0.0,0.0,0.0,0.0,0.0,0.0,0.0,0.0,0.0,0.0,0.0,0.0,0.0,0.0,0.0,0.0,0.0,0.0,0.0,0.0,0.0,0.0,0.0,0.0,0.0,0.0,0.0,0.0,0.0,0.0,0.0,0.0,0.0,0.0,0.0,0.0,0.0,0.0,0.0,0.0,0.0,0.0,0.0,0.0,0.0,0.0,0.0,0.0,0.0,0.0,0.0,0.0,0.0,0.0,0.0,0.0,0.0,0.0,0.0,0.0,0.0,0.0,0.0,0.0,0.0,0.0,0.0,0.0,0.0,0.0,0.0,0.0,0.0,0.0,0.0,0.0,0.0,0.0,0.0,0.0,0.0,0.0,0.0,0.0,0.0,0.0,0.0,0.0,0.0,0.0,0.0,0.0,0.0,0.0,0.0,0.0,0.0,0.0,0.0,0.0,0.0,0.0,0.0,0.0,0.0,0.0,0.0,0.0,0.0,0.0,0.0,0.0,0.0,0.0,0.0,0.0,0.0,0.0,0.0,0.0,0.0,0.0,0.0,0.0,0.0,0.0,0.0,0.0,0.0,0.0,0.0,0.0,0.0,0.0,0.0,0.0,0.0,0.0,0.0,0.0,0.0,0.0,0.0,0.0,0.0,0.0,0.0,0.0,0.0,0.0,0.0,0.0,0.0,0.0,0.0,0.0,0.0,0.0,0.0,0.0,0.0,0.0,0.0,0.0,0.0,0.0,0.0,0.0,0.0,0.0,0.0,0.0,0.0,0.0,0.0,0.0,0.0,0.0,0.0,0.0,0.0,0.0,0.0,0.0,0.0,0.0,0.0,0.0,0.0,0.0,0.0,0.0,0.0,0.0,0.0,0.0,0.0,0.0,0.0,0.0,0.0,0.0,0.0,0.0,0.0,0.0,0.0,0.0,0.0,0.0,0.0,0.0,0.0,0.0,0.0,0.0,0.0,0.0,0.0,0.0,0.0,0.0,0.0,0.0,0.0,0.0,0.0,0.0,0.0,0.0,0.0,0.0,0.0,0.0,0.0,0.0,0.0,0.0,0.0,0.0,0.0,0.0,0.0,0.0,0.0,0.0,0.0,0.0,0.0,0.0,0.0,0.0,0.0,0.0,0.0,0.0,0.0,0.0,0.0,0.0,0.0,0.0,0.0,0.0,0.0,0.0,0.0,0.0,0.0,0.0,0.0,0.0,0.0,0.0,0.0,0.0,0.0,0.0,0.0,0.0,0.0,0.0,0.0,0.0,0.0,0.0,0.0,0.0,0.0,0.0,0.0,0.0,0.0,0.0,0.0,0.0,0.0,0.0,0.0,0.0,0.0,0.0,0.0,0.0,0.0,0.0,0.0,0.0,0.0,0.0,0.0,0.0,0.0,0.0,0.0,0.0,0.0,0.0,0.0,0.0,0.0,0.0,0.0,0.0,0.0,0.0,0.0,0.0,0.0,0.0,0.0,0.0,0.0,0.0,0.0,0.0,0.0,0.0,0.0,0.0,0.0,0.0,0.0,0.0,0.0,0.0,0.0,0.0,0.0,0.0,0.0,0.0,0.0,0.0,0.0,0.0,0.0,0.0,0.0,0.0,0.0,0.0,0.0,0.0,0.0,0.0,0.0,0.0,0.0,0.0,0.0,0.0,0.0,0.0,0.0,0.0,0.0,0.0,0.0,0.0,0.0,0.0,0.0,0.0,0.0,0.0,0.0,0.0,0.0,0.0,0.0,0.0,0.0,0.0,0.0,0.0,0.0,0.0,0.0,0.0,0.0,0.0,0.0,0.0,0.0,0.0,0.0,0.0,0.0,0.0,0.0,0.0,0.0,0.0,0.0,0.0,0.0,0.0,0.0,0.0,0.0,0.0,0.0,0.0,0.0,0.0,0.0,0.0,0.0,0.0,0.0,0.0,0.0,0.0,0.0,0.0,0.0,0.0,0.0,0.0,0.0,0.0,0.0,0.0,0.0,0.0,0.0,0.0,0.0,0.0,0.0,0.0,0.0,0.0,0.0,0.0,0.0,0.0,0.0,0.0,0.0,0.0,0.0,0.0,0.0,0.0,0.0,0.0,0.0,0.0,0.0,0.0,0.0,0.0,0.0,0.0,0.0,0.0,0.0,0.0,0.0,0.0,0.0,0.0,0.0,0.0,0.0,0.0,0.0,0.0,0.0,0.0,0.0,0.0,0.0,0.0,0.0,0.0,0.0,0.0,0.0,0.0,0.0,0.0,0.0,0.0,0.0,0.0,0.0,0.0,0.0,0.0,0.0,0.0,0.0,0.0,0.0,0.0,0.0,0.0,0.0,0.0,0.0,0.0,0.0,0.0,0.0,0.0,0.0,0.0,0.0,0.0,0.0,0.0,0.0,0.0,0.0,0.0,0.0,0.0,0.0,0.0,0.0,0.0,0.0,0.0,0.0,0.0,0.0,0.0,0.0,0.0,0.0,0.0,0.0,0.0,0.0,0.0,0.0,0.0,0.0,0.0,0.0,0.0,0.0,0.0,0.0,0.0,0.0,0.0,0.0,0.0,0.0,0.0,0.0,0.0,0.0,0.0,0.0,0.0,0.0,0.0,0.0,0.0,0.0,0.0,0.0,0.0,0.0,0.0,0.0,0.0,0.0,0.0,0.0,0.0,0.0,0.0,0.0,0.0,0.0,0.0,0.0,0.0,0.0,0.0,0.0,0.0,0.0,0.0,0.0,0.0,0.0,0.0,0.0,0.0,0.0,0.0,0.0,0.0,0.0,0.0,0.0,0.0,0.0,0.0,0.0,0.0,0.0,0.0,0.0,0.0,0.0,0.0,0.0,0.0,0.0,0.0,0.0,0.0,0.0,0.0,0.0,0.0,0.0,0.0,0.0,0.0,0.0,0.0,0.0,0.0,0.0,0.0,0.0,0.0,0.0,0.0,0.0,0.0,0.0,0.0,0.0,0.0,0.0,0.0,0.0,0.0,0.0,0.0,0.0,0.0,0.0,0.0,0.0,0.0,0.0,0.0,0.0,0.0,0.0,0.0,0.0,0.0,0.0,0.0,0.0,0.0,0.0,0.0,0.0,0.0,0.0,0.0,0.0,0.0,0.0,0.0,0.0,0.0,0.0,0.0,0.0,0.0,0.0,0.0,0.0,0.0,0.0,0.0,0.0,0.0,0.0,0.0,0.0,0.0,0.0,0.0,0.0,0.0,0.0,0.0,0.0,0.0,0.0,0.0,0.0,0.0,0.0,0.0,0.0,0.0,0.0,0.0,0.0,0.0,0.0,0.0,0.0,0.0,0.0,0.0,0.0,0.0,0.0,0.0,0.0,0.0,0.0,0.0,0.0,0.0,0.0,0.0,0.0,0.0,0.0,0.0,0.0,0.0,0.0,0.0,0.0,0.0,0.0,0.0,0.0,0.0,0.0,0.0,0.0,0.0,0.0,0.0,0.0,0.0,0.0,0.0,0.0,0.0,0.0,0.0,0.0,0.0,0.0,0.0,0.0,0.0,0.0,0.0,0.0,0.0,0.0,0.0,0.0,0.0,0.0,0.0,0.0,0.0,0.0,0.0,0.0,0.0,0.0,0.0,0.0,0.0,0.0,0.0,0.0,0.0,0.0,0.0,0.0,0.0,0.0,0.0,0.0,0.0,0.0,0.0,0.0,0.0,0.0,0.0,0.0,0.0,0.0,0.0,0.0,0.0,0.0,0.0,0.0,0.0,0.0,0.0,0.0,0.0,0.0,0.0,0.0,0.0,0.0,0.0,0.0,0.0,0.0,0.0,0.0,0.0,0.0,0.0,0.0,0.0,0.0,0.0,0.0,0.0,0.0,0.0,0.0,0.0,0.0,0.0,0.0,0.0,0.0,0.0,0.0,0.0,0.0,0.0,0.0,0.0,0.0,0.0,0.0,0.0,0.0,0.0,0.0,0.0,0.0,0.0,0.0,0.0,0.0,0.0,0.0,0.0,0.0,0.0,0.0,0.0,0.0,0.0,0.0,0.0,0.0,0.0,0.0,0.0,0.0,0.0,0.0,0.0,0.0,0.0,0.0,0.0,0.0,0.0,0.0,0.0,0.0,0.0,0.0,0.0,0.0,0.0,0.0,0.0,0.0,0.0,0.0,0.0,0.0,0.0,0.0,0.0,0.0,0.0,0.0,0.0,0.0,0.0,0.0,0.0,0.0,0.0,0.0,0.0,0.0,0.0,0.0,0.0,0.0,0.0,0.0,0.0,0.0,0.0,0.0,0.0,0.0,0.0,0.0,0.0,0.0,0.0,0.0,0.0,-0.9569,0.0,0.0,0.0,0.0,0.0,0.0,0.0,0.0,0.0,0.0,0.0,0.0,0.0,0.0,0.0,0.0,0.0,0.0,0.0,0.0,0.0,0.0,0.0,0.0,0.0,0.0,0.0,0.0,0.0,0.0,0.0,0.0,0.0,0.0,0.0,0.0,0.0,0.0,0.0,0.0,0.0,0.0,0.0,0.0,0.0,0.0,0.0,0.0,0.0,0.0,0.0,0.0,0.0,0.0,0.0,0.0,0.0,0.0,0.0,0.0,0.0,0.0,0.0,0.0,0.0,0.0,0.0,0.0,0.0,0.0,0.0,0.0,0.0,0.0,0.0,0.0,0.0,0.0,0.0,0.0,0.0,0.0,0.0,0.0,0.0,0.0,0.0,0.0,0.0,0.0,0.0,0.0,0.0,0.0,0.0,0.0,0.0,0.0,0.0,0.0,0.0,0.0,0.0,0.0,0.0,0.0,0.0,0.0,0.0,0.0,-0.8857,-0.8804,-0.8962,-0.9211,-0.971,0.0,0.0,0.0,0.0,0.0,0.0,0.0,0.0,0.0,0.0,0.0,0.0,0.0,0.0,0.0,0.0,0.0,0.0,0.0,0.0,0.0,0.0,0.0,0.0,0.0,0.0,0.0,0.0,0.0,0.0,0.0,0.0,0.0,0.0,0.0,0.0,0.0,0.0,0.0,0.0,0.0,0.0,0.0,0.0,0.0,0.0,0.0,0.0,0.0,0.0,0.0,0.0,0.0,0.0,0.0,0.0,0.0,0.0,0.0,0.0,0.0,0.0,0.0,0.0,0.0,0.0,0.0,0.0,0.0,0.0,0.0,0.0,0.0,0.0,0.0,0.0,0.0,0.0,0.0,0.0,0.0,0.0,0.0,0.0,0.0,0.0,0.0,0.0,0.0,0.0,0.0,0.0,0.0,0.0,0.0,0.0,0.0,0.0,0.0,0.0,0.0,0.0,0.0,0.0,0.0,0.0,0.0,0.0,0.0,0.0,0.0,0.0,-0.9061,-0.9465,-1.0123,0.0,0.0,0.0,0.0,0.0,0.0,0.0,0.0,0.0,0.0,0.0,0.0,0.0,0.0,0.0,0.0,0.0,0.0,0.0,0.0,0.0,0.0,0.0,0.0,0.0,0.0,0.0,0.0,0.0,0.0,0.0,0.0,0.0,0.0,0.0,0.0,0.0,0.0,0.0,0.0,0.0,0.0,0.0,0.0,0.0,0.0,0.0,0.0,0.0,0.0,0.0,0.0,0.0,0.0,0.0,0.0,0.0,0.0,0.0,0.0,0.0,0.0,0.0,0.0,0.0,0.0,0.0,0.0,0.0,0.0,0.0,0.0,0.0,0.0,0.0,0.0,0.0,0.0,0.0,0.0,0.0,0.0,0.0,0.0,0.0,0.0,0.0,0.0,0.0,0.0,0.0,0.0,0.0,0.0,0.0,0.0,0.0,0.0,0.0,0.0,0.0,0.0,0.0,0.0,0.0,0.0,0.0,0.0,0.0,0.0,-0.9316,-0.9166,-0.9413,0.0,-1.1116,0.0,0.0,0.0,0.0,0.0,0.0,0.0,0.0,0.0,0.0,0.0,0.0,0.0,0.0,0.0,0.0,0.0,0.0,0.0,0.0,0.0,0.0,0.0,0.0,0.0,0.0,0.0,0.0,0.0,0.0,0.0,0.0,0.0,0.0,0.0,0.0,0.0,0.0,0.0,0.0,0.0,0.0,0.0,0.0,0.0,0.0,0.0,0.0,0.0,0.0,0.0,0.0,0.0,0.0,0.0,0.0,0.0,0.0,0.0,0.0,0.0,0.0,0.0,0.0,0.0,0.0,0.0,0.0,0.0,0.0,0.0,0.0,0.0,0.0,0.0,0.0,0.0,0.0,0.0,0.0,0.0,0.0,0.0,0.0,0.0,0.0,0.0,0.0,0.0,0.0,0.0,0.0,0.0,0.0,0.0,0.0,0.0,0.0,0.0,0.0,0.0,0.0,0.0,0.0,0.0,0.0,0.0,0.0,0.0,0.0,-0.9829,-0.9562,-0.9984,-1.0651,0.0,0.0,0.0,0.0,0.0,0.0,0.0,0.0,0.0,0.0,0.0,0.0,0.0,0.0,0.0,0.0,0.0,0.0,0.0,0.0,0.0,0.0,0.0,0.0,0.0,0.0,0.0,0.0,0.0,0.0,0.0,0.0,0.0,0.0,0.0,0.0,0.0,0.0,0.0,0.0,0.0,0.0,0.0,0.0,0.0,0.0,0.0,0.0,0.0,0.0,0.0,0.0,0.0,0.0,0.0,0.0,0.0,0.0,0.0,0.0,0.0,0.0,0.0,0.0,0.0,0.0,0.0,0.0,0.0,0.0,0.0,0.0,0.0,0.0,0.0,0.0,0.0,0.0,0.0,0.0,0.0,0.0,0.0,0.0,0.0,0.0,0.0,0.0,0.0,0.0,0.0,0.0,0.0,0.0,0.0,0.0,0.0,0.0,0.0,0.0,0.0,0.0,0.0,0.0,0.0,0.0,0.0,0.0,0.0,0.0,-1.0761,-1.0498,-1.0182,-1.0608,-1.1167,-1.1877,0.0,0.0,0.0,0.0,0.0,0.0,0.0,0.0,0.0,0.0,0.0,0.0,0.0,0.0,0.0,0.0,0.0,0.0,0.0,0.0,0.0,0.0,0.0,0.0,0.0,0.0,0.0,0.0,0.0,0.0,0.0,0.0,0.0,0.0,0.0,0.0,0.0,0.0,0.0,0.0,0.0,0.0,0.0,0.0,0.0,0.0,0.0,0.0,0.0,0.0,0.0,0.0,0.0,0.0,0.0,0.0,0.0,0.0,0.0,0.0,0.0,0.0,0.0,0.0,0.0,0.0,0.0,0.0,0.0,0.0,0.0,0.0,0.0,0.0,0.0,0.0,0.0,0.0,0.0,0.0,0.0,0.0,0.0,0.0,0.0,0.0,0.0,0.0,0.0,0.0,0.0,0.0,0.0,0.0,0.0,0.0,0.0,0.0,0.0,0.0,0.0,0.0,0.0,0.0,0.0,0.0,0.0,0.0,-1.1469,-1.1318,-1.1175,-1.1065,-1.1226,-1.1569,0.0,0.0,0.0,0.0,0.0,0.0,0.0,0.0,0.0,0.0,0.0,0.0,0.0,0.0,0.0,0.0,0.0,0.0,0.0,0.0,0.0,0.0,0.0,0.0,0.0,0.0,0.0,0.0,0.0,0.0,0.0,0.0,0.0,0.0,0.0,0.0,0.0,0.0,0.0,0.0,0.0,0.0,0.0,0.0,0.0,0.0,0.0,0.0,0.0,0.0,0.0,0.0,0.0,0.0,0.0,0.0,0.0,0.0,0.0,0.0,0.0,0.0,0.0,0.0,0.0,0.0,0.0,0.0,0.0,0.0,0.0,0.0,0.0,0.0,0.0,0.0,0.0,0.0,0.0,0.0,0.0,0.0,0.0,0.0,0.0,0.0,0.0,0.0,0.0,0.0,0.0,0.0,0.0,0.0,0.0,0.0,0.0,0.0,0.0,0.0,0.0,0.0,0.0,0.0,0.0,0.0,0.0,0.0,0.0,-1.2026,-1.1769,-1.1728,-1.1719,-1.1769,-1.2116,0.0,0.0,0.0,0.0,0.0,0.0,0.0,0.0,0.0,0.0,0.0,0.0,0.0,0.0,0.0,0.0,0.0,0.0,0.0,0.0,0.0,0.0,0.0,0.0,0.0,0.0,0.0,0.0,0.0,0.0,0.0,0.0,0.0,0.0,0.0,0.0,0.0,0.0,0.0,0.0,0.0,0.0,0.0,0.0,0.0,0.0,0.0,0.0,0.0,0.0,0.0,0.0,0.0,0.0,0.0,0.0,0.0,0.0,0.0,0.0,0.0,0.0,0.0,0.0,0.0,0.0,0.0,0.0,0.0,0.0,0.0,0.0,0.0,0.0,0.0,0.0,0.0,0.0,0.0,0.0,0.0,0.0,0.0,0.0,0.0,0.0,0.0,0.0,0.0,0.0,0.0,0.0,0.0,0.0,0.0,0.0,0.0,0.0,0.0,0.0,0.0,0.0,0.0,0.0,0.0,0.0,0.0,0.0,0.0,-1.2431,0.0,-1.2126,-1.2224,-1.2274,-1.251,0.0,0.0,0.0,0.0,0.0,0.0,0.0,0.0,0.0,0.0,0.0,0.0,0.0,0.0,0.0,0.0,0.0,0.0,0.0,0.0,0.0,0.0,0.0,0.0,0.0,0.0,0.0,0.0,0.0,0.0,0.0,0.0,0.0,0.0,0.0,0.0,0.0,0.0,0.0,0.0,0.0,0.0,0.0,0.0,0.0,0.0,0.0,0.0,0.0,0.0,0.0,0.0,0.0,0.0,0.0,0.0,0.0,0.0,0.0,0.0,0.0,0.0,0.0,0.0,0.0,0.0,0.0,0.0,0.0,0.0,0.0,0.0,0.0,0.0,0.0,0.0,0.0,0.0,0.0,0.0,0.0,0.0,0.0,0.0,0.0,0.0,0.0,0.0,0.0,0.0,0.0,0.0,0.0,0.0,0.0,0.0,0.0,0.0,0.0,0.0,0.0,0.0,0.0,0.0,0.0,0.0,0.0,0.0,-1.2832,-1.2686,-1.2578,-1.248,-1.2529,-1.2627,-1.2861,0.0,0.0,0.0,0.0,0.0,0.0,0.0,0.0,0.0,0.0,0.0,0.0,0.0,0.0,0.0,0.0,0.0,0.0,0.0,0.0,0.0,0.0,0.0,0.0,0.0,0.0,0.0,0.0,0.0,0.0,0.0,0.0,0.0,0.0,0.0,0.0,0.0,0.0,0.0,0.0,0.0,0.0,0.0,0.0,0.0,0.0,0.0,0.0,0.0,0.0,0.0,0.0,0.0,0.0,0.0,0.0,0.0,0.0,0.0,0.0,0.0,0.0,0.0,0.0,0.0,0.0,0.0,0.0,0.0,0.0,0.0,0.0,0.0,0.0,0.0,0.0,0.0,0.0,0.0,0.0,0.0,0.0,0.0,0.0,0.0,0.0,0.0,0.0,0.0,0.0,0.0,0.0,0.0,0.0,0.0,0.0,0.0,0.0,0.0,0.0,0.0,0.0,0.0,0.0,0.0,0.0,0.0,0.0,0.0,-1.2822,-1.2832,-1.2783,-1.2783,-1.2881,-1.3162,0.0,0.0,0.0,0.0,0.0,0.0,0.0,0.0,0.0,0.0,0.0,0.0,0.0,0.0,0.0,0.0,0.0,0.0,0.0,0.0,0.0,0.0,0.0,0.0,0.0,0.0,0.0,0.0,0.0,0.0,0.0,0.0,0.0,0.0,0.0,0.0,0.0,0.0,0.0,0.0,0.0,0.0,0.0,0.0,0.0,0.0,0.0,0.0,0.0,0.0,0.0,0.0,0.0,0.0,0.0,0.0,0.0,0.0,0.0,0.0,0.0,0.0,0.0,0.0,0.0,0.0,0.0,0.0,0.0,0.0,0.0,0.0,0.0,0.0,0.0,0.0,0.0,0.0,0.0,0.0,0.0,0.0,0.0,0.0,0.0,0.0,0.0,0.0,0.0,0.0,0.0,0.0,0.0,0.0,0.0,0.0,0.0,0.0,0.0,0.0,0.0,0.0,0.0,0.0,0.0,0.0,0.0,0.0,0.0,-1.2891,-1.2891,-1.2929,-1.2978,-1.3123,-1.344,-1.3962,0.0,0.0,0.0,0.0,0.0,0.0,0.0,0.0,0.0,0.0,0.0,0.0,0.0,0.0,0.0,0.0,0.0,0.0,0.0,0.0,0.0,0.0,0.0,0.0,0.0,0.0,0.0,0.0,0.0,0.0,0.0,0.0,0.0,0.0,0.0,0.0,0.0,0.0,0.0,0.0,0.0,0.0,0.0,0.0,0.0,0.0,0.0,0.0,0.0,0.0,0.0,0.0,0.0,0.0,0.0,0.0,0.0,0.0,0.0,0.0,0.0,0.0,0.0,0.0,0.0,0.0,0.0,0.0,0.0,0.0,0.0,0.0,0.0,0.0,0.0,0.0,0.0,0.0,0.0,0.0,0.0,0.0,0.0,0.0,0.0,0.0,0.0,0.0,0.0,0.0,0.0,0.0,0.0,0.0,0.0,0.0,0.0,0.0,0.0,0.0,0.0,0.0,0.0,0.0,0.0,0.0,0.0,0.0,-1.2891,-1.2891,-1.2988,-1.3085,-1.3286,-1.3647,0.0,0.0,0.0,0.0,0.0,0.0,0.0,0.0,0.0,0.0,0.0,0.0,0.0,0.0,0.0,0.0,0.0,0.0,0.0,0.0,0.0,0.0,0.0,0.0,0.0,0.0,0.0,0.0,0.0,0.0,0.0,0.0,0.0,0.0,0.0,0.0,0.0,0.0,0.0,0.0,0.0,0.0,0.0,0.0,0.0,0.0,0.0,0.0,0.0,0.0,0.0,0.0,0.0,0.0,0.0,0.0,0.0,0.0,0.0,0.0,0.0,0.0,0.0,0.0,0.0,0.0,0.0,0.0,0.0,0.0,0.0,0.0,0.0,0.0,0.0,0.0,0.0,0.0,0.0,0.0,0.0,0.0,0.0,0.0,0.0,0.0,0.0,0.0,0.0,0.0,0.0,0.0,0.0,0.0,0.0,0.0,0.0,0.0,0.0,0.0,0.0,0.0,0.0,0.0,0.0,0.0,0.0,0.0,0.0,-1.2891,-1.2891,-1.2929,-1.2978,-1.3344,-1.3752,0.0,0.0,0.0,0.0,0.0,0.0,0.0,0.0,0.0,0.0,0.0,0.0,0.0,0.0,0.0,0.0,0.0,0.0,0.0,0.0,0.0,0.0,0.0,0.0,0.0,0.0,0.0,0.0,0.0,0.0,0.0,0.0,0.0,0.0,0.0,0.0,0.0,0.0,0.0,0.0,0.0,0.0,0.0,0.0,0.0,0.0,0.0,0.0,0.0,0.0,0.0,0.0,0.0,0.0,0.0,0.0,0.0,0.0,0.0,0.0,0.0,0.0,0.0,0.0,0.0,0.0,0.0,0.0,0.0,0.0,0.0,0.0,0.0,0.0,0.0,0.0,0.0,0.0,0.0,0.0,0.0,0.0,0.0,0.0,0.0,0.0,0.0,0.0,0.0,0.0,0.0,0.0,0.0,0.0,0.0,0.0,0.0,0.0,0.0,0.0,0.0,0.0,0.0,0.0,0.0,0.0,0.0,0.0,-1.2936,-1.2576,-1.2945,-1.2986,-1.2686,-1.3329,-1.3941,0.0,0.0,0.0,0.0,0.0,0.0,0.0,0.0,0.0,0.0,0.0,0.0,0.0,0.0,0.0,0.0,0.0,0.0,0.0,0.0,0.0,0.0,0.0,0.0,0.0,0.0,0.0,0.0,0.0,0.0,0.0,0.0,0.0,0.0,0.0,0.0,0.0,0.0,0.0,0.0,0.0,0.0,0.0,0.0,0.0,0.0,0.0,0.0,0.0,0.0,0.0,0.0,0.0,0.0,0.0,0.0,0.0,0.0,0.0,0.0,0.0,0.0,0.0,0.0,0.0,0.0,0.0,0.0,0.0,0.0,0.0,0.0,0.0,0.0,0.0,0.0,0.0,0.0,0.0,0.0,0.0,0.0,0.0,0.0,0.0,0.0,0.0,0.0,0.0,0.0,0.0,0.0,0.0,0.0,0.0,0.0,0.0,0.0,0.0,0.0,0.0,0.0,0.0,0.0,0.0,0.0,0.0,0.0,-1.2884,-1.214,-1.2824,-1.2927,-1.2332,-1.3253,-1.4114,0.0,0.0,0.0,0.0,0.0,0.0,0.0,0.0,0.0,0.0,0.0,0.0,0.0,0.0,0.0,0.0,0.0,0.0,0.0,0.0,0.0,0.0,0.0,0.0,0.0,0.0,0.0,0.0,0.0,0.0,0.0,0.0,0.0,0.0,0.0,0.0,0.0,0.0,0.0,0.0,0.0,0.0,0.0,0.0,0.0,0.0,0.0,0.0,0.0,0.0,0.0,0.0,0.0,0.0,0.0,0.0,0.0,0.0,0.0,0.0,0.0,0.0,0.0,0.0,0.0,0.0,0.0,0.0,0.0,0.0,0.0,0.0,0.0,0.0,0.0,0.0,0.0,0.0,0.0,0.0,0.0,0.0,0.0,0.0,0.0,0.0,0.0,0.0,0.0,0.0,0.0,0.0,0.0,0.0,0.0,0.0,0.0,0.0,0.0,0.0,0.0,0.0,0.0,0.0,0.0,0.0,0.0,0.0,-1.2088,-1.2228,-1.1661,-1.1653,-1.228,-1.339,-1.429,0.0,0.0,0.0,0.0,0.0,0.0,0.0,0.0,0.0,0.0,0.0,0.0,0.0,0.0,0.0,0.0,0.0,0.0,0.0,0.0,0.0,0.0,0.0,0.0,0.0,0.0,0.0,0.0,0.0,0.0,0.0,0.0,0.0,0.0,0.0,0.0,0.0,0.0,0.0,0.0,0.0,0.0,0.0,0.0,0.0,0.0,0.0,0.0,-1.9582,0.0,0.0,0.0,0.0,0.0,0.0,0.0,0.0,0.0,0.0,0.0,0.0,0.0,0.0,0.0,0.0,0.0,0.0,0.0,0.0,0.0,0.0,0.0,0.0,0.0,0.0,0.0,0.0,0.0,0.0,0.0,0.0,0.0,0.0,0.0,0.0,0.0,0.0,0.0,0.0,0.0,0.0,0.0,0.0,0.0,0.0,0.0,0.0,0.0,0.0,0.0,0.0,0.0,0.0,0.0,0.0,0.0,0.0,0.0,-1.1714,-1.1268,-1.1185,-1.1325,-1.1834,-1.2721,-1.3741,0.0,0.0,0.0,0.0,0.0,0.0,0.0,0.0,0.0,0.0,0.0,0.0,0.0,0.0,0.0,0.0,0.0,0.0,0.0,0.0,0.0,0.0,0.0,0.0,0.0,0.0,0.0,0.0,0.0,0.0,0.0,0.0,0.0,0.0,0.0,0.0,0.0,0.0,0.0,0.0,0.0,0.0,0.0,0.0,0.0,0.0,0.0,0.0,0.0,0.0,0.0,0.0,0.0,0.0,0.0,0.0,0.0,0.0,0.0,0.0,0.0,0.0,0.0,0.0,0.0,0.0,0.0,0.0,0.0,0.0,0.0,0.0,0.0,0.0,0.0,0.0,0.0,0.0,0.0,0.0,0.0,0.0,0.0,0.0,0.0,0.0,0.0,0.0,0.0,0.0,0.0,0.0,0.0,0.0,0.0,0.0,0.0,0.0,0.0,0.0,0.0,0.0,0.0,0.0,0.0,0.0,0.0,-1.1877,-1.1378,-1.0206,-1.0784,-1.1096,-1.1145,-1.182,-1.2831,-1.4272,0.0,0.0,0.0,0.0,0.0,0.0,0.0,0.0,0.0,0.0,0.0,0.0,0.0,0.0,0.0,0.0,0.0,0.0,0.0,0.0,0.0,0.0,0.0,0.0,0.0,0.0,0.0,0.0,0.0,0.0,0.0,0.0,0.0,0.0,0.0,0.0,0.0,0.0,-2.141,-2.0841,0.0,0.0,0.0,0.0,0.0,0.0,0.0,0.0,-1.9362,0.0,0.0,0.0,0.0,0.0,0.0,0.0,0.0,0.0,0.0,0.0,0.0,0.0,0.0,0.0,0.0,0.0,0.0,0.0,0.0,0.0,0.0,0.0,0.0,0.0,0.0,0.0,0.0,0.0,0.0,0.0,0.0,0.0,0.0,0.0,0.0,0.0,0.0,0.0,0.0,0.0,0.0,0.0,0.0,0.0,0.0,0.0,0.0,0.0,0.0,0.0,0.0,0.0,0.0,0.0,0.0,-1.1765,-1.0981,-1.0444,-1.0245,-0.9574,-0.9613,-1.0447,-1.0951,-1.1895,-1.3389,0.0,0.0,0.0,0.0,0.0,0.0,0.0,0.0,0.0,0.0,0.0,0.0,0.0,0.0,0.0,0.0,0.0,0.0,0.0,0.0,0.0,0.0,0.0,0.0,0.0,0.0,0.0,0.0,0.0,0.0,0.0,0.0,0.0,0.0,0.0,0.0,0.0,0.0,0.0,-2.0523,-2.0,0.0,0.0,0.0,0.0,0.0,0.0,0.0,0.0,-2.0841,0.0,0.0,0.0,0.0,0.0,0.0,0.0,0.0,0.0,0.0,0.0,0.0,0.0,0.0,0.0,0.0,0.0,0.0,0.0,0.0,0.0,0.0,0.0,0.0,0.0,0.0,0.0,0.0,0.0,0.0,0.0,0.0,0.0,0.0,0.0,0.0,0.0,0.0,0.0,0.0,0.0,0.0,0.0,0.0,0.0,0.0,0.0,0.0,0.0,0.0,0.0,0.0,0.0,0.0,0.0,-1.1316,-1.0712,-1.0096,-0.9528,-0.903,-0.9182,-0.9992,-1.0605,-1.1704,0.0,0.0,0.0,0.0,0.0,0.0,0.0,0.0,0.0,0.0,0.0,0.0,0.0,0.0,0.0,0.0,0.0,0.0,0.0,0.0,0.0,0.0,0.0,0.0,0.0,0.0,0.0,0.0,0.0,0.0,0.0,0.0,0.0,0.0,0.0,0.0,0.0,0.0,0.0,0.0,-2.0444,-1.9777,-1.9206,0.0,0.0,0.0,0.0,0.0,0.0,-2.0735,-2.0969,0.0,0.0,0.0,0.0,0.0,0.0,0.0,0.0,0.0,0.0,0.0,0.0,0.0,0.0,0.0,0.0,0.0,0.0,0.0,0.0,0.0,0.0,0.0,0.0,0.0,0.0,0.0,0.0,0.0,0.0,0.0,0.0,0.0,0.0,0.0,0.0,0.0,0.0,0.0,0.0,0.0,0.0,0.0,0.0,0.0,0.0,0.0,0.0,0.0,0.0,0.0,0.0,0.0,0.0,0.0,-1.0864,-1.0618,-0.9961,-0.8857,-0.8804,-0.9061,-0.9614,-1.0415,-1.1598,0.0,0.0,0.0,0.0,0.0,0.0,0.0,0.0,0.0,0.0,0.0,0.0,0.0,0.0,0.0,0.0,0.0,0.0,0.0,0.0,0.0,0.0,0.0,0.0,0.0,0.0,0.0,0.0,0.0,0.0,0.0,0.0,0.0,0.0,0.0,0.0,0.0,0.0,0.0,0.0,0.0,-1.9638,-1.8644,-1.8396,0.0,0.0,0.0,0.0,-1.988,-2.0599,0.0,0.0,0.0,0.0,0.0,0.0,0.0,0.0,0.0,0.0,0.0,0.0,0.0,0.0,0.0,0.0,0.0,0.0,0.0,0.0,0.0,0.0,0.0,0.0,0.0,0.0,0.0,0.0,0.0,0.0,0.0,0.0,0.0,0.0,0.0,0.0,0.0,0.0,0.0,0.0,0.0,0.0,0.0,0.0,0.0,0.0,0.0,0.0,0.0,0.0,0.0,0.0,0.0,0.0,0.0,0.0,-1.0864,-1.0568,-0.9917,-0.8857,-0.8804,-0.8811,-0.8903,-1.0269,-1.1366,0.0,0.0,0.0,0.0,0.0,0.0,0.0,0.0,0.0,0.0,0.0,0.0,0.0,0.0,0.0,0.0,0.0,0.0,0.0,0.0,0.0,0.0,0.0,0.0,0.0,0.0,0.0,0.0,0.0,0.0,0.0,0.0,0.0,0.0,0.0,0.0,0.0,0.0,0.0,0.0,0.0,-1.9638,-1.8631,-1.8338,-1.8153,0.0,0.0,-1.9735,-2.0067,-2.171,0.0,0.0,0.0,0.0,0.0,0.0,0.0,0.0,0.0,0.0,0.0,0.0,0.0,0.0,0.0,0.0,0.0,0.0,0.0,0.0,0.0,0.0,0.0,0.0,0.0,0.0,0.0,0.0,0.0,0.0,0.0,0.0,0.0,0.0,0.0,0.0,0.0,0.0,0.0,0.0,0.0,0.0,0.0,0.0,0.0,0.0,0.0,0.0,0.0,0.0,0.0,0.0,0.0,0.0,0.0,-1.2239,-1.0965,-1.0364,-0.9666,-0.8857,-0.8804,-0.8804,-0.8804,-1.0064,-1.1293,0.0,0.0,0.0,0.0,0.0,0.0,0.0,0.0,0.0,0.0,0.0,0.0,0.0,0.0,0.0,0.0,0.0,0.0,0.0,0.0,0.0,0.0,0.0,0.0,0.0,0.0,0.0,0.0,0.0,0.0,0.0,0.0,0.0,0.0,0.0,0.0,0.0,0.0,0.0,0.0,0.0,0.0,-1.8499,-1.7638,0.0,0.0,0.0,-2.001,-2.092,0.0,0.0,0.0,0.0,0.0,0.0,0.0,0.0,0.0,0.0,0.0,0.0,0.0,0.0,0.0,0.0,0.0,0.0,0.0,0.0,0.0,0.0,0.0,0.0,0.0,0.0,0.0,0.0,0.0,0.0,0.0,0.0,0.0,0.0,0.0,0.0,0.0,0.0,0.0,0.0,0.0,0.0,0.0,0.0,0.0,0.0,0.0,0.0,0.0,0.0,0.0,0.0,0.0,0.0,0.0,0.0,0.0,-1.1015,-1.0364,-0.9666,-0.8857,-0.8804,-0.8804,-0.8804,-1.0012,0.0,0.0,0.0,0.0,0.0,0.0,0.0,0.0,0.0,0.0,0.0,0.0,0.0,0.0,0.0,0.0,0.0,0.0,0.0,0.0,0.0,0.0,0.0,0.0,0.0,0.0,0.0,-1.8004,0.0,0.0,0.0,0.0,0.0,0.0,0.0,0.0,0.0,0.0,0.0,0.0,0.0,0.0,-1.8827,-1.8643,-1.7539,-1.7137,0.0,0.0,-2.0171,-2.1054,-2.1823,-2.2494,0.0,0.0,0.0,0.0,0.0,0.0,0.0,0.0,0.0,0.0,0.0,0.0,0.0,0.0,0.0,0.0,0.0,0.0,0.0,0.0,0.0,0.0,0.0,0.0,0.0,0.0,0.0,0.0,0.0,0.0,0.0,0.0,0.0,0.0,0.0,0.0,0.0,0.0,0.0,0.0,0.0,0.0,0.0,0.0,0.0,0.0,0.0,0.0,0.0,0.0,0.0,0.0,0.0,0.0,-1.2812,-1.1065,-1.0813,-1.0115,-0.8857,-0.8804,-0.8804,-0.8804,-1.0115,-1.1116,0.0,0.0,0.0,0.0,0.0,0.0,0.0,0.0,0.0,0.0,0.0,0.0,0.0,0.0,0.0,0.0,0.0,0.0,0.0,0.0,0.0,0.0,0.0,0.0,0.0,0.0,0.0,0.0,0.0,0.0,0.0,0.0,0.0,0.0,0.0,0.0,0.0,0.0,0.0,0.0,0.0,-2.0234,-1.9266,-1.8776,-1.8564,0.0,-1.9713,-2.0315,-1.9666,-2.2293,-2.3878,-2.2379,0.0,0.0,0.0,0.0,0.0,0.0,0.0,0.0,0.0,0.0,0.0,0.0,0.0,0.0,0.0,0.0,0.0,0.0,0.0,0.0,0.0,0.0,0.0,0.0,0.0,0.0,0.0,0.0,0.0,0.0,0.0,0.0,0.0,0.0,0.0,0.0,0.0,0.0,0.0,0.0,0.0,0.0,0.0,0.0,0.0,0.0,0.0,0.0,0.0,0.0,0.0,0.0,0.0,-1.2648,-1.1266,-1.0517,-0.9718,-0.8857,-0.8804,-0.8804,-0.8804,-1.0012,-1.0998,0.0,0.0,0.0,0.0,0.0,0.0,0.0,0.0,0.0,0.0,0.0,0.0,0.0,0.0,0.0,0.0,0.0,0.0,0.0,0.0,0.0,0.0,0.0,0.0,0.0,0.0,0.0,0.0,-1.7226,-1.7289,-1.8429,0.0,0.0,0.0,0.0,0.0,0.0,0.0,0.0,0.0,0.0,-1.9149,-1.8333,-1.7501,0.0,0.0,-1.9066,-1.9968,-2.0325,-2.1669,-2.2732,-2.2795,-2.3303,0.0,0.0,0.0,0.0,0.0,0.0,0.0,0.0,0.0,0.0,0.0,0.0,0.0,0.0,0.0,0.0,0.0,0.0,0.0,0.0,0.0,0.0,0.0,0.0,0.0,0.0,0.0,0.0,0.0,0.0,0.0,0.0,0.0,0.0,0.0,0.0,0.0,0.0,0.0,0.0,0.0,0.0,0.0,0.0,0.0,0.0,0.0,0.0,0.0,0.0,0.0,0.0,-1.2677,-1.1408,-1.0509,-0.9666,-0.8811,-0.8804,-0.8804,-0.8804,-1.002,-1.0956,0.0,0.0,0.0,0.0,0.0,0.0,0.0,0.0,0.0,0.0,0.0,0.0,0.0,0.0,0.0,0.0,0.0,0.0,0.0,0.0,0.0,0.0,0.0,0.0,0.0,0.0,0.0,0.0,-1.7587,-1.7658,-1.9265,0.0,0.0,0.0,0.0,0.0,0.0,0.0,0.0,0.0,0.0,-1.8721,-1.8196,-1.725,-1.6963,-1.8118,-1.908,-1.9921,-2.0781,-2.1473,-2.2162,-2.2951,0.0,0.0,0.0,0.0,0.0,0.0,0.0,0.0,0.0,0.0,0.0,0.0,0.0,0.0,0.0,0.0,0.0,0.0,0.0,0.0,0.0,0.0,0.0,0.0,0.0,0.0,0.0,-1.6491,0.0,0.0,-1.6392,0.0,0.0,0.0,0.0,0.0,0.0,0.0,0.0,0.0,0.0,0.0,0.0,0.0,0.0,0.0,0.0,0.0,0.0,0.0,0.0,0.0,0.0,-1.3226,-1.1408,-1.0965,-1.0115,-0.8857,-0.8804,-0.8804,-0.8804,-1.0115,-1.0914,-1.1266,0.0,0.0,0.0,0.0,0.0,0.0,0.0,0.0,0.0,0.0,0.0,0.0,0.0,0.0,0.0,0.0,0.0,0.0,0.0,0.0,0.0,0.0,0.0,0.0,0.0,0.0,-1.9473,-1.8719,-1.8639,0.0,0.0,0.0,0.0,0.0,0.0,0.0,0.0,0.0,0.0,-2.055,-1.9516,-1.9351,-1.8747,-1.8528,-1.922,-1.998,-2.046,-2.0579,-2.1843,-2.2805,0.0,0.0,0.0,0.0,0.0,0.0,0.0,0.0,0.0,0.0,0.0,0.0,0.0,0.0,0.0,0.0,0.0,0.0,0.0,0.0,0.0,0.0,0.0,0.0,0.0,0.0,0.0,-1.6705,-1.662,0.0,0.0,0.0,0.0,0.0,0.0,0.0,0.0,0.0,0.0,0.0,-1.6675,-1.7268,0.0,0.0,0.0,0.0,0.0,0.0,0.0,0.0,0.0,0.0,0.0,0.0,-1.3548,-1.1828,-1.1107,-1.0167,-0.8857,-0.8804,-0.8804,-0.8811,-1.0115,-1.1557,-1.3226,0.0,0.0,0.0,0.0,0.0,0.0,0.0,0.0,0.0,0.0,0.0,0.0,0.0,0.0,0.0,0.0,0.0,0.0,0.0,0.0,0.0,0.0,0.0,0.0,0.0,-1.9781,0.0,0.0,0.0,0.0,0.0,0.0,0.0,0.0,0.0,0.0,0.0,-2.226,-2.1802,-2.1165,-2.0412,-1.9535,-1.9048,-1.8791,0.0,0.0,0.0,0.0,0.0,0.0,0.0,0.0,0.0,0.0,0.0,0.0,0.0,0.0,-2.8698,-2.6824,-2.6656,-2.673,-2.6571,0.0,0.0,0.0,0.0,0.0,0.0,0.0,0.0,0.0,0.0,0.0,0.0,0.0,0.0,-1.7073,0.0,-1.6976,0.0,0.0,0.0,0.0,0.0,0.0,0.0,0.0,-1.6722,-1.6753,-1.6663,-1.7073,-1.7674,0.0,-1.8602,-1.8434,0.0,0.0,0.0,0.0,0.0,0.0,0.0,0.0,-1.416,-1.2493,-1.1571,-1.0501,-0.9211,-0.8903,-0.8804,-0.8804,-1.0115,-1.1944,-1.4387,-1.4766,-1.5881,0.0,0.0,0.0,0.0,0.0,0.0,0.0,0.0,0.0,0.0,0.0,0.0,0.0,0.0,0.0,0.0,0.0,0.0,0.0,0.0,0.0,0.0,0.0,-1.996,0.0,0.0,0.0,0.0,0.0,0.0,0.0,0.0,0.0,-2.3522,-2.3014,-2.2458,-2.2075,-2.1528,-2.0853,-1.9982,0.0,0.0,0.0,0.0,0.0,0.0,0.0,-2.2586,-2.3426,-2.4508,-2.5631,-2.6708,-2.8199,-2.9842,-3.1622,0.0,0.0,-2.9124,-2.8836,-2.8864,-2.867,-2.8763,-2.8956,-2.9225,-2.9609,-2.9722,0.0,0.0,0.0,0.0,0.0,0.0,0.0,0.0,-1.7585,-1.753,0.0,-1.7476,0.0,0.0,0.0,0.0,0.0,-1.7457,0.0,0.0,-1.7118,-1.7049,-1.6534,-1.6778,-1.724,-1.7828,-1.8645,-1.9037,-1.8932,-1.8595,0.0,0.0,0.0,0.0,0.0,0.0,-1.506,-1.3334,-1.228,-1.1123,-0.9865,-0.9211,-0.8857,-0.8903,-1.0115,-1.2033,-1.4503,-1.4698,-1.5777,-1.8047,-1.8286,0.0,0.0,0.0,0.0,0.0,0.0,0.0,0.0,0.0,0.0,0.0,0.0,0.0,0.0,0.0,0.0,0.0,0.0,0.0,0.0,-2.052,0.0,0.0,0.0,0.0,0.0,0.0,0.0,0.0,0.0,0.0,-2.3492,-2.3056,-2.2697,-2.2727,0.0,0.0,0.0,0.0,-2.0388,-2.0227,-2.055,-2.0908,-2.1158,-2.2318,-2.3305,-2.3665,0.0,0.0,-2.8985,-3.0212,-3.1225,-3.2311,-3.328,-3.3451,-3.1874,-3.1376,-3.1052,-3.0642,-3.0552,-3.07,-3.1104,-3.1207,-3.1205,-2.1171,0.0,0.0,0.0,0.0,-2.0758,-2.0102,-1.9542,-1.8865,-1.843,-1.8147,-1.8133,0.0,0.0,0.0,0.0,0.0,0.0,-1.7274,-1.7076,-1.6845,-1.6685,-1.6522,-1.6964,-1.7284,-1.7489,-1.8444,-1.9169,-1.9598,-1.9914,-1.9537,-1.864,0.0,0.0,0.0,0.0,-1.56,-1.4063,-1.2992,-1.1837,-1.0559,-0.9865,-0.9769,-1.0218,-1.061,-1.1846,-1.4003,-1.4468,-1.5591,-1.7472,-1.7989,0.0,0.0,0.0,0.0,0.0,0.0,0.0,0.0,0.0,0.0,0.0,0.0,0.0,0.0,0.0,0.0,0.0,0.0,0.0,-2.2133,-2.0955,-2.0526,0.0,0.0,0.0,0.0,0.0,0.0,0.0,0.0,0.0,-2.3522,-2.3056,-2.2847,0.0,0.0,-2.2484,-2.2161,-2.1991,-2.1643,-2.0898,-2.101,0.0,-2.1249,-2.2297,-2.3393,-2.4416,-2.5974,-2.7825,-2.9979,-3.0925,-3.1979,-3.3625,-3.4438,-3.4651,-3.4207,-3.3248,-3.2655,-3.2728,-3.2393,-3.2046,-3.2166,-3.1948,-3.1489,-2.305,-2.3268,-2.2517,-2.2565,-2.3158,-2.2406,-2.1635,-2.0895,-2.0109,-1.9457,-1.8954,-1.8741,-1.8693,-1.8745,-1.9002,0.0,0.0,0.0,-1.7854,-1.7284,-1.6951,-1.6837,-1.6879,-1.6952,-1.7323,-1.7998,-1.892,-1.9658,-2.0232,-2.1099,-2.101,-2.0073,0.0,0.0,-1.8577,-1.8271,-1.7157,-1.5245,-1.4039,-1.2859,-1.1648,-1.0661,-1.0509,-1.1166,-1.1216,-1.2043,-1.3732,-1.4562,-1.5739,-1.7242,-1.814,-1.92,0.0,0.0,0.0,0.0,0.0,0.0,0.0,0.0,0.0,0.0,0.0,-2.2703,-2.2834,0.0,0.0,0.0,-2.233,-2.2279,-2.212,-2.1326,0.0,0.0,0.0,0.0,0.0,0.0,0.0,-2.3038,-2.3452,-2.3807,-2.397,-2.3909,-2.3894,-2.3925,-2.3852,-2.3792,-2.3722,0.0,-2.3183,-2.2138,-2.1896,-2.1668,-2.1414,-2.2497,-2.3956,-2.5718,-2.6784,-2.8075,-2.9935,-3.0814,-3.1884,-3.3665,-3.4618,-3.5104,-3.56,-3.4721,-3.3919,-3.3989,-3.3632,-3.3296,-3.3257,-3.2961,-3.2564,-2.5,-2.5327,-2.3686,-2.3628,-2.4527,-2.3867,-2.3104,-2.2242,-2.1301,-2.0609,-2.0111,-1.9354,-1.9087,-1.9255,-1.9802,0.0,-1.9579,-1.9539,-1.8823,-1.7555,-1.7432,-1.7453,-1.7491,-1.6904,-1.7403,-1.8943,-1.968,-2.0273,-2.074,-2.1993,-2.2353,-2.1913,-2.214,-2.1151,-1.9109,-1.9935,-1.9202,-1.676,-1.5333,-1.4039,-1.2812,-1.1598,-1.1216,-1.1765,-1.1814,-1.2395,-1.3695,-1.4803,-1.5955,-1.7157,-1.8461,-1.969,-2.0841,0.0,0.0,0.0,0.0,0.0,0.0,0.0,0.0,0.0,0.0,0.0,0.0,0.0,0.0,0.0,-2.1292,0.0,-2.1804,-2.1711,0.0,0.0,0.0,-2.2949,-2.2949,-2.3083,-2.3201,-2.3393,0.0,0.0,-2.4672,-2.5241,-2.5405,-2.4806,-2.4732,-2.4835,-2.5257,-2.5158,-2.4747,-2.3545,-2.2909,-2.2251,-2.1722,-2.2934,-2.4797,-2.6891,-2.7545,-2.809,-2.9267,-3.0088,-3.1268,-3.3061,-3.4039,-3.4825,-3.6028,-3.5508,-3.4961,-3.4345,-3.4217,-3.4172,-3.3939,-3.3827,-3.3589,-2.5619,-2.6032,-2.5669,-2.5853,-2.6232,-2.5533,-2.4882,-2.4213,-2.2834,-2.2088,-2.175,-2.0518,-2.0095,-2.0362,-2.1,-2.1243,-2.1148,-2.0715,-2.0382,-1.9949,-1.8669,-1.8275,-1.8623,-1.7683,-1.7617,-1.8389,-1.9002,-1.9791,-2.0843,-2.1585,-2.2129,-2.2499,-2.3396,-2.2668,-2.0422,-2.0528,-1.9671,-1.7692,-1.6528,-1.4902,-1.286,-1.2473,-1.2132,-1.1814,-1.1814,-1.2227,-1.3104,-1.4262,-1.5423,-1.6543,-1.7763,-1.9014,-2.032,-2.0795,0.0,0.0,0.0,0.0,0.0,0.0,0.0,0.0,0.0,-2.3213,-2.3286,0.0,-2.3116,0.0,-2.1898,-2.1936,-2.2944,-2.2693,0.0,0.0,-2.3318,-2.3378,-2.3363,-2.3378,-2.3615,-2.4148,-2.4417,-2.4776,-2.5315,-2.551,-2.5734,-2.6048,-2.5689,-2.5373,-2.5396,-2.5473,-2.5018,-2.3865,-2.3483,-2.311,-2.2588,-2.392,-2.5459,-2.6668,-2.723,-2.7859,-2.8682,-2.9378,-3.0335,-3.1784,-3.303,-3.406,-3.4851,-3.4796,-3.4548,-3.4213,-3.3953,-3.3588,-3.3042,-3.2719,-3.2493,-2.557,-2.6292,-2.6422,-2.6704,-2.7077,-2.6631,-2.5897,-2.498,-2.3903,-2.3027,-2.2291,-2.1345,-2.1197,-2.1605,-2.1964,-2.2128,-2.2128,-2.1813,-2.1403,-2.0849,-1.988,-1.9475,-1.9456,-1.8585,-1.841,-1.8894,-1.9266,-1.994,-2.0853,-2.1713,-2.2352,-2.2701,-2.3849,-2.3452,-2.1723,-2.1508,-2.0586,-1.8877,-1.7253,-1.5603,-1.4068,-1.3508,-1.313,-1.2899,-1.2801,-1.3066,-1.3638,-1.5034,-1.6151,-1.6949,-1.8177,-1.9332,-2.0471,-2.0845,-2.1286,0.0,0.0,0.0,0.0,0.0,0.0,0.0,0.0,0.0,0.0,0.0,-2.3146,-2.3086,-2.2503,-2.2532,-2.3448,-2.3253,-2.334,-2.3911,-2.3985,-2.4089,-2.4388,-2.4417,-2.4581,-2.4954,-2.5284,-2.563,-2.6004,-2.6303,-2.6602,-2.6976,-2.6722,-2.6482,-2.637,-2.6434,-2.6098,-2.5096,-2.4442,-2.3899,-2.3209,-2.3963,-2.5043,-2.5979,-2.6707,-2.7365,-2.8023,-2.8728,-2.9587,-3.0902,-3.1765,-3.261,-3.3428,-3.3632,-3.3556,-3.3362,-3.3145,-3.2892,-3.2594,-3.2343,-3.2215,-2.5275,-2.6064,-2.6347,-2.6806,-2.7287,-2.7186,-2.6435,-2.5337,-2.4751,-2.367,-2.2278,-2.2043,-2.2218,-2.2682,-2.2862,-2.2921,-2.2936,-2.3068,-2.2473,-2.1365,-2.1222,-2.0807,-2.0193,-1.9515,-1.9443,-1.9799,-1.9891,-2.0298,-2.0951,-2.1969,-2.2601,-2.2855,-2.3709,-2.3716,-2.2828,-2.2546,-2.1583,-1.9886,-1.7837,-1.6397,-1.569,-1.4671,-1.4204,-1.4283,-1.4195,-1.4304,-1.4662,-1.6243,-1.7341,-1.7721,-1.8873,-1.9876,-2.0782,-2.0894,-2.1369,0.0,-2.2629,0.0,0.0,0.0,0.0,0.0,0.0,0.0,0.0,-2.2828,-2.3026,-2.3565,-2.3101,-2.3011,-2.355,-2.3684,-2.3969,-2.4507,-2.4657,-2.4986,-2.5525,-2.56,-2.5644,-2.5719,-2.6243,-2.6617,-2.6722,-2.723,-2.756,-2.753,-2.7535,-2.744,-2.758,-2.7485,-2.723,-2.6677,-2.5619,-2.4534,-2.3862,-2.3862,-2.44,-2.5325,-2.6033,-2.6692,-2.7335,-2.7955,-2.874,-2.9997,-3.0452,-3.0919,-3.2036,-3.2266,-3.2238,-3.2219,-3.2131,-3.2071,-3.2231,-3.2315,-3.2417,-2.5884,-2.5018,-2.588,-2.6451,-2.6674,-2.663,-2.6682,-2.6707,-2.5513,-2.3959,-2.2385,-2.2979,-2.3041,-2.2772,-2.3789,-2.4209,-2.4283,-2.4807,-2.4642,-2.3867,-2.2966,-2.2107,-2.1362,-2.0301,-1.9833,-1.9825,-1.9851,-2.0386,-2.1444,-2.1269,-2.1904,-2.3288,-2.3167,-2.3172,-2.34,0.0,0.0,0.0,-1.903,-1.7998,-1.6761,-1.6219,-1.5635,-1.4893,-1.4774,0.0,-1.4958,-1.6058,-1.7074,-1.7851,-1.8582,0.0,0.0,0.0,0.0,0.0,0.0,0.0,0.0,0.0,0.0,0.0,-2.349,-2.343,-2.3415,-2.343,-2.3475,-2.358,-2.3505,-2.3475,-2.3595,-2.4103,-2.4433,-2.4582,-2.5106,-2.548,-2.56,-2.5615,-2.5794,-2.6348,-2.6527,-2.6811,-2.729,-2.755,-2.756,-2.756,-2.756,-2.756,-2.756,-2.756,-2.737,-2.6677,-2.589,-2.498,-2.3837,-2.452,-2.4951,-2.5,-2.536,-2.6019,-2.6632,-2.6886,-2.744,-2.8761,-2.9419,-3.0024,-3.0791,-3.0927,-3.1005,-3.145,-3.109,-3.0849,-3.1329,-3.1714,-3.1915,-2.5831,-2.5715,-2.5928,-2.6558,0.0,-2.7377,-2.7572,-2.7798,-2.6454,-2.4909,-2.3455,-2.3891,-2.3924,-2.3699,-2.4672,-2.5106,-2.5136,-2.545,-2.5435,-2.503,-2.4133,-2.3339,-2.263,-2.1417,-2.0686,-2.0295,-1.9952,-2.0243,-2.112,-2.0948,-2.1372,-2.2586,-2.2672,-2.2844,-2.3128,-2.2526,-2.1584,-2.033,-1.9782,-1.902,-1.8031,-1.6975,-1.6244,-1.589,-1.5533,0.0,0.0,0.0,0.0,0.0,0.0,0.0,0.0,-2.0438,0.0,-2.1582,-2.2873,-2.3721,-2.3909,-2.4325,-2.4582,-2.4597,-2.4597,-2.4313,-2.3655,-2.3595,-2.3744,-2.4073,-2.3804,-2.3729,-2.4073,-2.4118,-2.4343,-2.5016,-2.542,-2.5839,-2.6437,-2.6572,-2.6707,-2.6991,-2.7066,-2.7215,-2.7515,-2.756,-2.756,-2.756,-2.756,-2.756,-2.756,-2.756,-2.7385,-2.6707,-2.6333,-2.5749,-2.4852,-2.4762,-2.5,-2.4701,-2.4851,-2.5375,-2.5989,-2.6378,-2.6931,-2.791,-2.841,-2.8817,-2.9394,-2.9515,-2.9688,-3.0202,-3.0092,-3.0097,-3.0617,-3.1179,-3.1507,-2.5666,-2.6449,-2.5992,-2.656,-2.7754,-2.7867,-2.8078,-2.8278,0.0,0.0,0.0,-2.4746,-2.4732,-2.4642,-2.5435,-2.5719,-2.563,-2.5854,-2.5884,-2.5749,-2.5072,-2.4359,-2.3645,-2.2408,-2.1507,-2.091,-2.036,-2.0351,-2.0832,-2.0785,-2.104,-2.1612,-2.2138,-2.2477,-2.2626,-2.211,-2.1594,-2.1035,-2.0315,-1.9653,-1.9117,-1.764,-1.694,-1.7129,-1.6539,-1.6432,-1.6753,-1.782,-1.8491,-1.8769,-1.9265,-1.972,-2.0003,-2.0627,-2.1184,-2.1641,-2.3032,-2.3993,-2.4333,-2.4619,-2.5012,-2.5585,-2.56,-2.5136,-2.4029,-2.3954,-2.4133,-2.4552,-2.4074,-2.3969,-2.4358,-2.4193,-2.4388,-2.551,-2.5809,-2.6408,-2.743,-2.756,-2.7515,-2.756,-2.758,-2.756,-2.761,-2.756,-2.756,-2.756,-2.756,-2.756,-2.756,-2.756,-2.74,-2.6722,-2.6527,-2.6288,-2.5555,-2.5151,-2.4686,-2.4418,-2.4582,-2.4955,-2.554,-2.6153,-2.6811,-2.75,-2.7575,-2.784,-2.8253,-2.8396,-2.8559,-2.915,-2.9225,-2.9422,-3.0038,-3.0617,-3.1055,-2.582,-2.5089,-2.5494,-2.5613,-2.5608,-2.6001,-2.6703,-2.7426,-2.684,-2.6168,-2.548,-2.548,-2.5166,-2.4702,-2.5914,-2.6138,-2.5689,-2.6797,-2.6991,-2.6404,-2.5716,-2.4718,-2.358,-2.2748,-2.1979,-2.1407,-2.131,-2.1292,-2.1305,-2.0923,-2.0989,-2.1497,-2.1223,-2.1591,-2.2519,-2.254,-2.2351,-2.2168,-2.0758,-1.9845,-1.9529,-1.8953,-1.8511,-1.8289,-1.8091,-1.8065,-1.8213,-1.8736,-1.9181,-1.9441,-1.9579,-1.9656,-1.9836,-2.0429,-2.1025,-2.1629,-2.2777,-2.3796,-2.444,-2.5034,-2.5433,-2.5565,-2.56,-2.5525,-2.5345,-2.533,-2.5136,-2.4657,-2.4492,-2.4268,-2.3894,-2.4687,-2.5345,-2.5659,-2.6617,-2.738,-2.756,-2.756,-2.756,-2.756,-2.756,-2.756,-2.756,-2.756,-2.756,-2.756,-2.756,-2.756,-2.756,-2.756,-2.7305,-2.6767,-2.6602,-2.6078,-2.5226,-2.5226,-2.4926,-2.3909,-2.4717,-2.5375,-2.557,-2.6153,-2.6811,-2.7455,-2.756,-2.766,-2.776,-2.771,-2.8008,-2.8511,-2.8638,-2.8826,-2.9406,-3.0038,-3.0617,-2.6176,-2.5749,-2.5975,-2.6228,-2.6549,-2.6907,-2.727,-2.7563,-2.6773,-2.6331,-2.6135,-2.6153,-2.5974,-2.5794,-2.6707,-2.6961,-2.6707,-2.734,-2.7208,-2.6542,-2.5792,-2.5,-2.3992,-2.2938,-2.2281,-2.1953,-2.1635,-2.1644,-2.1857,-2.138,-2.142,-2.1911,-2.1759,-2.2123,-2.2967,-2.2688,-2.2458,-2.239,-2.1391,-2.0675,-2.0233,-1.9396,-1.8958,-1.8784,-1.8487,-1.8313,-1.8338,-1.8796,-1.9131,-1.9283,-1.9558,-1.9897,-2.0263,-2.0803,-2.1407,-2.1975,-2.3197,-2.4032,-2.4354,-2.5406,-2.6046,-2.6165,-2.6482,-2.6677,-2.6677,-2.6019,-2.548,-2.5196,-2.5166,-2.5046,-2.4732,-2.5255,-2.5749,-2.6108,-2.6707,-2.7235,-2.755,-2.756,-2.756,-2.756,-2.756,-2.756,-2.756,-2.756,-2.756,-2.756,-2.756,-2.756,-2.756,-2.756,-2.7335,-2.6737,-2.6587,-2.6198,-2.5345,-2.5015,-2.4822,-2.4208,-2.4657,-2.5196,-2.5525,-2.6168,-2.6811,-2.741,-2.756,-2.756,-2.756,-2.756,-2.776,-2.786,-2.7993,-2.8271,-2.8826,-2.9645,-3.0344,-2.6521,-2.6521,-2.6521,-2.6837,-2.7406,-2.7354,-2.7426,-2.7612,-2.659,-2.6357,-2.6638,-2.6633,-2.6411,-2.6173,-2.6959,-2.7166,-2.6945,-2.7063,-2.6811,-2.6226,-2.5558,-2.4933,-2.43,-2.3118,-2.2535,-2.2493,-2.2071,-2.202,-2.2234,-2.1882,-2.182,-2.2115,-2.2159,-2.2536,-2.3124,-2.2614,-2.2405,-2.2496,-2.2044,-2.1416,-2.0693,-1.9811,-1.9334,-1.9171,-1.8794,-1.8568,-1.8581,-1.9108,-1.9397,-1.9422,-1.9899,-2.0388,-2.0828,-2.138,-2.187,-2.2367,-2.3412,-2.4118,-2.435,-2.5687,-2.6504,-2.6559,-2.724,-2.756,-2.7485,-2.6662,-2.5974,-2.5854,-2.5824,-2.5764,-2.5615,-2.5749,-2.6033,-2.6527,-2.6737,-2.7051,-2.752,-2.756,-2.756,-2.756,-2.756,-2.756,-2.756,-2.756,-2.756,-2.756,-2.756,-2.756,-2.756,-2.756,-2.7305,-2.6811,-2.6602,-2.6422,-2.5869,-2.5315,-2.4956,-2.4806,-2.5031,-2.542,-2.5869,-2.6393,-2.6916,-2.747,-2.756,-2.756,-2.756,-2.756,-2.7625,-2.766,-2.766,-2.7845,-2.8463,-2.9196,-2.995,-2.6521,-2.6521,-2.6521,-2.6533,-2.6531,-2.5635,-2.5897,-2.667,-2.6153,-2.6324,-2.681,-2.6629,-2.583,-2.4903,-2.604,-2.6012,-2.4947,-2.5368,-2.5563,-2.5467,-2.4727,-2.4372,-2.4231,-2.3436,-2.3034,-2.2997,-2.2924,-2.2686,-2.2359,-2.2272,-2.202,-2.1606,-2.1562,-2.1926,-2.2331,-2.2337,-2.2531,-2.3009,-2.2493,-2.1738,-2.0781,-2.0618,-2.0275,-1.9748,-1.9685,-1.966,-1.9673,-2.0213,-2.0555,-2.0605,-2.1004,-2.1343,-2.1455,-2.1933,-2.2259,-2.2334,-2.2896,-2.3543,-2.4292,-2.5673,-2.6467,-2.6544,-2.7144,-2.756,-2.7575,-2.744,-2.7111,-2.6662,-2.6497,-2.6258,-2.5734,-2.6138,-2.6527,-2.6662,-2.7111,-2.7515,-2.7545,-2.756,-2.756,-2.756,-2.756,-2.756,-2.756,-2.756,-2.756,-2.756,-2.756,-2.756,-2.756,-2.756,-2.743,-2.6826,-2.6602,-2.6587,-2.6333,-2.5944,-2.5495,-2.5495,-2.5989,-2.6258,-2.6497,-2.6931,-2.7565,-2.7485,-2.756,-2.756,-2.756,-2.756,-2.756,-2.756,-2.761,-2.776,-2.8319,-2.8654,-2.91,-2.6521,-2.6521,-2.6521,-2.6521,-2.6414,-2.6314,-2.6392,-2.6483,-2.5999,-2.5923,-2.6138,-2.6155,-2.6065,-2.5919,-2.6204,-2.6009,-2.5508,-2.577,-2.5461,-2.4751,-2.4465,-2.406,-2.3603,-2.3258,-2.3125,-2.3125,-2.3125,-2.2965,-2.2777,-2.2739,-2.2673,-2.2485,-2.2472,-2.2573,-2.2727,-2.2799,-2.2852,-2.3125,-2.2852,-2.2422,-2.1707,-2.1317,-2.1041,-2.0803,-2.0489,-2.0489,-2.074,-2.0727,-2.0815,-2.1129,-2.138,-2.1644,-2.1958,-2.2196,-2.246,-2.2774,-2.3,-2.3484,-2.4221,-2.4851,-2.5398,-2.5797,-2.6549,-2.693,-2.6982,-2.7342,-2.749,-2.723,-2.7156,-2.6916,-2.6363,-2.6782,-2.7156,-2.7215,-2.7425,-2.756,-2.756,-2.756,-2.756,-2.756,-2.756,-2.756,-2.756,-2.756,-2.756,-2.756,-2.756,-2.756,-2.756,-2.756,-2.7505,-2.726,-2.7171,-2.6782,-2.6258,-2.5824,-2.5644,-2.5734,-2.6153,-2.6572,-2.6707,-2.7141,-2.761,-2.756,-2.756,-2.756,-2.756,-2.756,-2.756,-2.756,-2.7625,-2.7725,-2.7959,-2.8286,-2.8857,-2.6779,-2.6879,-2.6753,-2.6691,-2.6703,-2.6942,-2.6917,-2.664,-2.6076,-2.5824,-2.5841,-2.5859,-2.6185,-2.676,-2.6356,-2.6018,-2.5854,-2.5794,-2.5249,-2.4288,-2.4249,-2.3816,-2.315,-2.3125,-2.3125,-2.3125,-2.3125,-2.3153,-2.329,-2.3364,-2.3452,-2.3503,-2.3528,-2.3528,-2.359,-2.3477,-2.3376,-2.3364,-2.3165,-2.2877,-2.2523,-2.2146,-2.1794,-2.1493,-2.1104,-2.1091,-2.1455,-2.1255,-2.1292,-2.1694,-2.1857,-2.2121,-2.251,-2.2686,-2.3012,-2.3466,-2.3528,-2.3834,-2.4424,-2.4505,-2.4749,-2.5295,-2.5895,-2.6283,-2.6563,-2.6982,-2.7357,-2.7545,-2.756,-2.7385,-2.7036,-2.729,-2.7545,-2.756,-2.756,-2.756,-2.756,-2.756,-2.756,-2.756,-2.756,-2.756,-2.756,-2.756,-2.756,-2.756,-2.756,-2.756,-2.756,-2.756,-2.756,-2.756,-2.761,-2.725,-2.6318,-2.6033,-2.5944,-2.6138,-2.6572,-2.6662,-2.6797,-2.7335,-2.756,-2.756,-2.756,-2.756,-2.756,-2.756,-2.756,-2.756,-2.7625,-2.7625,-2.766,-2.81,-2.8648,-2.7557,-2.7908,-2.7469,-2.7268,-2.7231,-2.6791,-2.6816,-2.7155,-2.664,-2.6483,-2.6302,-2.5879,-2.5996,-2.6485,-2.6153,-2.5545,-2.4963,-2.4963,-2.4659,-2.4116,-2.4078,-2.3727,-2.315,-2.3125,-2.3163,-2.3153,-2.3288,-2.3502,-2.3941,-2.3966,-2.423,-2.4695,-2.4657,-2.4695,-2.4607,-2.418,-2.3966,-2.3853,-2.3439,-2.3065,-2.3015,-2.3037,-2.2523,-2.1732,-2.1481,-2.1493,-2.1581,-2.197,-2.2234,-2.2272,-2.2723,-2.2977,-2.3138,-2.3615,-2.413,-2.4607,-2.4707,-2.4707,-2.4747,-2.4926,-2.505,-2.5177,-2.5429,-2.5784,-2.64,-2.6572,-2.6943,-2.7569,-2.7629,-2.7554,-2.7619,-2.7649,-2.767,-2.7625,-2.7655,-2.7619,-2.756,-2.756,-2.756,-2.7619,-2.7664,-2.7634,-2.759,-2.756,-2.756,-2.756,-2.756,-2.756,-2.756,-2.756,-2.756,-2.756,-2.756,-2.753,-2.7395,-2.6916,-2.6856,-2.6976,-2.6886,-2.6811,-2.723,-2.756,-2.756,-2.756,-2.756,-2.756,-2.756,-2.756,-2.756,-2.756,-2.756,-2.756,-2.7784,-2.8218,-2.8748,-2.7921,-2.8134,-2.8273,-2.8147,-2.7833,-2.7959,-2.777,-2.7281,-2.7067,-2.6779,-2.6465,-2.6307,-2.6264,-2.6496,-2.6362,-2.5902,-2.5322,-2.5322,-2.5034,-2.4569,-2.4531,-2.423,-2.3766,-2.4029,-2.4004,-2.3766,-2.4029,-2.4318,-2.4494,-2.4519,-2.4619,-2.4782,-2.4833,-2.4833,-2.4782,-2.4632,-2.4368,-2.4017,-2.3778,-2.3514,-2.3103,-2.3125,-2.3088,-2.3062,-2.2385,-2.2184,-2.2535,-2.241,-2.2472,-2.2824,-2.3037,-2.3301,-2.369,-2.4217,-2.4607,-2.4795,-2.4833,-2.4833,-2.4795,-2.4874,-2.4937,-2.4924,-2.5458,-2.5786,-2.604,-2.627,-2.6791,-2.7683,-2.7681,-2.788,-2.8629,-2.8487,-2.8053,-2.7709,-2.7949,-2.8023,-2.7679,-2.7575,-2.7724,-2.8098,-2.8218,-2.8083,-2.7739,-2.7575,-2.756,-2.756,-2.756,-2.756,-2.756,-2.756,-2.756,-2.756,-2.756,-2.756,-2.756,-2.741,-2.7305,-2.738,-2.7415,-2.7305,-2.753,-2.756,-2.756,-2.756,-2.756,-2.756,-2.7575,-2.7694,-2.7664,-2.7625,-2.7625,-2.7889,-2.8143,-2.8517,-2.9056,-2.816,-2.7921,-2.8247,-2.8298,-2.8147,-2.831,-2.8185,-2.7745,-2.7431,-2.7067,-2.6741,-2.6609,-2.6521,-2.6521,-2.6521,-2.6264,-2.59,-2.5875,-2.5586,-2.5109,-2.5071,-2.477,-2.4393,-2.4644,-2.4619,-2.4356,-2.4619,-2.4895,-2.5059,-2.5071,-2.5172,-2.536,-2.536,-2.5335,-2.5322,-2.5172,-2.4808,-2.4356,-2.4092,-2.3715,-2.3165,-2.3314,-2.359,-2.3853,-2.3427,-2.3288,-2.3665,-2.3314,-2.3276,-2.3615,-2.3616,-2.3929,-2.4494,-2.487,-2.5172,-2.5322,-2.536,-2.5347,-2.5322,-2.5184,-2.5059,-2.5059,-2.5307,-2.5621,-2.588,-2.6036,-2.6703,-2.7453,-2.7627,-2.7838,-2.8519,-2.8752,-2.8581,-2.8092,-2.8323,-2.8412,-2.7979,-2.7919,-2.8128,-2.8442,-2.8547,-2.8427,-2.8314,-2.8053,-2.7964,-2.7904,-2.779,-2.7575,-2.756,-2.756,-2.756,-2.756,-2.756,-2.756,-2.756,-2.7485,-2.744,-2.75,-2.758,-2.756,-2.756,-2.756,-2.756,-2.756,-2.756,-2.756,-2.7634,-2.7769,-2.7739,-2.7685,-2.794,-2.8233,-2.8502,-2.8801,-2.9385,-2.8323,-2.7494,-2.7318,-2.777,-2.8109,-2.777,-2.8009,-2.8561,-2.7758,-2.7344,-2.7231,-2.6753,-2.659,-2.6553,-2.6666,-2.6596,-2.6533,-2.6465,-2.6151,-2.5636,-2.5598,-2.5335,-2.4858,-2.4946,-2.4996,-2.4908,-2.4895,-2.5146,-2.5586,-2.5624,-2.585,-2.6314,-2.6302,-2.6251,-2.6402,-2.5837,-2.5347,-2.4833,-2.4356,-2.3778,-2.3228,-2.3665,-2.3966,-2.4104,-2.4443,-2.472,-2.4808,-2.4732,-2.4619,-2.4695,-2.472,-2.5034,-2.5372,-2.5573,-2.5837,-2.6239,-2.6458,-2.6471,-2.6395,-2.5875,-2.5611,-2.5573,-2.5237,-2.5358,-2.5905,-2.5936,-2.6268,-2.7045,-2.7129,-2.7161,-2.7478,-2.8392,-2.8927,-2.8702,-2.8704,-2.8786,-2.8637,-2.8622,-2.8607,-2.8697,-2.8771,-2.8936,-2.9235,-2.8966,-2.8622,-2.8502,-2.8098,-2.7709,-2.7709,-2.7664,-2.7575,-2.756,-2.756,-2.756,-2.756,-2.756,-2.756,-2.756,-2.756,-2.756,-2.756,-2.756,-2.756,-2.756,-2.756,-2.7575,-2.7655,-2.7739,-2.7799,-2.7814,-2.8188,-2.8487,-2.8929,-2.9274,-2.9789,-2.9089,-2.8448,-2.8423,-2.8511,-2.8649,-2.8486,-2.8637,-2.8837,-2.8147,-2.7846,-2.7745,-2.7268,-2.7231,-2.7532,-2.7595,-2.7381,-2.7042,-2.7005,-2.6728,-2.6264,-2.6189,-2.59,-2.5523,-2.5762,-2.5937,-2.595,-2.5963,-2.6013,-2.6138,-2.6244,-2.6314,-2.6427,-2.6521,-2.6521,-2.6521,-2.6319,-2.5912,-2.536,-2.4833,-2.4293,-2.3791,-2.3904,-2.418,-2.4582,-2.5071,-2.5523,-2.5887,-2.5234,-2.4845,-2.4858,-2.4833,-2.5059,-2.5548,-2.5975,-2.6332,-2.6483,-2.6521,-2.6521,-2.6508,-2.6382,-2.6163,-2.6151,-2.6013,-2.6085,-2.6197,-2.5919,-2.6259,-2.7203,-2.7157,-2.726,-2.8174,-2.831,-2.8387,-2.8364,-2.9282,-2.9615,-2.9385,-2.9609,-2.9654,-2.9415,-2.9639,-2.9819,-2.9624,-2.9325,-2.9227,-2.9113,-2.8591,-2.8174,-2.8181,-2.7765,-2.759,-2.756,-2.756,-2.752,-2.7536,-2.7543,-2.7669,-2.7586,-2.7584,-2.7575,-2.756,-2.7575,-2.7575,-2.7679,-2.7664,-2.7664,-2.7745,-2.788,-2.7993,-2.7829,-2.7934,-2.8494,-2.9169,-2.9708,-3.0148,-2.9264,-2.8888,-2.8486,-2.8448,-2.8586,-2.8423,-2.8574,-2.88,-2.8335,-2.8222,-2.826,-2.7833,-2.777,-2.8059,-2.8109,-2.7921,-2.7607,-2.7595,-2.7293,-2.6829,-2.6766,-2.654,-2.6276,-2.6578,-2.6766,-2.6785,-2.6622,-2.6521,-2.6521,-2.6521,-2.6521,-2.6521,-2.6521,-2.6521,-2.6521,-2.6508,-2.6176,-2.5624,-2.5259,-2.4845,-2.4469,-2.4494,-2.4757,-2.5134,-2.5636,-2.6143,-2.6445,-2.5774,-2.5423,-2.5435,-2.5423,-2.5611,-2.5925,-2.6264,-2.6521,-2.6521,-2.6521,-2.6521,-2.6521,-2.6508,-2.6521,-2.6521,-2.6521,-2.6508,-2.6458,-2.6076,-2.6451,-2.7007,-2.6972,-2.7157,-2.7774,-2.8079,-2.7947,-2.8047,-2.9218,-2.9921,-2.9933,-3.0253,-3.0328,-3.0073,-3.0238,-3.0246,-2.9977,-2.9596,-2.9354,-2.9083,-2.8434,-2.7998,-2.794,-2.761,-2.7418,-2.7331,-2.7342,-2.7291,-2.7353,-2.7525,-2.7733,-2.7617,-2.7535,-2.7584,-2.756,-2.759,-2.759,-2.7993,-2.8113,-2.8143,-2.8173,-2.8457,-2.8622,-2.8248,-2.7964,-2.8742,-2.9574,-2.9849,-3.0328,-2.8938,-2.875,-2.7821,-2.7808,-2.8172,-2.7758,-2.8172,-2.8825,-2.8436,-2.8511,-2.8775,-2.8386,-2.8124,-2.8149,-2.8299,-2.8138,-2.7914,-2.7914,-2.7457,-2.7013,-2.6915,-2.6912,-2.7005,-2.7092,-2.713,-2.703,-2.6666,-2.6533,-2.6521,-2.6521,-2.6521,-2.6521,-2.6521,-2.6521,-2.6521,-2.6521,-2.6214,-2.5799,-2.5573,-2.5197,-2.4858,-2.5197,-2.5485,-2.5561,-2.6088,-2.6483,-2.6414,-2.6339,-2.6352,-2.6496,-2.6314,-2.6314,-2.6483,-2.6521,-2.6521,-2.6521,-2.6521,-2.6521,-2.6521,-2.6521,-2.6521,-2.6521,-2.6521,-2.6521,-2.6427,-2.6458,-2.6433,-2.6645,-2.6526,-2.6539,-2.6769,-2.7178,-2.7565,-2.7827,-2.8739,-2.9565,-3.0285,-3.0357,-3.0186,-3.0229,-3.0357,-3.0334,-3.0009,-2.959,-2.8976,-2.8274,-2.7649,-2.7332,-2.7095,-2.6986,-2.6945,-2.6893,-2.6875,-2.6988,-2.7018,-2.7315,-2.7481,-2.7379,-2.7374,-2.743,-2.7548,-2.759,-2.7784,-2.8188,-2.8517,-2.8562,-2.8727,-2.8981,-2.8921,-2.8517,-2.8712,-2.937,-2.9774,-3.0073,-3.0462,-2.9076,-2.8348,-2.8448,-2.8586,-2.8687,-2.8549,-2.8875,-2.944,-2.8863,-2.8825,-2.9263,-2.8963,-2.8359,-2.8227,-2.8882,-2.8313,-2.696,-2.7186,-2.6671,-2.5673,-2.5885,-2.633,-2.6768,-2.7105,-2.7105,-2.6779,-2.6672,-2.6521,-2.6521,-2.6521,-2.6452,-2.6521,-2.6452,-2.6452,-2.6521,-2.6452,-2.6389,-2.6126,-2.5385,-2.5222,-2.536,-2.5159,-2.5222,-2.5624,-2.6231,-2.6508,-2.6521,-2.6521,-2.6521,-2.6521,-2.6521,-2.6521,-2.6521,-2.6521,-2.6521,-2.6521,-2.6521,-2.6521,-2.6521,-2.6521,-2.6521,-2.6521,-2.6521,-2.6521,-2.6521,-2.6521,-2.6521,-2.6521,-2.6521,-2.6521,-2.6521,-2.6714,-2.7108,-2.7723,-2.8429,-2.9086,-2.9407,-2.9374,-2.9374,-2.936,-2.9393,-2.9445,-2.9316,-2.9108,-2.8705,-2.8043,-2.7412,-2.6905,-2.6521,-2.6372,-2.6261,-2.6287,-2.6254,-2.6459,-2.671,-2.7062,-2.7204,-2.712,-2.7102,-2.725,-2.7422,-2.7604,-2.7949,-2.8382,-2.8667,-2.8786,-2.9116,-2.9445,-2.9169,-2.8801,-2.8981,-2.9385,-2.9834,-3.0193,-3.0567,-2.9402,-2.8812,-2.8888,-2.8599,-2.8246,-2.7986,-2.7952,-2.7993,-2.7723,-2.7867,-2.8215,-2.8059,-2.7743,-2.751,-2.8108,-2.7554,-2.6219,-2.668,-2.6314,-2.5385,-2.5474,-2.6201,-2.6954,-2.7152,-2.7001,-2.713,-2.6666,-2.6533,-2.6521,-2.6521,-2.6314,-2.6025,-2.6314,-2.6314,-2.5873,-2.6302,-2.6452,-2.6352,-2.5812,-2.5686,-2.59,-2.5674,-2.5686,-2.5963,-2.637,-2.6521,-2.6452,-2.6094,-2.6013,-2.6383,-2.6521,-2.6521,-2.6521,-2.6521,-2.6521,-2.6521,-2.6521,-2.6521,-2.6521,-2.6521,-2.6521,-2.6521,-2.6521,-2.6521,-2.6521,-2.6521,-2.6521,-2.6521,-2.6521,-2.6521,-2.6521,-2.6521,-2.6714,-2.7095,-2.767,-2.8247,-2.8876,-2.9024,-2.8989,-2.8989,-2.9002,-2.8812,-2.8556,-2.8288,-2.7786,-2.7157,-2.6426,-2.603,-2.5739,-2.5688,-2.5655,-2.5614,-2.5782,-2.6065,-2.6534,-2.6899,-2.6748,-2.6715,-2.6497,-2.6651,-2.7121,-2.744,-2.8196,-2.8652,-2.8861,-2.9175,-2.9654,-2.9849,-2.9475,-2.928,-2.9265,-2.943,-2.9909,-3.0357,-3.0731,-2.9639,-2.9412,-2.9012,-2.8203,-2.7281,-2.6724,-2.6422,-2.5858,-2.6017,-2.6231,-2.6651,-2.6554,-2.6591,-2.6307,-2.6719,-2.6378,-2.6036,-2.6063,-2.576,-2.5251,-2.5229,-2.5797,-2.7011,-2.68,-2.6733,-2.693,-2.6606,-2.6169,-2.5873,-2.5943,-2.5652,-2.5146,-2.5652,-2.5652,-2.5063,-2.5639,-2.6094,-2.5918,-2.564,-2.5522,-2.5607,-2.5534,-2.5566,-2.6027,-2.6102,-2.6176,-2.5943,-2.5429,-2.5217,-2.6082,-2.6314,-2.6164,-2.6151,-2.6082,-2.6233,-2.6233,-2.6164,-2.6233,-2.6452,-2.6521,-2.6521,-2.6521,-2.6521,-2.6521,-2.6521,-2.6521,-2.6521,-2.6521,-2.6521,-2.6521,-2.6521,-2.6521,-2.6521,-2.6645,-2.6658,-2.7284,-2.8312,-2.8748,-2.8748,-2.8748,-2.8671,-2.8312,-2.7787,-2.7079,-2.6518,-2.6129,-2.5435,-2.5034,-2.4867,-2.4816,-2.4857,-2.4898,-2.5269,-2.5696,-2.6253,-2.6788,-2.6492,-2.6212,-2.58,-2.5905,-2.6596,-2.7187,-2.8296,-2.8988,-2.9475,-2.9953,-3.0462,-3.0372,-2.9958,-2.9894,-2.9968,-2.9983,-3.0103,-3.0522,-3.0911,-2.8805,-2.7284,-2.7957,-2.769,-2.6701,-2.6529,-2.6366,-2.6188,-2.6211,-2.614,-2.6449,-2.6472,-2.588,-2.521,-2.5808,-2.5557,-2.4317,-2.4723,-2.4629,-2.369,-2.367,-2.4353,-2.5496,-2.5915,-2.5709,-2.5198,-2.5183,-2.4933,-2.4397,-2.4397,-2.4108,-2.3963,-2.4181,-2.4036,-2.3963,-2.4181,-2.4169,-2.4112,-2.3824,-2.4012,-2.4198,-2.4001,-2.4284,-2.5169,-2.53,-2.53,-2.5146,-2.4337,-2.3963,-2.4253,-2.4779,-2.4909,-2.4469,-2.4325,-2.4624,-2.5217,-2.537,-2.5664,-2.6314,-2.6452,-2.6521,-2.6521,-2.6521,-2.6521,-2.6521,-2.6521,-2.6521,-2.6521,-2.6521,-2.6521,-2.6521,-2.6521,-2.6521,-2.6521,-2.6521,-2.6658,-2.6973,-2.7108,-2.7229,-2.7162,-2.7162,-2.6973,-2.6824,-2.6276,-2.5646,-2.5059,-2.4544,-2.4029,-2.3991,-2.4054,-2.4243,-2.4469,-2.487,-2.5322,-2.5706,-2.6108,-2.5946,-2.5537,-2.5174,-2.5396,-2.6068,-2.6749,-2.7794,-2.9042,-3.0223,-3.06,-3.0613,-3.1036,-3.0666,-3.0648,-3.0597,-3.0582,-3.0612,-3.0896,-3.0911,-2.7561,-2.654,-2.6896,-2.6493,-2.5732,-2.5485,-2.515,-2.4661,-2.4661,-2.4661,-2.4661,-2.4661,-2.4355,-2.4039,-2.4553,-2.4145,-2.3474,-2.3637,-2.3714,-2.3202,-2.3115,-2.3355,-2.3716,-2.453,-2.458,-2.4153,-2.423,-2.3925,-2.3599,-2.3368,-2.3368,-2.2925,-2.3231,-2.3294,-2.2999,-2.3231,-2.3588,-2.3565,-2.3279,-2.3268,-2.3414,-2.329,-2.3273,-2.3979,-2.3891,-2.3745,-2.4181,-2.3294,-2.285,-2.2925,-2.3294,-2.3661,-2.3599,-2.3514,-2.3818,-2.4192,-2.4862,-2.5158,-2.5734,-2.6245,-2.6521,-2.6452,-2.6452,-2.6521,-2.6521,-2.6521,-2.6521,-2.6521,-2.6521,-2.6521,-2.6521,-2.6521,-2.6521,-2.6521,-2.6521,-2.6521,-2.6521,-2.6521,-2.6521,-2.6521,-2.6589,-2.6589,-2.6332,-2.5774,-2.5347,-2.4933,-2.4054,-2.3577,-2.3816,-2.3904,-2.4029,-2.4268,-2.4619,-2.4958,-2.5197,-2.5363,-2.5287,-2.4887,-2.4438,-2.4975,-2.5828,-2.6485,-2.7237,-2.8454,-2.9566,-3.0061,-3.0176,-3.0705,-3.0983,-3.0798,-3.0645,-3.0854,-3.0926,-3.0717,-3.0687,-2.6199,-2.588,-2.5672,-2.512,-2.4357,-2.4096,-2.3584,-2.2689,-2.251,-2.2863,-2.2588,-2.2559,-2.3031,-2.3066,-2.3222,-2.3135,-2.3144,-2.3144,-2.3135,-2.3135,-2.3144,-2.2997,-2.2944,-2.3135,-2.3467,-2.4248,-2.3652,-2.318,-2.2925,-2.2999,-2.2414,-2.2038,-2.2553,-2.2414,-2.2113,-2.2563,-2.2787,-2.2691,-2.2669,-2.2722,-2.285,-2.2818,-2.2903,-2.3062,-2.2691,-2.2627,-2.2925,-2.2403,-2.1811,-2.18,-2.1811,-2.2264,-2.2787,-2.3084,-2.3231,-2.322,-2.3891,-2.4409,-2.4791,-2.5441,-2.5861,-2.6164,-2.6233,-2.6383,-2.6465,-2.6521,-2.6521,-2.6521,-2.6521,-2.6521,-2.6521,-2.6521,-2.6521,-2.6521,-2.6521,-2.6521,-2.6521,-2.6521,-2.6521,-2.6521,-2.6521,-2.6521,-2.6113,-2.5649,-2.5234,-2.4745,-2.3879,-2.3341,-2.3703,-2.3916,-2.4155,-2.428,-2.4657,-2.5021,-2.5272,-2.5109,-2.5008,-2.4632,-2.4041,-2.4464,-2.5292,-2.5735,-2.6357,-2.7589,-2.8573,-2.9134,-2.9487,-2.9697,-3.0,-3.0334,-3.0398,-3.0169,-3.0238,-3.0417,-3.0387,-2.4897,-2.3366,-2.4147,-2.3639,-2.2625,-2.2982,-2.2965,-2.2539,-2.251,-2.2705,-2.292,-2.2676,-2.2705,-2.3008,-2.3135,-2.3135,-2.3125,-2.3096,-2.3105,-2.3135,-2.3125,-2.291,-2.2575,-2.231,-2.2261,-2.1968,-2.1994,-2.1897,-2.1375,-2.1088,-2.1231,-2.1011,-2.1165,-2.1088,-2.1088,-2.1011,-2.1385,-2.1461,-2.1385,-2.1385,-2.1385,-2.1385,-2.168,-2.2188,-2.1952,-2.2038,-2.1962,-2.1375,-2.0867,-2.0867,-2.0867,-2.0934,-2.1231,-2.1308,-2.1593,-2.2188,-2.2553,-2.3147,-2.3672,-2.3963,-2.448,-2.5004,-2.5217,-2.5652,-2.6094,-2.6452,-2.6383,-2.6521,-2.6521,-2.6521,-2.6521,-2.6521,-2.6521,-2.6521,-2.6521,-2.6521,-2.6521,-2.6521,-2.6521,-2.6521,-2.6521,-2.6496,-2.6101,-2.5737,-2.536,-2.4996,-2.4418,-2.418,-2.4469,-2.4556,-2.4619,-2.4695,-2.477,-2.5121,-2.5448,-2.5134,-2.4895,-2.4632,-2.4142,-2.3778,-2.4404,-2.4735,-2.5524,-2.6867,-2.7835,-2.8518,-2.8761,-2.8767,-2.9167,-2.9651,-2.9493,-2.9344,-2.9569,-2.9848,-2.9759,-2.3536,-2.2413,-2.3051,-2.2878,-2.2389,-2.2627,-2.2705,-2.2529,-2.251,-2.25,-2.2432,-2.2285,-2.2285,-2.251,-2.2744,-2.292,-2.3047,-2.2881,-2.2949,-2.3076,-2.3115,-2.292,-2.248,-2.207,-2.166,-2.1381,-2.1241,-2.1078,-2.0634,-2.0644,-2.0576,-2.0644,-2.0576,-2.0576,-2.0566,-2.0644,-2.0576,-2.0576,-2.0576,-2.0576,-2.0576,-2.0576,-2.0934,-2.1155,-2.1298,-2.1298,-2.1155,-2.0934,-2.0644,-2.0644,-2.0644,-2.0576,-2.0576,-2.0644,-2.0779,-2.1298,-2.1735,-2.2178,-2.2776,-2.3147,-2.3818,-2.4108,-2.4192,-2.4409,-2.4921,-2.5288,-2.5943,-2.6383,-2.6521,-2.6521,-2.6521,-2.6521,-2.6521,-2.6521,-2.6521,-2.6521,-2.6521,-2.6521,-2.6521,-2.6521,-2.6521,-2.6483,-2.6395,-2.595,-2.5536,-2.5159,-2.4833,-2.4946,-2.5172,-2.5146,-2.5084,-2.5197,-2.5272,-2.5498,-2.5661,-2.5297,-2.4933,-2.4619,-2.418,-2.3816,-2.3853,-2.4293,-2.5127,-2.6298,-2.7104,-2.7541,-2.7651,-2.7507,-2.8229,-2.8788,-2.8639,-2.8611,-2.8993,-2.9197,-2.8966,-2.2314,-2.166,-2.2178,-2.2285,-2.2178,-2.2432,-2.2461,-2.2383,-2.2266,-2.2168,-2.2021,-2.1855,-2.1816,-2.1963,-2.2236,-2.2549,-2.2861,-2.2568,-2.2676,-2.2803,-2.3047,-2.2881,-2.2275,-2.2012,-2.1602,-2.1025,-2.083,-2.0576,-2.0644,-2.0576,-2.0576,-2.0576,-2.0576,-2.0576,-2.0576,-2.0576,-2.0576,-2.0576,-2.0576,-2.0576,-2.0576,-2.0576,-2.0576,-2.0576,-2.0576,-2.0644,-2.0722,-2.0644,-2.0644,-2.0576,-2.0576,-2.0576,-2.0576,-2.0576,-2.0576,-2.0722,-2.1298,-2.1669,-2.1886,-2.2264,-2.2787,-2.3147,-2.3147,-2.3294,-2.3818,-2.4624,-2.537,-2.6025,-2.6452,-2.6452,-2.6521,-2.6521,-2.6521,-2.6521,-2.6521,-2.6521,-2.6521,-2.6521,-2.6521,-2.6521,-2.6521,-2.6496,-2.6433,-2.605,-2.5598,-2.5699,-2.5385,-2.5435,-2.5624,-2.5561,-2.5561,-2.5711,-2.5837,-2.5988,-2.5925,-2.5511,-2.5134,-2.477,-2.418,-2.3653,-2.3778,-2.4054,-2.4861,-2.5524,-2.5434,-2.5768,-2.5959,-2.6264,-2.6663,-2.7094,-2.7477,-2.7812,-2.8219,-2.8024,-2.7646,-2.1172,-2.0801,-2.1621,-2.1514,-2.1084,-2.2031,-2.2285,-2.1953,-2.1641,-2.1826,-2.2227,-2.1689,-2.1543,-2.1787,-2.1855,-2.1973,-2.2129,-2.2285,-2.2285,-2.2295,-2.2705,-2.2441,-2.1631,-2.1797,-2.1357,-2.085,-2.0625,-2.0576,-2.0576,-2.0576,-2.0576,-2.0576,-2.0576,-2.0576,-2.0576,-2.0576,-2.0576,-2.0576,-2.0576,-2.0576,-2.0576,-2.0576,-2.0576,-2.0576,-2.0576,-2.0576,-2.0576,-2.0576,-2.0576,-2.0576,-2.0576,-2.0576,-2.0576,-2.0576,-2.0576,-2.0644,-2.0722,-2.0799,-2.0867,-2.1165,-2.1527,-2.2038,-2.2178,-2.2627,-2.3441,-2.4264,-2.4933,-2.5146,-2.5955,-2.6452,-2.6521,-2.6521,-2.6521,-2.6521,-2.6521,-2.6521,-2.6521,-2.6521,-2.6521,-2.6521,-2.6521,-2.6521,-2.6496,-2.605,-2.5724,-2.5887,-2.6013,-2.6025,-2.6025,-2.595,-2.5937,-2.6063,-2.6076,-2.6201,-2.6101,-2.5699,-2.5335,-2.4933,-2.4356,-2.3703,-2.3766,-2.3941,-2.3966,-2.4368,-2.4318,-2.4556,-2.5167,-2.5396,-2.5314,-2.5498,-2.6004,-2.6706,-2.7379,-2.6952,-2.6446,-2.0742,-2.0644,-2.1514,-2.1533,-2.1084,-2.1826,-2.206,-2.1875,-2.1699,-2.166,-2.1719,-2.1435,-2.1357,-2.1465,-2.1269,-2.1435,-2.1768,-2.1846,-2.1865,-2.1875,-2.2187,-2.2012,-2.1465,-2.1387,-2.1123,-2.0752,-2.0576,-2.0576,-2.0576,-2.0576,-2.0576,-2.0576,-2.0576,-2.0576,-2.0576,-2.0576,-2.0576,-2.0576,-2.0576,-2.0576,-2.0576,-2.0576,-2.0576,-2.0576,-2.0576,-2.0576,-2.0576,-2.0576,-2.0576,-2.0576,-2.0576,-2.0576,-2.0576,-2.0576,-2.0576,-2.0576,-2.0566,-2.0644,-2.0644,-2.0566,-2.0867,-2.1088,-2.1375,-2.1897,-2.3158,-2.3891,-2.4779,-2.5804,-2.6233,-2.6452,-2.6521,-2.6521,-2.6521,-2.6521,-2.6521,-2.6521,-2.6521,-2.6521,-2.6521,-2.6521,-2.6521,-2.6521,-2.6521,-2.6276,-2.605,-2.6138,-2.6239,-2.6251,-2.6276,-2.6276,-2.6289,-2.6352,-2.6314,-2.6345,-2.6113,-2.5837,-2.5511,-2.5134,-2.4795,-2.4217,-2.3866,-2.3866,-2.3828,-2.374,-2.3778,-2.4104,-2.4569,-2.4469,-2.4249,-2.4365,-2.4575,-2.532,-2.6064,-2.6203,-2.5827,-2.0576,-2.0644,-2.1396,-2.1465,-2.1113,-2.1543,-2.1719,-2.1709,-2.1553,-2.1416,-2.126,-2.1123,-2.1055,-2.1016,-2.081,-2.0967,-2.1494,-2.1318,-2.1357,-2.1543,-2.1709,-2.1572,-2.124,-2.1103,-2.1025,-2.0576,-2.0576,-2.0576,-2.0576,-2.0576,-2.0576,-2.0576,-2.0576,-2.0576,-2.0576,-2.0576,-2.0576,-2.0576,-2.0576,-2.0576,-2.0576,-2.0576,-2.0576,-2.0576,-2.0576,-2.0576,-2.0576,-2.0576,-2.0576,-2.0576,-2.0576,-2.0576,-2.0576,-2.0576,-2.0469,-2.0449,-2.0449,-2.0469,-2.0449,-2.0449,-2.0547,-2.0576,-2.0722,-2.1375,-2.2702,-2.3294,-2.4108,-2.5734,-2.6314,-2.6452,-2.6521,-2.6521,-2.6521,-2.6521,-2.6521,-2.6521,-2.6521,-2.6521,-2.6521,-2.6521,-2.6521,-2.6521,-2.6521,-2.6521,-2.6483,-2.6496,-2.6521,-2.6521,-2.6508,-2.6496,-2.6508,-2.6508,-2.6389,-2.6314,-2.6201,-2.5963,-2.5649,-2.5322,-2.4971,-2.4695,-2.433,-2.3828,-2.3552,-2.3452,-2.3452,-2.3514,-2.3904,-2.3552,-2.3238,-2.3568,-2.3932,-2.4145,-2.4576,-2.4905,-2.524,-2.0576,-2.0596,-2.1084,-2.1035,-2.0664,-2.1094,-2.1279,-2.125,-2.0869,-2.0928,-2.1103,-2.085,-2.0674,-2.0635,-2.0635,-2.0625,-2.0723,-2.1064,-2.1016,-2.1103,-2.1357,-2.1269,-2.1016,-2.0928,-2.0977,-2.0635,-2.0576,-2.0576,-2.0576,-2.0576,-2.0576,-2.0576,-2.0576,-2.0576,-2.0576,-2.0576,-2.0576,-2.0576,-2.0576,-2.0527,-2.0527,-2.0537,-2.0547,-2.0527,-2.0547,-2.0576,-2.0576,-2.0576,-2.0576,-2.0576,-2.0576,-2.0576,-2.0576,-2.0576,-2.0439,-2.0312,-2.043,-2.041,-2.0303,-2.041,-2.0547,-2.0576,-2.0722,-2.1155,-2.2478,-2.3147,-2.4036,-2.5217,-2.6164,-2.6452,-2.6521,-2.6521,-2.6521,-2.6521,-2.6521,-2.6521,-2.6521,-2.6521,-2.6521,-2.6521,-2.6521,-2.6521,-2.6521,-2.6521,-2.6521,-2.6521,-2.6521,-2.6521,-2.6458,-2.6445,-2.6471,-2.6483,-2.6389,-2.6352,-2.6314,-2.6088,-2.5812,-2.5435,-2.5059,-2.4921,-2.4757,-2.4217,-2.3728,-2.359,-2.3653,-2.3427,-2.3153,-2.314,-2.3115,-2.3103,-2.3343,-2.3731,-2.4059,-2.4491,-2.4728,-2.0611,-2.0576,-2.0752,-2.0723,-2.0576,-2.0752,-2.082,-2.0801,-2.0644,-2.0644,-2.082,-2.0644,-2.0576,-2.0576,-2.0576,-2.0576,-2.0596,-2.0723,-2.0684,-2.0693,-2.084,-2.084,-2.0684,-2.0703,-2.0723,-2.0596,-2.0576,-2.0576,-2.0576,-2.0576,-2.0576,-2.0576,-2.0576,-2.0576,-2.0576,-2.0566,-2.0557,-2.0547,-2.0518,-2.0459,-2.0234,-2.0439,-2.0439,-2.0176,-2.0488,-2.0547,-2.0576,-2.0576,-2.0576,-2.0576,-2.0576,-2.0576,-2.0547,-2.0557,-2.043,-2.0264,-2.0449,-2.0391,-2.0332,-2.0449,-2.0566,-2.0576,-2.0722,-2.1308,-2.2702,-2.3368,-2.4397,-2.5429,-2.6176,-2.6452,-2.6521,-2.6521,-2.6521,-2.6521,-2.6521,-2.6521,-2.6521,-2.6521,-2.6521,-2.6521,-2.6521,-2.6521,-2.6521,-2.6521,-2.6521,-2.6521,-2.6521,-2.6508,-2.6445,-2.6319,-2.6332,-2.6332,-2.6239,-2.6163,-2.6126,-2.6038,-2.5963,-2.5611,-2.5222,-2.5146,-2.5084,-2.4808,-2.4368,-2.4155,-2.3866,-2.3703,-2.3489,-2.3226,-2.3175,-2.3215,-2.3401,-2.3649,-2.3908,-2.4192,-2.433,-2.0404,-2.0381,-2.0508,-2.0576,-2.0576,-2.0576,-2.0576,-2.0547,-2.042,-2.0371,-2.0391,-2.0478,-2.0576,-2.0576,-2.0576,-2.0576,-2.0576,-2.0596,-2.0586,-2.0605,-2.0615,-2.0576,-2.0576,-2.0586,-2.0615,-2.0576,-2.0576,-2.0576,-2.0576,-2.0576,-2.0576,-2.0576,-2.0576,-2.0576,-2.0576,-2.0566,-2.0508,-2.04,-2.0342,-2.0254,-2.0,-2.0166,-2.041,-2.0156,-2.0449,-2.0547,-2.0576,-2.0576,-2.0576,-2.0576,-2.0576,-2.0576,-2.0527,-2.0459,-2.0381,-2.0371,-2.0371,-2.0381,-2.0391,-2.0508,-2.0702,-2.1088,-2.1165,-2.2124,-2.3305,-2.3952,-2.485,-2.6082,-2.6452,-2.6521,-2.6521,-2.6521,-2.6521,-2.6521,-2.6521,-2.6521,-2.6521,-2.6521,-2.6521,-2.6521,-2.6521,-2.6521,-2.6521,-2.6521,-2.6521,-2.6521,-2.6521,-2.6496,-2.6445,-2.6226,-2.6025,-2.6038,-2.6025,-2.595,-2.585,-2.6,-2.6138,-2.6025,-2.5686,-2.5498,-2.5372,-2.5109,-2.4845,-2.4506,-2.4243,-2.4029,-2.4017,-2.4079,-2.3803,-2.3489,-2.369,-2.4029,-2.4041,-2.4304,-2.4191,-1.9922,-1.999,-2.0381,-2.0566,-2.0527,-2.0634,-2.0576,-2.0527,-2.0205,-2.0039,-2.0127,-2.041,-2.0576,-2.0557,-2.0518,-2.0449,-2.043,-2.0449,-2.0459,-2.0449,-2.0439,-2.0508,-2.0576,-2.0576,-2.0576,-2.0576,-2.0576,-2.0576,-2.0576,-2.0576,-2.0576,-2.0576,-2.0576,-2.0576,-2.0576,-2.0557,-2.0342,-2.001,-1.9971,-1.9723,-1.9795,-1.9883,-2.0137,-2.0205,-2.0459,-2.0557,-2.0576,-2.0576,-2.0576,-2.0576,-2.0576,-2.0576,-2.0557,-2.0264,-2.0127,-2.0088,-2.0049,-2.001,-1.998,-2.0332,-2.0961,-2.1593,-2.1669,-2.2638,-2.4264,-2.5004,-2.5217,-2.6314,-2.6521,-2.6521,-2.6521,-2.6521,-2.6521,-2.6521,-2.6521,-2.6521,-2.6521,-2.6521,-2.6521,-2.6521,-2.6521,-2.6521,-2.6521,-2.6521,-2.6521,-2.6521,-2.6521,-2.6471,-2.6382,-2.6126,-2.5875,-2.5762,-2.5762,-2.5774,-2.5787,-2.6151,-2.637,-2.6239,-2.6101,-2.5862,-2.5636,-2.5398,-2.5121,-2.4833,-2.4732,-2.4619,-2.4858,-2.5109,-2.4481,-2.3916,-2.423,-2.4456,-2.4443,-2.4356,-2.4167,-1.9846,-1.9951,-2.0381,-2.04,-2.0205,-2.0459,-2.0566,-2.0547,-2.042,-2.0342,-2.0361,-2.0527,-2.0566,-2.0508,-2.0283,-2.0166,-2.0127,-1.9785,-1.9785,-2.0156,-2.0205,-2.0352,-2.0469,-2.0576,-2.0576,-2.0576,-2.0576,-2.0576,-2.0576,-2.0576,-2.0576,-2.0576,-2.0537,-2.0576,-2.0314,-1.9947,-1.9316,-1.9647,-1.9201,-1.8703,-1.9044,-1.9516,-1.9873,-1.9844,-2.0303,-2.0557,-2.0576,-2.0576,-2.0576,-2.0576,-2.0576,-2.0576,-2.0557,-2.0303,-2.0303,-2.0322,-2.0322,-2.0185,-2.0127,-2.036,-2.1058,-2.1649,-2.2253,-2.2999,-2.4636,-2.4933,-2.5594,-2.6245,-2.6452,-2.6521,-2.6521,-2.6521,-2.6521,-2.6521,-2.6521,-2.6521,-2.6521,-2.6521,-2.6521,-2.6521,-2.6521,-2.6521,-2.6521,-2.6521,-2.6521,-2.6521,-2.6521,-2.6201,-2.605,-2.5887,-2.5674,-2.5523,-2.5473,-2.5536,-2.5699,-2.6088,-2.6201,-2.6076,-2.6113,-2.6168,-2.5875,-2.5649,-2.5385,-2.5071,-2.5172,-2.5272,-2.5209,-2.5071,-2.4657,-2.4393,-2.4583,-2.4331,-2.3966,-2.4015,-2.4175,-1.9502,-1.9727,-2.0156,-2.0283,-2.0166,-2.0283,-2.0273,-2.0205,-2.04,-2.042,-2.0176,-2.0244,-2.0322,-2.0244,-2.0078,-2.0059,-2.0078,-1.9902,-1.9805,-2.0137,-2.0156,-2.0352,-2.0508,-2.0557,-2.0576,-2.0566,-2.0566,-2.0576,-2.0576,-2.0576,-2.0576,-2.0537,-2.042,-2.0312,-2.0024,-1.9467,-1.8579,-1.8598,-1.795,-1.811,-1.8578,-1.9072,-1.9727,-1.9932,-2.0254,-2.0576,-2.0576,-2.0576,-2.0576,-2.0576,-2.0576,-2.0576,-2.0557,-2.0439,-2.0449,-2.0498,-2.0537,-2.04,-2.0332,-2.0572,-2.1316,-2.2189,-2.236,-2.3503,-2.5004,-2.5594,-2.5886,-2.6314,-2.6452,-2.6521,-2.6521,-2.6521,-2.6521,-2.6521,-2.6521,-2.6521,-2.6521,-2.6521,-2.6521,-2.6521,-2.6521,-2.6521,-2.6521,-2.6521,-2.6521,-2.6521,-2.6521,-2.6163,-2.59,-2.5774,-2.5699,-2.5598,-2.5511,-2.5611,-2.5799,-2.6063,-2.6088,-2.5925,-2.6038,-2.6282,-2.6038,-2.5799,-2.5561,-2.5435,-2.5636,-2.5649,-2.5247,-2.4946,-2.4759,-2.4659,-2.4643,-2.4226,-2.355,-2.386,-2.4407,-1.8887,-1.9307,-1.9736,-2.0146,-2.0391,-2.0088,-1.9727,-1.9414,-2.0156,-2.0029,-1.9365,-1.9785,-1.9941,-1.9941,-1.9893,-2.0068,-2.0283,-2.0312,-2.0332,-2.0352,-2.0215,-2.04,-2.0526,-2.0439,-2.0361,-2.0449,-2.0459,-2.0352,-2.0488,-2.0322,-2.0332,-2.0391,-2.0068,-1.9849,-1.9507,-1.8797,-1.7888,-1.7406,-1.7222,-1.7512,-1.7963,-1.895,-1.9681,-2.0088,-2.0439,-2.0557,-2.0576,-2.0576,-2.0576,-2.0576,-2.0576,-2.0576,-2.0449,-2.0156,-2.0293,-2.043,-2.0566,-2.0518,-2.0505,-2.0767,-2.1618,-2.2462,-2.3139,-2.4566,-2.5591,-2.6146,-2.6314,-2.6383,-2.6521,-2.6521,-2.6521,-2.6521,-2.6521,-2.6521,-2.6521,-2.6521,-2.6521,-2.6521,-2.6521,-2.6521,-2.6521,-2.6521,-2.6521,-2.6521,-2.6521,-2.6521,-2.6521,-2.6483,-2.6163,-2.5963,-2.59,-2.5925,-2.5837,-2.5799,-2.5925,-2.595,-2.5824,-2.5611,-2.6113,-2.6314,-2.6126,-2.5963,-2.5812,-2.5812,-2.6151,-2.6,-2.531,-2.5073,-2.5166,-2.5052,-2.5253,-2.4832,-2.4352,-2.4671,-2.4948,-1.864,-1.8906,-1.9609,-1.9814,-1.9687,-1.9834,-1.9678,-1.9375,-1.958,-1.9463,-1.9307,-1.9414,-1.9609,-1.9873,-1.9609,-1.9785,-1.9863,-1.9873,-1.9893,-1.9922,-1.9941,-2.0146,-2.0166,-2.0049,-1.9951,-2.0029,-2.0078,-1.998,-1.9727,-1.9697,-1.9912,-1.998,-1.9668,-1.9276,-1.8628,-1.7637,-1.7159,-1.6841,-1.6729,-1.6937,-1.7779,-1.8879,-1.9674,-2.0156,-2.0469,-2.0537,-2.0576,-2.0537,-2.0527,-2.0537,-2.0547,-2.0547,-2.0537,-2.043,-2.0498,-2.0527,-2.0537,-2.0517,-2.0299,-2.0785,-2.1637,-2.2726,-2.3475,-2.4525,-2.5586,-2.6257,-2.6483,-2.6521,-2.6521,-2.6521,-2.6521,-2.6521,-2.6521,-2.6521,-2.6521,-2.6521,-2.6521,-2.6521,-2.6521,-2.6521,-2.6521,-2.6521,-2.6521,-2.6521,-2.6521,-2.6521,-2.6521,-2.6521,-2.6471,-2.6189,-2.6076,-2.6101,-2.6025,-2.5937,-2.5636,-2.5573,-2.5448,-2.5398,-2.5975,-2.6327,-2.6076,-2.595,-2.5988,-2.6291,-2.6646,-2.6079,-2.5121,-2.5255,-2.6011,-2.6051,-2.6176,-2.5701,-2.5335,-2.5601,-2.5648,-1.8594,-1.8955,-1.9443,-1.96,-1.957,-1.9629,-1.9424,-1.9131,-1.9375,-1.9394,-1.9043,-1.9033,-1.9258,-1.957,-1.9434,-1.9531,-1.9902,-1.999,-1.9912,-1.9561,-1.9531,-1.9893,-1.9922,-1.9687,-1.9668,-1.9736,-1.9717,-1.957,-1.9297,-1.9287,-1.9482,-1.96,-1.9238,-1.8845,-1.8221,-1.7396,-1.6828,-1.663,-1.6538,-1.6456,-1.7409,-1.8844,-1.9723,-2.0185,-2.0478,-2.0527,-2.0518,-2.0449,-2.0322,-2.0254,-2.0215,-2.0156,-2.0273,-2.042,-2.0547,-2.0576,-2.0557,-2.0459,-2.0417,-2.0815,-2.1752,-2.2715,-2.3735,-2.4587,-2.5407,-2.6113,-2.6327,-2.6521,-2.6521,-2.6521,-2.6521,-2.6521,-2.6521,-2.6521,-2.6521,-2.6521,-2.6521,-2.6521,-2.6521,-2.6521,-2.6521,-2.6521,-2.6521,-2.6521,-2.6521,-2.6521,-2.6521,-2.6521,-2.6521,-2.6445,-2.6264,-2.6239,-2.6138,-2.6013,-2.5699,-2.5536,-2.5649,-2.5774,-2.6088,-2.6289,-2.6038,-2.6173,-2.6435,-2.6796,-2.7222,-2.6661,-2.6218,-2.6665,-2.7207,-2.723,-2.7239,-2.7225,-2.6762,-2.6311,-2.6197,-1.8317,-1.8986,-1.9146,-1.9187,-1.958,-1.9335,-1.9,-1.8608,-1.9321,-1.9336,-1.8682,-1.8584,-1.8828,-1.916,-1.916,-1.9404,-1.9727,-1.9932,-1.9746,-1.9287,-1.9414,-1.9668,-1.9658,-1.9434,-1.9248,-1.9443,-1.9473,-1.9189,-1.9199,-1.9082,-1.8922,-1.9117,-1.8809,-1.8418,-1.8028,-1.7097,-1.6625,-1.659,-1.6602,-1.657,-1.7234,-1.8591,-2.0107,-2.0459,-2.0547,-2.0527,-2.04,-2.0185,-1.9902,-1.9746,-1.9697,-1.9668,-2.0059,-2.0254,-2.043,-2.0498,-2.0469,-2.0478,-2.0629,-2.1141,-2.19,-2.2842,-2.3746,-2.4796,-2.5722,-2.6189,-2.6471,-2.6521,-2.6521,-2.6521,-2.6521,-2.6521,-2.6521,-2.6521,-2.6521,-2.6521,-2.6521,-2.6521,-2.6521,-2.6521,-2.6521,-2.6521,-2.6521,-2.6521,-2.6521,-2.6521,-2.6521,-2.6521,-2.6521,-2.6521,-2.6483,-2.642,-2.6276,-2.6163,-2.6013,-2.5937,-2.6138,-2.6314,-2.6389,-2.6663,-2.67,-2.6819,-2.6989,-2.738,-2.7782,-2.8094,-2.7982,-2.8174,-2.8083,-2.8024,-2.8201,-2.8713,-2.834,-2.7371,-2.6638,-1.7033,-1.7245,-1.7558,-1.7712,-1.7775,-1.8843,-1.859,-1.7639,-1.8533,-1.8662,-1.8223,-1.8203,-1.8418,-1.8809,-1.8857,-1.9082,-1.9414,-1.9639,-1.9473,-1.917,-1.9131,-1.9258,-1.9238,-1.8809,-1.8721,-1.8789,-1.8828,-1.8789,-1.875,-1.8523,-1.8145,-1.7837,-1.7919,-1.8112,-1.7741,-1.6939,-1.6742,-1.676,-1.6911,-1.7093,-1.773,-1.8817,-2.0107,-2.041,-2.0605,-2.0352,-2.0185,-1.9971,-1.9687,-1.9492,-1.9717,-1.998,-2.0391,-2.0185,-2.0264,-2.0439,-2.0273,-2.0322,-2.0765,-2.1424,-2.2247,-2.3221,-2.4249,-2.5362,-2.6058,-2.6339,-2.6452,-2.6452,-2.6521,-2.6521,-2.6521,-2.6521,-2.6521,-2.6521,-2.6521,-2.6521,-2.6521,-2.6521,-2.6521,-2.6521,-2.6521,-2.6521,-2.6521,-2.6521,-2.6521,-2.6521,-2.6521,-2.6521,-2.6521,-2.6521,-2.6521,-2.6483,-2.6483,-2.6327,-2.6214,-2.6176,-2.6314,-2.6302,-2.6289,-2.6748,-2.7217,-2.7855,-2.8258,-2.818,-2.8402,-2.88,-2.8989,-2.8902,-2.8834,-2.8647,-2.8626,-2.8968,-2.8829,-2.8024,-2.7201,-1.7102,-1.6874,-1.6817,-1.6764,-1.6877,-1.7889,-1.7896,-1.7468,-1.8008,-1.8232,-1.8027,-1.8037,-1.8242,-1.8523,-1.8572,-1.8701,-1.9023,-1.9228,-1.8975,-1.873,-1.8721,-1.8838,-1.8623,-1.834,-1.8477,-1.8525,-1.8389,-1.834,-1.834,-1.8163,-1.7849,-1.7535,-1.7831,-1.7831,-1.7474,-1.732,-1.7217,-1.7235,-1.7427,-1.7716,-1.8227,-1.9245,-1.9951,-2.0244,-2.0225,-2.0088,-1.9883,-1.9629,-1.9228,-1.9072,-1.9189,-1.9307,-1.9551,-1.9609,-1.9863,-2.0078,-2.0117,-2.0107,-2.0705,-2.1419,-2.2262,-2.3061,-2.3913,-2.4649,-2.5481,-2.5734,-2.6094,-2.6164,-2.6452,-2.6521,-2.6521,-2.6521,-2.6521,-2.6521,-2.6521,-2.6521,-2.6521,-2.6521,-2.6521,-2.6521,-2.6521,-2.6521,-2.6521,-2.6521,-2.6521,-2.6521,-2.6521,-2.6521,-2.6521,-2.6521,-2.6521,-2.6521,-2.6521,-2.6496,-2.6395,-2.637,-2.642,-2.637,-2.6239,-2.679,-2.7484,-2.8748,-2.9482,-2.919,-2.9242,-2.974,-2.9865,-2.9358,-2.9158,-2.8926,-2.89,-2.9034,-2.8665,-2.8121,-2.7198,-1.6967,-1.661,-1.6187,-1.6112,-1.6246,-1.689,-1.7054,-1.7106,-1.7722,-1.7988,-1.793,-1.7969,-1.8252,-1.8447,-1.8475,-1.8484,-1.8584,-1.8633,-1.8398,-1.8223,-1.8281,-1.8291,-1.8262,-1.8184,-1.8281,-1.8291,-1.8193,-1.8115,-1.8076,-1.8018,-1.7949,-1.7872,-1.794,-1.7949,-1.7862,-1.794,-1.7862,-1.7794,-1.7919,-1.8104,-1.8689,-1.9355,-1.9687,-1.9824,-1.9883,-1.9853,-1.9541,-1.917,-1.8691,-1.8633,-1.8711,-1.8916,-1.9082,-1.9297,-1.9609,-1.9844,-1.998,-2.0156,-2.0574,-2.0971,-2.1542,-2.2081,-2.2925,-2.3818,-2.4636,-2.5004,-2.5358,-2.5581,-2.5861,-2.6013,-2.6013,-2.6013,-2.6013,-2.6383,-2.6383,-2.6452,-2.6521,-2.6521,-2.6521,-2.6521,-2.6521,-2.6521,-2.6521,-2.6521,-2.6521,-2.6521,-2.6521,-2.6521,-2.6521,-2.6521,-2.6521,-2.6521,-2.6521,-2.6496,-2.6471,-2.6471,-2.6471,-2.6471,-2.6501,-2.7002,-2.767,-2.9002,-2.9752,-2.986,-3.0015,-2.9925,-2.9746,-2.9285,-2.9186,-2.8724,-2.7769,-2.7242,-2.7121,-2.6603,-2.6397,-1.3981,-1.3697,-1.4022,-1.4362,-1.4828,-1.6048,-1.6504,-1.6424,-1.7396,-1.7832,-1.756,-1.7871,-1.8086,-1.8125,-1.8135,-1.8125,-1.8105,-1.8076,-1.7812,-1.7568,-1.7646,-1.7646,-1.7764,-1.7988,-1.8057,-1.8057,-1.8037,-1.8037,-1.8008,-1.794,-1.7647,-1.7139,-1.7872,-1.7725,-1.7148,-1.7432,-1.8008,-1.8008,-1.8008,-1.8105,-1.832,-1.8838,-1.9297,-1.9521,-1.9727,-1.9394,-1.9033,-1.875,-1.8447,-1.833,-1.8428,-1.8701,-1.8916,-1.9102,-1.9414,-1.9717,-1.9844,-2.0156,-2.0554,-2.1058,-2.1517,-2.1735,-2.2638,-2.3294,-2.3818,-2.3818,-2.4036,-2.4036,-2.4241,-2.4397,-2.4397,-2.4397,-2.4469,-2.5441,-2.5873,-2.6233,-2.6521,-2.6521,-2.6521,-2.6521,-2.6521,-2.6521,-2.6521,-2.6521,-2.6521,-2.6521,-2.6521,-2.6521,-2.6521,-2.6521,-2.6521,-2.6521,-2.6521,-2.6521,-2.6508,-2.6496,-2.6508,-2.6521,-2.6645,-2.7095,-2.7934,-2.9254,-2.9813,-2.969,-2.9428,-2.9275,-2.9111,-2.8725,-2.8127,-2.7398,-2.585,-2.5027,-2.5175,-2.5398,-2.5368]}]]